[[{"header":{"parameterUnit":"m.s-1","parameterCategory":1,"la1":30.6,"la2":29.2853,"lo1":-89.7004,"lo2":-87.6739,"dy":0.0162,"dx":0.0183,"nx":112,"ny":82,"refTime":"2023-06-22T06:00:00:Z","depth":0,"parameterNumber":2,"parameterNumberName":"U-component_of_WINDS"},"data":[0.0,0.0,0.0,0.0,0.0,0.0,0.0,0.0,0.0,0.0,0.0,0.0,0.0,0.0,0.0,0.0,0.0,0.0,0.0,0.0,0.0,0.0,0.0,0.0,0.0,0.0,0.0,0.0,0.0,0.0,0.0,0.0,0.0,0.0,0.0,0.0,0.0,0.0,0.0,0.0,0.0,0.0,0.0,0.0,0.0,0.0,0.0,0.0,0.0,0.0,0.0,0.0,0.0,0.0,0.0,0.0,0.0,0.0,0.0,0.0,0.0,0.0,0.0,0.0,0.0,0.0,0.0,0.0,0.0,0.0,0.0,0.0,0.0,0.0,0.0,0.0,0.0,0.0,0.0,0.0,0.0,0.0,0.0,0.0,0.0,0.0,0.0,0.0,0.0,0.0,-4.3822,-4.3628,-4.3628,-4.3628,-4.3628,-4.3628,-4.3628,-4.3628,0.0,0.0,0.0,0.0,0.0,0.0,0.0,0.0,0.0,0.0,0.0,0.0,0.0,0.0,0.0,0.0,0.0,0.0,0.0,0.0,0.0,0.0,0.0,0.0,0.0,0.0,0.0,0.0,0.0,0.0,0.0,0.0,0.0,0.0,0.0,0.0,0.0,0.0,0.0,0.0,0.0,0.0,0.0,0.0,0.0,0.0,0.0,0.0,0.0,0.0,0.0,0.0,0.0,0.0,0.0,0.0,0.0,0.0,0.0,0.0,0.0,0.0,0.0,0.0,0.0,0.0,0.0,0.0,0.0,0.0,0.0,0.0,0.0,0.0,0.0,0.0,0.0,0.0,0.0,0.0,0.0,0.0,0.0,0.0,0.0,0.0,0.0,0.0,0.0,0.0,0.0,0.0,0.0,0.0,0.0,0.0,0.0,0.0,0.0,0.0,0.0,0.0,0.0,0.0,-4.3822,-4.3628,-4.3628,-4.3628,-4.3628,-4.3628,-4.3628,-4.3628,0.0,0.0,0.0,0.0,0.0,0.0,0.0,0.0,0.0,0.0,0.0,0.0,0.0,0.0,0.0,0.0,0.0,0.0,0.0,0.0,0.0,0.0,0.0,0.0,0.0,0.0,0.0,0.0,0.0,0.0,0.0,0.0,0.0,0.0,0.0,0.0,0.0,0.0,0.0,0.0,0.0,0.0,0.0,0.0,0.0,0.0,0.0,0.0,0.0,0.0,0.0,0.0,0.0,0.0,0.0,0.0,0.0,0.0,0.0,0.0,0.0,0.0,0.0,0.0,0.0,0.0,0.0,0.0,0.0,0.0,0.0,0.0,0.0,0.0,0.0,0.0,0.0,0.0,0.0,0.0,0.0,0.0,0.0,0.0,0.0,0.0,0.0,0.0,0.0,0.0,0.0,0.0,0.0,0.0,0.0,0.0,0.0,0.0,0.0,0.0,0.0,0.0,0.0,-4.3687,-4.3687,-4.3628,-4.3628,-4.3628,-4.3628,-4.3628,-4.3628,-4.3628,-4.3628,0.0,0.0,0.0,0.0,0.0,0.0,0.0,0.0,0.0,0.0,0.0,0.0,0.0,0.0,0.0,0.0,0.0,0.0,0.0,0.0,0.0,0.0,0.0,0.0,0.0,0.0,0.0,0.0,0.0,0.0,0.0,0.0,0.0,0.0,0.0,0.0,0.0,0.0,0.0,0.0,0.0,0.0,0.0,0.0,0.0,0.0,0.0,0.0,0.0,0.0,0.0,0.0,0.0,0.0,0.0,0.0,0.0,0.0,0.0,0.0,0.0,0.0,0.0,0.0,0.0,0.0,0.0,0.0,0.0,0.0,0.0,0.0,0.0,0.0,0.0,0.0,0.0,0.0,0.0,0.0,0.0,0.0,0.0,0.0,0.0,0.0,0.0,0.0,0.0,0.0,0.0,0.0,0.0,0.0,0.0,0.0,0.0,0.0,0.0,0.0,0.0,0.0,-4.3628,-4.3628,-4.3628,-4.3628,-4.3628,-4.3628,-4.3628,-4.3628,-4.3628,-4.3628,0.0,0.0,0.0,0.0,0.0,0.0,0.0,0.0,0.0,0.0,0.0,0.0,0.0,0.0,0.0,0.0,0.0,0.0,0.0,0.0,0.0,0.0,0.0,0.0,0.0,0.0,0.0,0.0,0.0,0.0,0.0,0.0,0.0,0.0,0.0,0.0,0.0,0.0,0.0,0.0,0.0,0.0,0.0,0.0,0.0,0.0,0.0,0.0,0.0,0.0,0.0,0.0,0.0,0.0,0.0,0.0,0.0,0.0,0.0,0.0,0.0,0.0,0.0,0.0,0.0,0.0,0.0,0.0,0.0,0.0,0.0,0.0,0.0,0.0,0.0,0.0,0.0,0.0,0.0,0.0,0.0,0.0,0.0,0.0,0.0,0.0,0.0,0.0,0.0,0.0,0.0,0.0,0.0,0.0,0.0,0.0,0.0,0.0,0.0,0.0,0.0,0.0,-4.3628,-4.3628,-4.3628,-4.3628,-4.3628,-4.3628,-4.3628,-4.3628,-4.3628,-4.3628,0.0,0.0,0.0,0.0,0.0,0.0,0.0,0.0,0.0,0.0,0.0,0.0,0.0,0.0,0.0,0.0,0.0,0.0,0.0,0.0,0.0,0.0,0.0,0.0,0.0,0.0,0.0,0.0,0.0,0.0,0.0,0.0,0.0,0.0,0.0,0.0,0.0,0.0,0.0,0.0,0.0,0.0,0.0,0.0,0.0,0.0,0.0,0.0,0.0,0.0,0.0,0.0,0.0,0.0,0.0,0.0,0.0,0.0,0.0,0.0,0.0,0.0,0.0,0.0,0.0,0.0,0.0,0.0,0.0,0.0,0.0,0.0,0.0,0.0,0.0,0.0,0.0,0.0,0.0,0.0,0.0,0.0,0.0,0.0,0.0,0.0,0.0,0.0,0.0,0.0,0.0,0.0,0.0,0.0,0.0,0.0,0.0,0.0,0.0,0.0,0.0,0.0,-4.3628,-4.3628,-4.3628,-4.3628,-4.3628,-4.3628,-4.3628,-4.3628,-4.3628,0.0,0.0,0.0,0.0,0.0,0.0,0.0,0.0,0.0,0.0,0.0,0.0,0.0,0.0,0.0,0.0,0.0,0.0,0.0,0.0,0.0,0.0,0.0,0.0,0.0,0.0,0.0,0.0,0.0,0.0,0.0,0.0,0.0,0.0,0.0,0.0,0.0,0.0,0.0,0.0,0.0,0.0,0.0,0.0,0.0,0.0,0.0,0.0,0.0,0.0,0.0,0.0,0.0,0.0,0.0,0.0,0.0,0.0,0.0,0.0,0.0,0.0,0.0,0.0,0.0,0.0,0.0,0.0,0.0,0.0,0.0,0.0,0.0,0.0,0.0,0.0,0.0,0.0,0.0,0.0,0.0,0.0,0.0,0.0,0.0,0.0,0.0,0.0,0.0,0.0,0.0,0.0,0.0,0.0,0.0,0.0,0.0,0.0,0.0,0.0,0.0,0.0,-4.3628,-4.3628,-4.3628,-4.3628,-4.3628,-4.3628,-4.3628,-4.3628,-4.3628,-4.3628,0.0,0.0,0.0,0.0,0.0,0.0,0.0,0.0,0.0,0.0,0.0,0.0,0.0,0.0,0.0,0.0,0.0,0.0,0.0,0.0,0.0,0.0,0.0,0.0,0.0,0.0,0.0,0.0,0.0,0.0,0.0,0.0,0.0,0.0,0.0,0.0,0.0,0.0,0.0,0.0,0.0,0.0,0.0,0.0,0.0,0.0,0.0,0.0,0.0,0.0,0.0,0.0,0.0,0.0,0.0,0.0,0.0,0.0,0.0,0.0,0.0,0.0,0.0,0.0,0.0,0.0,0.0,0.0,0.0,0.0,0.0,0.0,0.0,0.0,0.0,0.0,0.0,0.0,0.0,0.0,0.0,0.0,0.0,0.0,0.0,0.0,0.0,0.0,0.0,0.0,0.0,0.0,0.0,0.0,0.0,0.0,0.0,0.0,0.0,0.0,0.0,0.0,-4.3628,-4.3628,-4.3628,-4.3628,-4.3628,-4.3628,-4.3628,-4.3628,-4.3628,0.0,0.0,0.0,0.0,0.0,0.0,0.0,0.0,0.0,0.0,0.0,0.0,0.0,0.0,0.0,0.0,0.0,0.0,0.0,0.0,0.0,0.0,0.0,0.0,0.0,0.0,0.0,0.0,0.0,0.0,0.0,0.0,0.0,0.0,0.0,0.0,0.0,0.0,0.0,0.0,0.0,0.0,0.0,0.0,0.0,0.0,0.0,0.0,0.0,0.0,0.0,0.0,0.0,0.0,0.0,0.0,0.0,0.0,0.0,0.0,0.0,0.0,0.0,0.0,0.0,0.0,0.0,0.0,0.0,0.0,0.0,0.0,0.0,0.0,0.0,0.0,0.0,0.0,0.0,0.0,0.0,0.0,0.0,0.0,0.0,0.0,0.0,0.0,0.0,0.0,0.0,0.0,0.0,0.0,0.0,0.0,0.0,0.0,0.0,0.0,0.0,0.0,0.0,-4.3628,-4.3628,-4.3628,-4.3628,-4.3628,-4.3628,-4.3628,-4.3628,-4.3628,-4.3628,0.0,0.0,0.0,0.0,0.0,0.0,0.0,0.0,0.0,0.0,0.0,0.0,0.0,0.0,0.0,0.0,0.0,0.0,0.0,0.0,0.0,0.0,0.0,0.0,0.0,0.0,0.0,0.0,0.0,0.0,0.0,0.0,0.0,0.0,0.0,0.0,0.0,0.0,0.0,0.0,0.0,0.0,0.0,0.0,0.0,0.0,0.0,0.0,0.0,0.0,0.0,0.0,0.0,0.0,0.0,0.0,0.0,0.0,0.0,0.0,0.0,0.0,0.0,0.0,0.0,0.0,0.0,0.0,0.0,0.0,0.0,0.0,0.0,0.0,0.0,0.0,0.0,0.0,0.0,0.0,0.0,0.0,0.0,0.0,0.0,0.0,0.0,0.0,0.0,0.0,0.0,0.0,0.0,0.0,0.0,0.0,0.0,0.0,0.0,0.0,0.0,0.0,-4.3661,-4.3628,-4.3628,-4.3628,-4.3628,-4.3628,-4.3628,-4.3628,-4.3628,-4.3628,0.0,0.0,0.0,0.0,0.0,0.0,0.0,0.0,0.0,0.0,0.0,0.0,0.0,0.0,0.0,0.0,0.0,0.0,0.0,0.0,0.0,0.0,0.0,0.0,0.0,0.0,0.0,0.0,0.0,0.0,0.0,0.0,0.0,0.0,0.0,0.0,0.0,0.0,0.0,0.0,0.0,0.0,0.0,0.0,0.0,0.0,0.0,0.0,0.0,0.0,0.0,0.0,0.0,0.0,0.0,0.0,0.0,0.0,0.0,0.0,0.0,0.0,0.0,0.0,0.0,0.0,0.0,0.0,0.0,0.0,0.0,0.0,0.0,0.0,0.0,0.0,0.0,0.0,0.0,0.0,0.0,0.0,0.0,0.0,0.0,0.0,0.0,0.0,0.0,0.0,0.0,0.0,0.0,0.0,0.0,0.0,0.0,0.0,0.0,0.0,0.0,0.0,-4.381,-4.3661,-4.3645,-4.3711,-4.3661,-4.3661,-4.3727,-4.3661,-4.3628,-4.3628,0.0,0.0,0.0,0.0,0.0,0.0,0.0,0.0,0.0,0.0,0.0,0.0,0.0,0.0,0.0,0.0,0.0,0.0,0.0,0.0,0.0,0.0,0.0,0.0,0.0,0.0,0.0,0.0,0.0,0.0,0.0,0.0,0.0,0.0,0.0,0.0,0.0,0.0,0.0,0.0,0.0,0.0,0.0,0.0,0.0,0.0,0.0,0.0,0.0,0.0,0.0,0.0,0.0,0.0,0.0,0.0,0.0,0.0,0.0,0.0,-5.3591,0.0,0.0,0.0,0.0,0.0,0.0,0.0,0.0,0.0,0.0,0.0,0.0,0.0,0.0,0.0,0.0,0.0,0.0,0.0,0.0,0.0,0.0,0.0,0.0,0.0,0.0,0.0,0.0,0.0,0.0,0.0,0.0,0.0,0.0,0.0,0.0,0.0,0.0,0.0,0.0,0.0,-4.4473,-4.3976,-4.3843,-4.439,-4.3959,-4.3843,-4.4423,-4.3943,-4.3628,-4.3628,-4.3628,0.0,0.0,0.0,0.0,0.0,0.0,0.0,0.0,0.0,0.0,0.0,0.0,0.0,0.0,0.0,0.0,0.0,0.0,0.0,0.0,0.0,0.0,0.0,0.0,0.0,0.0,0.0,0.0,0.0,0.0,0.0,0.0,0.0,0.0,0.0,0.0,0.0,0.0,0.0,0.0,0.0,0.0,0.0,0.0,0.0,0.0,0.0,0.0,0.0,0.0,0.0,0.0,0.0,0.0,0.0,0.0,0.0,0.0,0.0,0.0,-5.3888,0.0,0.0,0.0,0.0,0.0,0.0,0.0,0.0,0.0,0.0,0.0,0.0,0.0,0.0,0.0,0.0,0.0,0.0,0.0,0.0,0.0,0.0,0.0,0.0,0.0,0.0,0.0,0.0,0.0,0.0,0.0,0.0,0.0,0.0,0.0,0.0,0.0,0.0,0.0,0.0,-4.4738,-4.4373,-4.4274,-4.4655,-4.4671,-4.4671,-4.4688,-4.4357,-4.3992,-4.3645,-4.3628,0.0,0.0,0.0,0.0,0.0,0.0,0.0,0.0,0.0,0.0,0.0,0.0,0.0,0.0,0.0,0.0,0.0,0.0,0.0,0.0,0.0,0.0,0.0,0.0,0.0,0.0,0.0,0.0,0.0,0.0,0.0,0.0,0.0,0.0,0.0,0.0,0.0,0.0,0.0,0.0,0.0,0.0,0.0,0.0,0.0,0.0,0.0,0.0,0.0,0.0,0.0,0.0,0.0,-5.5739,-5.5794,-5.5794,-5.5941,-5.6014,-5.5996,-5.5907,-5.5285,-5.4418,-5.4735,0.0,0.0,0.0,0.0,0.0,0.0,0.0,0.0,0.0,0.0,0.0,0.0,0.0,0.0,0.0,0.0,0.0,0.0,0.0,0.0,0.0,0.0,0.0,0.0,-4.8627,-4.8356,-4.8115,0.0,0.0,0.0,0.0,0.0,0.0,0.0,0.0,0.0,0.0,0.0,-4.5152,-4.4953,-4.492,-4.5052,-4.55,-4.5599,-4.5102,-4.4837,-4.444,-4.3843,-4.3694,-4.3628,0.0,0.0,0.0,0.0,0.0,0.0,0.0,0.0,0.0,0.0,0.0,0.0,0.0,0.0,0.0,0.0,0.0,0.0,0.0,0.0,0.0,0.0,0.0,0.0,0.0,0.0,0.0,0.0,0.0,0.0,0.0,0.0,-5.3277,-5.3277,0.0,0.0,0.0,0.0,0.0,0.0,0.0,0.0,0.0,0.0,0.0,0.0,0.0,-5.5427,-5.5427,-5.5537,-5.5592,-5.5592,-5.6308,-5.6638,-5.6675,-5.7373,-5.7685,-5.7685,-5.7666,0.0,-5.5048,-5.4562,0.0,0.0,0.0,0.0,0.0,0.0,0.0,0.0,0.0,0.0,0.0,0.0,0.0,0.0,0.0,0.0,0.0,0.0,0.0,0.0,0.0,0.0,-4.8832,-4.8769,-4.85,-4.8227,0.0,-4.8049,-4.8001,-4.8001,-4.8001,0.0,0.0,0.0,0.0,0.0,0.0,0.0,-4.6609,-4.6046,-4.5897,-4.6527,-4.6113,-4.6013,-4.656,-4.5433,-4.4655,-4.4556,-4.3959,-4.3628,-4.3628,-4.3628,0.0,0.0,0.0,0.0,0.0,0.0,0.0,0.0,0.0,0.0,0.0,0.0,0.0,0.0,0.0,0.0,0.0,0.0,0.0,0.0,0.0,0.0,0.0,0.0,0.0,0.0,0.0,0.0,0.0,-5.3254,-5.3277,-5.3272,-5.3277,-5.33,0.0,0.0,0.0,0.0,0.0,0.0,0.0,0.0,0.0,-5.5592,-5.6033,-5.6271,-5.6271,-5.6712,-5.7171,-5.7629,-5.7997,-5.8162,-5.8198,-5.8988,-5.9098,-5.8676,-5.8676,-5.7953,-5.6785,-5.5962,-5.5026,-5.3982,0.0,0.0,0.0,0.0,-4.9858,-4.9001,-4.9001,-4.9001,-4.9001,-4.9001,0.0,0.0,0.0,0.0,0.0,0.0,0.0,0.0,0.0,0.0,-4.8877,-4.869,-4.85,-4.8292,-4.8115,-4.8066,-4.8001,0.0,-4.8001,-4.8001,-4.8001,0.0,0.0,0.0,0.0,-4.6891,-4.6891,-4.6609,-4.6527,-4.6874,-4.6974,-4.699,-4.6908,-4.6295,-4.5566,-4.4738,-4.439,-4.4042,-4.3645,-4.3628,-4.3628,0.0,0.0,0.0,0.0,0.0,0.0,0.0,0.0,0.0,0.0,0.0,0.0,0.0,0.0,0.0,0.0,0.0,0.0,0.0,0.0,0.0,0.0,0.0,0.0,0.0,0.0,0.0,0.0,-5.3254,-5.3277,-5.323,-5.3295,-5.3433,0.0,0.0,0.0,0.0,0.0,0.0,-5.5868,-5.6088,-5.6198,-5.6198,-5.6785,-5.7116,-5.7116,-5.7703,-5.8309,-5.8896,-5.8896,-5.8896,-5.8914,-5.952,-5.9465,-5.8896,-5.8896,-5.8458,-5.7724,-5.6814,-5.5479,-5.3897,-5.3518,-5.2711,-5.166,-5.0926,-5.0202,-4.9543,-4.9357,-4.9272,-4.9255,-4.9069,-4.9001,-4.9001,-4.9001,0.0,0.0,0.0,0.0,-4.9001,-4.9001,-4.894,-4.8877,-4.8627,-4.8483,-4.8356,-4.8115,-4.8001,-4.8001,0.0,-4.8001,-4.8001,-4.8001,0.0,0.0,0.0,0.0,-4.7173,-4.7173,-4.7173,-4.7173,-4.7173,-4.7669,-4.7785,-4.7222,-4.7007,-4.6427,-4.5317,-4.4903,-4.444,-4.391,-4.3727,-4.3628,-4.3628,0.0,0.0,0.0,0.0,0.0,0.0,0.0,0.0,0.0,0.0,0.0,0.0,0.0,0.0,0.0,0.0,0.0,0.0,0.0,0.0,0.0,0.0,0.0,0.0,0.0,0.0,0.0,0.0,0.0,-5.3318,-5.34,0.0,0.0,0.0,0.0,-5.5508,-5.6253,-5.6712,-5.6748,-5.7464,-5.7868,-5.7868,-5.7923,-5.7941,-5.7941,-5.7978,-5.8015,-5.8052,-5.8052,-5.8052,-5.8052,-5.8107,-5.8107,-5.8052,-5.8052,-5.7619,-5.6915,-5.6077,-5.5685,-5.5355,-5.4025,-5.3386,-5.3094,-5.2459,-5.1725,-5.0997,-5.0287,-5.0033,-4.9915,-4.9221,-4.9001,-4.9001,-4.9001,-4.9001,0.0,0.0,-4.9001,-4.9001,-4.9001,-4.8894,-4.8786,-4.8769,-4.85,-4.8227,-4.8163,-4.8115,-4.8001,0.0,-4.8001,-4.8001,-4.8001,0.0,-4.8001,-4.8001,-4.7968,-4.7934,-4.7934,-4.7934,-4.7934,-4.7934,-4.7984,-4.7984,-4.7951,-4.7305,-4.6874,-4.6792,-4.5467,-4.4671,-4.4638,-4.3976,-4.3628,-4.3628,-4.3628,0.0,0.0,0.0,0.0,0.0,0.0,0.0,0.0,0.0,0.0,0.0,0.0,0.0,0.0,0.0,0.0,0.0,0.0,0.0,0.0,0.0,0.0,0.0,0.0,0.0,0.0,0.0,0.0,-5.33,-5.3861,0.0,-5.4598,-5.5054,-5.5656,-5.6491,-5.7187,-5.762,-5.7684,-5.8391,-5.8529,-5.8015,-5.7997,-5.7997,-5.7997,-5.7997,-5.8253,-5.8786,-5.8786,-5.8786,-5.8804,-5.9318,-5.9036,-5.8196,-5.8196,-5.7529,-5.6427,-5.5525,-5.5094,-5.4852,-5.3898,-5.3126,-5.2609,-5.2365,-5.1843,-5.1183,-5.0913,-5.0811,-5.0777,-5.0507,-5.0439,-5.0338,-4.9847,-4.9712,-4.961,-4.9137,-4.9001,-4.9001,-4.8894,-4.8849,-4.8707,-4.85,-4.8292,-4.8179,-4.8115,-4.8066,-4.8001,-4.8001,-4.8001,-4.8001,-4.8001,-4.8001,-4.8001,-4.8001,-4.8001,-4.8001,-4.8001,-4.8001,-4.8001,-4.8001,-4.8001,-4.8001,-4.8001,-4.7769,-4.7404,-4.6924,-4.6411,-4.5682,-4.4721,-4.444,-4.4092,-4.3645,-4.3628,-4.3174,0.0,0.0,0.0,0.0,0.0,0.0,0.0,0.0,0.0,0.0,0.0,0.0,0.0,0.0,0.0,0.0,0.0,0.0,0.0,0.0,0.0,0.0,0.0,0.0,0.0,0.0,-5.3681,-5.3681,-5.4501,-5.5152,-5.5386,-5.5902,-5.6547,-5.7339,-5.7821,-5.8106,-5.8152,-5.8557,-5.8547,-5.8015,-5.7997,-5.7997,-5.7997,-5.7997,-5.8272,-5.8804,-5.8804,-5.8804,-5.8822,-5.9355,-5.8957,-5.7895,-5.7895,-5.7263,-5.6153,-5.5279,-5.4765,-5.4544,-5.3783,-5.3179,-5.2706,-5.2706,-5.2401,-5.1961,-5.1674,-5.142,-5.1217,-5.1217,-5.1217,-5.1116,-5.0625,-5.0473,-5.0371,-4.9881,-4.9746,-4.9683,-4.959,-4.9527,-4.9382,-4.9025,-4.8911,-4.8862,-4.8746,-4.8746,-4.8746,-4.8746,-4.8349,-4.8001,-4.8001,-4.8001,-4.8001,-4.8001,-4.8001,-4.8001,-4.8001,-4.8001,-4.8001,-4.8001,-4.8001,-4.8001,-4.8001,-4.8001,-4.7785,-4.7305,-4.704,-4.6344,-4.5102,-4.4821,-4.4357,-4.3645,-4.308,-4.2553,-4.2094,0.0,0.0,0.0,0.0,0.0,0.0,0.0,0.0,0.0,0.0,0.0,0.0,0.0,0.0,0.0,0.0,0.0,0.0,0.0,0.0,0.0,0.0,0.0,-5.3243,-5.3922,-5.4418,-5.4436,-5.5257,-5.611,-5.673,-5.7026,-5.7357,-5.7987,-5.817,-5.817,-5.7997,-5.8015,-5.8033,-5.7997,-5.7997,-5.7997,-5.7997,-5.7997,-5.7997,-5.7997,-5.7997,-5.7997,-5.7997,-5.7997,-5.766,-5.7116,-5.7065,-5.6668,-5.5928,-5.5189,-5.4765,-5.4482,-5.3766,-5.3501,-5.3501,-5.3501,-5.3501,-5.3399,-5.2604,-5.1877,-5.1285,-5.1285,-5.1285,-5.1285,-5.1251,-5.1251,-5.1251,-5.1217,-5.1217,-5.1153,-5.1039,-5.0859,-5.0643,-5.0409,-5.0307,-5.022,-5.022,-5.022,-5.022,-5.022,-4.9061,-4.8067,-4.8067,-4.8067,-4.8067,-4.8034,-4.8034,0.0,-4.8001,-4.8001,-4.8001,-4.8001,-4.8001,-4.8001,-4.8001,-4.8001,-4.8001,-4.8001,-4.7322,-4.6593,-4.5847,-4.5119,-4.4373,-4.3585,-4.2013,-4.1198,-4.1213,0.0,0.0,0.0,0.0,0.0,0.0,0.0,0.0,0.0,0.0,0.0,0.0,0.0,0.0,0.0,0.0,0.0,0.0,0.0,0.0,0.0,-5.3702,-5.4069,-5.4069,-5.4252,-5.4663,-5.5312,-5.6147,-5.6761,-5.6938,-5.7516,-5.7958,-5.8133,-5.864,-5.8685,-5.817,-5.8612,-5.8602,-5.8015,-5.7997,-5.7997,-5.7997,-5.7997,-5.7997,-5.7997,-5.7997,-5.7997,-5.7997,-5.7997,-5.766,-5.7065,-5.6704,-5.6075,-5.5273,-5.4551,-5.4141,-5.3929,-5.3618,-5.3501,-5.3501,-5.3501,-5.3501,-5.3467,-5.3247,-5.3044,-5.2875,-5.2875,-5.2875,-5.2773,-5.2181,-5.2012,-5.1894,-5.1369,-5.1217,-5.1153,-5.0843,-5.071,-5.0643,-5.0323,-5.0204,-5.022,-5.022,-5.022,-5.022,-5.022,-4.9889,-4.9607,-4.9607,-4.9607,-4.9425,-4.8895,-4.8812,0.0,-4.8067,-4.8001,-4.8001,-4.8001,-4.8001,-4.8001,-4.8001,-4.8001,-4.8001,-4.8001,-4.7523,-4.7062,-4.6626,-4.5629,-4.4532,-4.3251,-4.169,-4.0811,0.0,0.0,0.0,0.0,0.0,0.0,0.0,0.0,0.0,0.0,0.0,0.0,0.0,0.0,0.0,0.0,0.0,0.0,0.0,0.0,0.0,0.0,-5.4087,-5.4638,-5.5317,-5.5409,-5.5592,-5.6158,-5.6974,-5.7497,-5.7408,-5.7921,-5.8242,-5.8133,-5.8529,-5.8603,-5.8125,-5.8502,-5.8492,-5.8015,-5.7997,-5.7997,-5.7997,-5.7997,-5.7997,-5.7997,-5.7997,-5.7997,-5.7997,-5.7726,-5.7284,-5.6739,-5.6166,-5.5408,-5.4614,-5.4158,-5.3866,0.0,0.0,0.0,0.0,0.0,-5.3501,-5.3501,-5.3501,-5.3501,-5.3501,-5.3501,-5.3501,-5.3416,-5.2942,-5.2807,-5.2706,-5.2283,-5.2164,-5.2115,-5.1833,-5.1766,-5.1631,-5.1306,-5.1184,-5.1184,-5.1115,-5.1115,-5.1115,-5.1115,-5.1115,0.0,-5.1115,-5.0618,-5.0071,-4.9641,-4.9574,-4.9293,-4.8564,-4.8465,-4.8349,-4.8034,-4.8001,-4.8001,-4.8001,-4.8001,0.0,0.0,0.0,-4.7441,-4.6924,-4.5454,0.0,0.0,0.0,-4.0485,-4.0278,0.0,0.0,0.0,-3.8999,-3.9128,0.0,0.0,0.0,0.0,0.0,0.0,0.0,0.0,0.0,0.0,0.0,0.0,0.0,0.0,0.0,0.0,-5.4638,-5.5262,-5.662,-5.6969,-5.7042,-5.695,-5.7665,-5.8152,-5.7997,-5.8197,-5.826,-5.7997,-5.8088,-5.8152,-5.7997,0.0,0.0,0.0,0.0,-5.7997,-5.7997,-5.7997,-5.7997,-5.7997,-5.7997,-5.7932,-5.7886,-5.7333,-5.6809,-5.6276,-5.5676,-5.4922,-5.4158,-5.4045,-5.38,-5.3501,-5.3501,-5.3501,-5.3501,-5.3501,-5.3501,-5.3501,-5.3501,0.0,0.0,-5.3501,-5.3501,-5.3501,-5.3501,-5.3501,-5.3501,-5.3501,-5.3501,-5.3433,-5.3264,-5.3179,-5.3041,-5.2694,-5.2553,-5.257,-5.2445,-5.2373,-5.2373,-5.2373,-5.2373,-5.2373,-5.2373,-5.1313,-5.0436,-5.0353,-5.0336,-5.0071,-4.9326,-4.916,-4.8862,-4.8199,0.0,0.0,-4.8001,-4.8001,-4.8001,-4.8001,-4.7935,-4.7588,-4.6796,-4.4935,-4.3751,-4.3476,-4.156,-4.0338,-3.9768,-3.9164,-3.8856,-3.8782,-3.9017,-3.9265,0.0,0.0,0.0,0.0,0.0,0.0,0.0,0.0,0.0,0.0,0.0,0.0,0.0,0.0,0.0,-5.4363,-5.6033,-5.7189,-5.6859,-5.7941,-5.851,-5.785,-5.7951,-5.8042,-5.7997,-5.8042,-5.8042,-5.7997,-5.8042,-5.8042,-5.7997,-5.7997,-5.7997,-5.7997,-5.7997,-5.7997,-5.7997,-5.7997,-5.7997,-5.7997,0.0,0.0,-5.7284,-5.7166,-5.6809,-5.6276,-5.5676,-5.5284,-5.5104,-5.4333,-5.38,-5.3501,-5.3501,-5.3501,-5.3501,-5.3501,-5.3501,-5.3501,-5.3501,-5.3501,-5.3501,-5.3501,-5.3501,-5.3501,-5.3501,-5.3501,0.0,-5.3501,-5.3501,-5.3433,-5.3264,-5.311,-5.2903,-5.2624,-5.2499,-5.2445,-5.239,-5.2373,-5.2373,-5.2373,-5.2373,-5.2373,-5.2373,-5.2142,-5.1761,-5.1164,-5.1065,-5.0817,-5.0088,-4.9475,-4.9061,-4.8912,-4.8365,-4.8001,-4.8001,-4.8001,-4.8001,-4.8001,-4.7704,-4.7093,-4.6041,-4.5346,-4.4673,-4.408,-4.2426,-4.1313,-4.0739,-3.9787,-3.9163,-3.8782,-3.9177,-3.9337,0.0,0.0,0.0,0.0,0.0,0.0,0.0,0.0,0.0,0.0,0.0,-5.269,0.0,0.0,-5.4803,-5.6014,-5.6877,-5.7538,-5.796,-5.8364,-5.8455,-5.8052,-5.8042,-5.8088,-5.7997,-5.8042,-5.8088,-5.7997,-5.7997,-5.7997,-5.7997,-5.7997,-5.7997,-5.7997,-5.7997,-5.7997,-5.7997,-5.7997,-5.7997,-5.7997,-5.7708,-5.7382,-5.7065,-5.6528,-5.6093,-5.5848,-5.5224,-5.4878,-5.4755,-5.4093,-5.3734,-5.3501,-5.3501,-5.3501,-5.3501,-5.3501,-5.3501,-5.3501,-5.3501,-5.3501,-5.3501,-5.3501,-5.3501,-5.3501,-5.3501,-5.3501,-5.3501,-5.3501,-5.3501,-5.3501,-5.3348,-5.328,-5.3127,-5.2834,-5.2711,-5.257,-5.2445,-5.2373,-5.2373,-5.2373,-5.2373,-5.2373,-5.2373,-5.2373,-5.2258,-5.1893,-5.1827,-5.1562,-5.085,-5.0419,-4.9922,-4.9193,-4.8779,-4.8415,-4.8034,-4.8001,-4.8001,-4.8001,-4.7437,-4.7055,-4.6913,-4.5507,-4.4527,-4.4148,-4.2487,-4.122,-4.053,-4.0256,-4.0018,-3.9784,-4.0234,-4.0053,0.0,0.0,0.0,0.0,0.0,0.0,0.0,-4.8161,-4.9167,-5.076,-5.186,-5.2824,-5.4034,-5.4613,-5.55,-5.7446,-5.7501,-5.7666,-5.8822,-5.8547,-5.818,-5.8015,-5.8106,-5.8106,-5.7997,-5.8106,-5.8106,-5.7997,-5.7997,-5.7997,-5.7997,-5.7997,-5.7997,-5.7997,-5.7997,-5.7997,-5.7997,-5.7886,-5.7839,-5.7821,-5.7234,-5.6894,-5.6739,-5.583,-5.5343,-5.5164,-5.4728,-5.4367,-5.4175,-5.3832,-5.3668,-5.3501,-5.3501,-5.3501,-5.3501,-5.3501,-5.3501,-5.3501,-5.3501,-5.3501,-5.3501,-5.3501,-5.3501,-5.3501,-5.3501,-5.3501,-5.3501,-5.3501,-5.3501,-5.3467,-5.3315,-5.3213,-5.3028,-5.2587,-5.2416,-5.2277,-5.203,-5.1959,-5.1993,-5.2142,-5.2175,-5.2208,-5.2357,-5.2373,-5.2373,-5.2373,-5.2373,-5.2175,-5.1562,-5.1363,-5.0817,-4.9657,-4.9276,-4.8812,-4.8067,-4.8001,-4.8001,-4.7853,-4.7235,-4.7167,-4.7787,-4.5687,-4.4444,-4.4309,-4.277,-4.1471,-4.0436,-4.0778,-4.089,-4.0849,-4.1232,-4.0741,-4.4006,-4.4344,-4.457,-4.4682,-4.5177,-4.5962,0.0,-4.787,-4.8802,-5.0524,-5.1878,-5.2956,-5.3566,-5.5268,-5.662,-5.6895,-5.807,-5.8749,-5.8217,-5.8676,-5.8804,-5.8088,-5.7997,-5.7997,-5.7997,-5.7997,-5.7997,-5.7997,-5.7997,-5.7997,-5.7997,-5.7997,-5.7997,-5.7997,-5.7997,-5.7997,-5.7997,-5.7449,-5.7216,-5.7166,-5.6652,-5.6111,-5.5618,-5.5443,-5.5122,-5.462,-5.4512,-5.4321,-5.4045,-5.398,-5.38,-5.3501,-5.3501,-5.3501,-5.3501,-5.3501,-5.3501,-5.3501,-5.3501,-5.3501,-5.3501,-5.3501,-5.3501,-5.3501,-5.3501,-5.3501,-5.3501,-5.3501,-5.3501,-5.3348,-5.2621,-5.2186,-5.1816,-5.1112,-5.0709,-5.0521,-5.0452,-5.0469,-5.0651,-5.128,-5.1396,-5.1612,-5.2274,-5.2373,-5.2373,-5.2373,-5.2373,-5.2357,-5.2274,-5.1694,-5.1214,-5.1048,-4.9872,-4.8812,-4.8067,-4.8001,-4.7853,-4.7488,-4.7082,-4.6961,-4.703,-4.6362,-4.5802,-4.528,-4.452,-4.3365,-4.1818,-4.1691,-4.1317,-4.0849,-4.1232,-4.0995,-4.4155,-4.4384,-4.4587,-4.4587,-4.5099,-4.5798,-4.6486,-4.7533,-4.8678,-4.9871,-5.1282,-5.2678,-5.4068,-5.5389,-5.6718,0.0,-5.8382,-5.8547,-5.8694,-5.8584,-5.8382,-5.8033,-5.7997,-5.7997,-5.7997,-5.7997,-5.7997,-5.7997,-5.7997,-5.7997,-5.7997,-5.7997,-5.7997,-5.7997,-5.7997,-5.7821,-5.7498,-5.7546,-5.7284,-5.6634,-5.6384,-5.5999,-5.5402,-5.5061,-5.4728,-5.4512,-5.4512,-5.4367,-5.411,-5.4045,-5.3866,-5.3601,-5.3568,-5.3501,-5.3501,-5.3501,-5.3501,-5.3501,-5.3501,-5.3501,-5.3501,-5.3501,-5.3501,-5.3501,-5.3501,-5.3501,-5.3399,-5.2942,-5.2807,-5.2638,-5.186,-5.1477,-5.1229,-5.0777,-5.051,-5.0307,-5.0204,-5.022,-5.0303,-5.0601,-5.0651,-5.075,-5.1065,-5.1115,-5.1115,-5.1115,-5.1843,-5.2373,-5.2373,-5.2108,-5.1595,-5.075,-4.9723,-4.8812,-4.8067,-4.8001,-4.7935,-4.777,-4.7218,-4.7098,-4.7504,-4.6301,-4.5478,-4.5196,-4.4236,-4.3229,-4.2063,-4.2063,-4.1997,-4.1877,-4.2194,-4.2085,-4.4253,-4.4592,-4.4891,-4.4891,-4.5506,-4.6157,-4.6613,-4.7632,-4.8701,-4.9547,-5.1062,-5.2676,-5.4054,-5.5242,-5.6577,-5.8354,-5.811,-5.804,-5.8739,-5.8364,-5.7997,-5.7997,-5.7997,-5.7997,-5.7997,-5.7997,-5.7997,-5.7997,-5.7997,-5.7997,-5.7997,-5.7997,-5.7997,-5.7997,-5.7997,-5.7774,-5.7333,-5.7449,-5.7134,-5.6276,-5.5943,-5.556,-5.5122,-5.4665,-5.4512,-5.4512,-5.4512,-5.4367,-5.411,-5.4045,-5.3849,-5.3668,-5.3568,-5.3501,-5.3501,-5.3501,-5.3501,-5.3501,-5.3501,-5.3501,-5.3501,-5.3501,-5.3501,-5.3501,-5.3501,-5.3348,-5.3061,-5.2469,-5.2147,-5.1843,-5.1099,-5.0784,-5.0555,-5.0158,-4.9893,-4.9692,-4.9591,-4.9607,-4.9657,-4.9872,-4.9906,-4.9972,-5.0171,-5.022,-5.022,-5.022,-5.1115,-5.186,-5.2042,-5.2258,-5.1893,-5.0651,-4.9839,-4.911,-4.8365,-4.8117,-4.7935,-4.7853,-4.7354,-4.7235,-4.7654,-4.623,-4.5258,-4.4868,-4.3851,-4.2981,-4.2092,-4.2325,-4.2459,-4.2688,-4.2915,-4.2902,-4.431,-4.498,-4.5669,-4.5669,-4.6326,-4.7214,-4.8155,-4.846,-4.8873,-4.9821,-5.1621,-5.3089,-5.3162,-5.4861,-5.6474,-5.7083,-5.7134,-5.7333,-5.7969,-5.8015,-5.7997,-5.7997,-5.7997,-5.7997,0.0,-5.7997,-5.7997,-5.7997,-5.7997,-5.7997,-5.7997,-5.7997,-5.7997,-5.7997,-5.7997,-5.7997,-5.7997,-5.6861,-5.633,-5.6276,-5.5122,-5.4575,-5.4512,-5.4512,-5.4512,-5.4512,-5.4512,-5.4321,-5.3997,-5.398,-5.38,-5.3501,-5.3501,-5.3501,-5.3501,-5.3501,-5.3501,-5.3501,-5.3501,-5.3501,-5.3501,-5.3501,-5.3501,-5.3501,-5.3501,-5.2959,-5.2334,-5.2317,-5.1792,-5.1065,-5.0321,-4.988,-4.9454,-4.8718,-4.8311,-4.8067,-4.8067,-4.8067,-4.8282,-4.8995,-4.9144,-4.9375,-5.0088,-5.022,-5.022,-5.022,-5.0253,-5.0535,-5.1214,-5.1943,-5.2092,-5.133,-5.0601,-4.9889,-4.9144,-4.8415,-4.7853,-4.7404,-4.7421,-4.7286,-4.6961,-4.6301,-4.5536,-4.454,-4.3836,-4.3016,-4.2092,-4.2325,-4.2459,-4.2688,-4.2915,-4.3061,-4.5122,-4.5443,-4.5821,-4.6312,-4.7048,-4.77,-4.8116,-4.8736,-4.9299,-4.9732,-5.125,-5.2642,-5.3011,-5.4504,-5.5887,-5.6474,-5.6599,-5.6739,-5.7333,-5.7382,-5.7546,-5.795,-5.7997,0.0,0.0,0.0,0.0,-5.7997,-5.7997,-5.7997,-5.7997,-5.7997,-5.7839,-5.7449,-5.7774,-5.7704,-5.7007,-5.7442,-5.7043,-5.5794,-5.4908,-5.4512,-5.4512,-5.4512,-5.4512,-5.4512,-5.4512,-5.4448,-5.4303,-5.411,-5.3915,-5.38,-5.3568,-5.3501,-5.3501,-5.3501,-5.3501,-5.3501,-5.3501,-5.3501,-5.3501,-5.3501,-5.3501,-5.3501,-5.3501,-5.3315,-5.2892,-5.186,-5.1403,-5.093,-4.9695,-4.9186,-4.8946,-4.8614,-4.8292,-4.8115,-4.8001,-4.8001,-4.8084,-4.8315,-4.8382,-4.8465,-4.8696,-4.8746,-4.8912,-4.9409,-4.9906,-5.0303,-5.0535,-5.0783,-5.0667,-4.9922,-4.9624,-4.9177,-4.8431,-4.815,-4.7935,-4.7787,-4.737,-4.715,-4.7218,-4.5913,-4.4946,-4.454,-4.3648,-4.2835,-4.2092,-4.2175,-4.2392,-4.2688,-4.2607,-4.2769,-4.5568,-4.6092,-4.6616,-4.7073,-4.775,-4.8352,-4.8438,-4.901,-4.9547,-4.9649,-5.103,-5.2321,-5.2701,-5.4015,-5.5284,-5.5887,-5.5999,-5.6148,-5.6739,-5.6964,-5.7216,-5.7613,-5.7886,-5.7997,0.0,0.0,0.0,-5.7997,-5.7997,-5.7997,-5.7997,-5.7997,-5.7708,-5.7116,-5.7953,-5.7905,-5.6805,-5.7888,-5.7477,-5.5615,-5.5132,-5.477,-5.4512,-5.4512,-5.4512,-5.4512,-5.4512,-5.4448,-5.4367,-5.411,-5.398,-5.3849,-5.3618,-5.3501,-5.3501,-5.3501,-5.3501,-5.3501,-5.3501,-5.3501,-5.3501,-5.3501,-5.3501,-5.3501,-5.3501,-5.3298,-5.2807,-5.1572,-5.1014,-5.0541,-4.9323,-4.8894,-4.8769,-4.8564,-4.8356,-4.8163,-4.8001,-4.8001,-4.8001,-4.8001,-4.8001,-4.8001,-4.8001,-4.8001,-4.8166,-4.8647,-4.9127,-4.9607,-5.0154,-5.022,-5.0038,-4.9558,-4.9276,-4.8912,-4.8431,-4.8002,-4.7787,-4.7787,-4.7235,-4.6876,-4.6689,-4.5374,-4.4479,-4.3944,-4.314,-4.2474,-4.2092,-4.2092,-4.2242,-4.2622,-4.2474,-4.2541,-4.5788,-4.6836,-4.7919,-4.797,-4.8494,-4.9063,-4.9168,-4.935,-4.9547,-4.9649,-5.1047,-5.2218,0.0,0.0,-5.4665,-5.5284,-5.5325,-5.556,-5.6166,-5.6686,-5.7047,0.0,0.0,0.0,0.0,0.0,0.0,-5.7997,0.0,-5.7997,-5.7997,-5.7997,-5.7697,-5.712,-5.8416,-5.8555,-5.7466,-5.8178,-5.7575,-5.5667,-5.5632,-5.5219,-5.4512,-5.4512,-5.4512,-5.4512,-5.4512,-5.4367,-5.4222,-5.4045,-5.3915,-5.3717,-5.3551,-5.3501,-5.3501,-5.3501,-5.3501,-5.3501,-5.3501,-5.3501,-5.3501,-5.3501,-5.3501,-5.3501,-5.3501,-5.2976,-5.2198,-5.1437,-5.071,-4.9965,-4.9204,-4.8894,-4.8769,-4.8547,-4.8356,-4.8179,-4.8066,-4.8001,-4.8001,-4.8001,-4.8001,-4.8001,-4.8001,-4.8001,-4.8001,-4.8001,-4.8001,-4.8514,-4.9922,-5.0104,-5.0104,-5.0104,-4.9475,-4.9044,-4.9044,-4.8033,-4.7404,-4.7404,-4.7082,-4.6442,-4.5478,-4.4781,-4.4036,-4.2981,-4.2392,-4.2092,-4.2092,-4.2092,-4.216,-4.2392,-4.2392,-4.2474,-4.7056,-4.7631,-4.8054,-4.8595,-4.8866,-4.9001,-4.9063,-4.929,-4.9488,-4.953,-5.0987,-5.2218,-5.2218,-5.3477,0.0,-5.4728,-5.4728,0.0,-5.556,-5.5773,0.0,-5.6997,-5.7234,-5.7498,-5.795,-5.7997,0.0,0.0,-5.7997,-5.7997,-5.7997,-5.7546,-5.7337,-5.7352,-5.7676,-5.7836,-5.7776,-5.7985,-5.753,-5.6495,-5.5891,-5.5219,-5.4512,-5.4512,-5.4512,-5.4512,-5.4512,-5.4448,-5.4367,-5.4127,-5.398,-5.3932,-5.3618,-5.3501,-5.3501,-5.3501,-5.3501,-5.3501,-5.3501,-5.3501,-5.3501,-5.3501,-5.3501,-5.3501,-5.3501,-5.3365,-5.2926,-5.1589,-5.1065,-5.0625,-4.934,-4.894,-4.8894,-4.8769,-4.8564,-4.8356,-4.8163,-4.8049,-4.8001,-4.8001,-4.8001,-4.8001,-4.8001,-4.8001,-4.8001,-4.8001,-4.8001,-4.815,-4.8514,-4.8564,-4.8564,-4.8564,-4.8398,-4.8282,-4.8282,-4.8034,-4.7704,-4.7404,-4.7082,-4.6442,-4.5478,-4.451,-4.3756,-4.2981,-4.2392,-4.2092,-4.2092,-4.2092,-4.216,-4.2392,-4.2242,-4.2325,-4.7597,-4.8156,-4.8494,-4.89,-4.9001,-4.9001,-4.9001,-4.9246,-4.9488,-4.9488,-5.0927,-5.2218,-5.2218,-5.3477,-5.4512,0.0,0.0,0.0,-5.4957,-5.5224,-5.5658,0.0,-5.6581,-5.6861,-5.7234,-5.7234,-5.7234,0.0,-5.7726,-5.7886,-5.7613,-5.7629,-5.7424,-5.7038,-5.7925,-5.8532,-5.8807,-5.8198,-5.7529,-5.6788,-5.5995,-5.5219,-5.4512,-5.4512,-5.4512,-5.4512,0.0,-5.4448,-5.4367,-5.411,-5.3915,-5.3849,-5.3635,-5.3501,-5.3501,-5.3501,-5.3501,-5.3501,-5.3501,-5.3501,-5.3501,-5.3501,-5.3501,-5.3501,-5.3501,-5.3501,-5.3179,-5.164,-5.1217,-5.0879,-4.939,-4.9001,-4.8956,-4.8832,-4.8627,-4.842,-4.8227,-4.8115,-4.8001,-4.8001,-4.8001,-4.8001,-4.8001,-4.8001,-4.8001,-4.8001,-4.8001,-4.8001,-4.8001,-4.8001,-4.8001,-4.8001,-4.8001,-4.7935,-4.777,-4.7571,-4.737,-4.6913,-4.6598,-4.5889,-4.4812,-4.422,-4.3457,-4.2622,-4.2242,-4.2092,-4.2092,-4.2092,-4.2175,-4.2242,-4.2175,-4.2175,-4.7868,-4.8528,-4.9001,-4.9001,-4.9001,-4.9001,-4.9001,-4.9246,-4.9488,-4.9488,-5.0927,-5.2218,-5.2218,-5.3477,-5.4512,-5.4512,0.0,-5.4512,-5.4512,-5.4957,-5.5343,-5.5385,-5.5887,-5.6221,-5.6276,-5.6276,-5.6276,-5.6276,-5.7293,-5.7662,-5.7159,-5.7742,-5.7654,-5.6703,-5.8471,-5.9557,-5.9733,-5.8432,-5.7391,-5.6633,-5.5943,-5.5219,-5.4512,-5.4512,-5.4512,-5.4512,-5.4512,-5.4367,-5.4158,-5.4045,-5.3849,-5.3717,-5.3551,-5.3501,-5.3501,-5.3501,-5.3501,-5.3501,-5.3501,-5.3501,-5.3501,-5.3501,-5.3501,-5.3501,-5.3501,-5.3501,-5.3179,-5.164,-5.1217,-5.0879,-4.939,-4.9001,-4.8956,-4.8832,-4.8627,-4.842,-4.8227,-4.8115,-4.8001,-4.8001,-4.8001,-4.8001,-4.8001,-4.8001,-4.8001,-4.8001,-4.8001,-4.8001,-4.8001,-4.8001,-4.8001,-4.8001,-4.8001,-4.7853,-4.7488,-4.715,-4.6807,-4.6426,-4.5977,-4.5173,-4.3927,-4.3849,-4.3235,-4.2092,-4.2092,-4.2092,-4.2092,-4.2092,-4.2092,-4.2092,-4.2092,-4.2092,-4.8612,-4.89,-4.9001,-4.9001,-4.9001,-4.9001,-4.9001,-4.9246,-4.9488,-4.9488,-5.0927,-5.2218,-5.2218,-5.3477,-5.4512,-5.4512,-5.4512,-5.4512,-5.4512,-5.4557,-5.4834,0.0,-5.5502,-5.5716,-5.6276,-5.6276,0.0,0.0,-5.7047,-5.7459,-5.735,-5.7025,-5.7044,-5.7642,-5.8002,-5.8259,-5.8282,-5.7423,-5.6598,-5.5822,-5.5684,-5.5219,-5.4512,-5.4512,-5.4512,-5.4512,-5.4512,0.0,-5.4158,-5.4045,-5.3849,-5.3717,-5.3551,-5.3501,-5.3501,-5.3501,-5.3501,-5.3501,-5.3501,-5.3501,-5.3501,-5.3501,-5.3501,-5.3501,-5.3501,-5.3501,-5.3179,-5.164,-5.1217,-5.0879,-4.939,-4.9001,-4.8956,-4.8832,-4.8627,-4.842,-4.8227,-4.8115,-4.8001,-4.8001,-4.8001,-4.8001,-4.8001,-4.8001,-4.8001,-4.8001,-4.8001,-4.8001,-4.8001,-4.8001,-4.8001,-4.8001,-4.8001,-4.8001,-4.7919,-4.7571,-4.715,-4.6807,-4.5929,-4.4977,-4.3927,-4.3457,-4.285,-4.2092,-4.2092,-4.2092,-4.2092,-4.2092,-4.2092,-4.2092,-4.2092,-4.2092,-4.8798,-4.9001,-4.9001,-4.9001,-4.9001,-4.9001,-4.9001,-4.9246,-4.9488,-4.9488,-5.0927,-5.2218,-5.2218,-5.3477,-5.4512,-5.4512,-5.4512,-5.4512,-5.4512,-5.4512,-5.462,-5.4896,-5.4957,-5.5061,-5.5343,-5.5325,-5.5325,-5.5325,-5.5676,-5.6006,-5.6339,-5.6134,-5.642,-5.7288,-5.734,-5.734,-5.734,-5.6564,-5.5995,-5.5615,-5.5219,-5.4856,-5.4512,-5.4512,-5.4512,-5.4512,-5.4512,-5.4385,-5.411,-5.4045,-5.3866,-5.3618,-5.3501,-5.3501,-5.3501,-5.3501,-5.3501,-5.3501,-5.3501,-5.3501,-5.3501,-5.3501,-5.3501,-5.3501,-5.3501,-5.3213,-5.2638,-5.1539,-5.093,-5.0388,-4.9289,-4.9001,-4.9001,-4.8894,-4.869,-4.842,-4.8179,-4.8066,-4.8001,-4.8001,-4.8001,-4.8001,-4.8001,-4.8001,-4.8001,-4.8001,-4.8001,-4.8001,-4.8001,-4.8001,-4.8001,-4.8001,-4.8001,-4.7853,-4.7454,-4.7218,-4.6791,-4.5841,-4.5332,-4.4586,-4.3457,-4.314,-4.2688,-4.2092,-4.2092,-4.2092,-4.2092,-4.2092,-4.2092,-4.2092,-4.2092,-4.2092,-4.8849,-4.9001,-4.9001,-4.9001,-4.9001,-4.9001,-4.9001,-4.9246,-4.9462,-4.9693,-5.103,-5.2209,-5.2442,-5.3598,-5.4512,-5.4512,-5.4512,-5.4512,-5.4512,-5.4512,-5.4512,-5.4512,-5.4512,0.0,-5.4512,-5.4512,0.0,-5.4512,-5.4512,-5.4814,-5.5409,-5.5681,-5.615,-5.6788,-5.6633,-5.6546,-5.6546,-5.577,-5.5374,-5.5374,-5.4787,-5.4512,-5.4512,-5.4512,-5.4512,-5.4512,-5.4512,-5.4321,-5.398,-5.398,-5.38,-5.3501,-5.3501,-5.3602,-5.3721,-5.3568,-5.3602,-5.3721,-5.3551,-5.3501,-5.3501,-5.3501,-5.3501,-5.3501,-5.3501,-5.2942,-5.2147,-5.142,-5.0676,-4.9915,-4.9187,-4.9001,-4.9001,-4.894,-4.8673,-4.8356,-4.8066,-4.8001,-4.8001,-4.8001,-4.8001,-4.8001,-4.8001,-4.8001,-4.8001,-4.8001,-4.8001,-4.8001,-4.8001,-4.8001,-4.8001,-4.8001,-4.8001,-4.7787,-4.7167,-4.703,-4.6356,-4.511,-4.4812,-4.4128,-4.3061,-4.2835,-4.2622,-4.2092,-4.2092,-4.2092,-4.2092,-4.2092,-4.2092,-4.2092,-4.2092,-4.2092,-4.8984,-4.9001,-4.9001,-4.9001,-4.9001,-4.9001,-4.9001,-4.9124,-4.9477,-5.0342,-5.1329,-5.2259,-5.3166,-5.396,-5.4512,-5.4512,-5.4512,-5.4512,-5.4512,-5.4512,-5.4512,-5.4512,0.0,0.0,-5.4512,-5.4512,-5.4512,-5.4512,-5.4512,-5.4805,-5.5524,-5.6253,-5.6719,-5.6805,-5.6098,-5.5719,-5.5719,-5.4977,-5.4615,-5.4615,-5.4546,-5.4512,-5.4512,-5.4512,-5.4512,-5.4512,-5.4512,-5.4321,0.0,-5.398,-5.38,-5.3501,-5.3501,-5.3907,-5.4414,-5.3754,-5.3923,-5.4397,-5.3737,-5.3501,-5.3501,-5.3501,-5.3501,-5.3501,-5.3501,-5.2942,-5.2147,-5.142,-5.0676,-4.9915,-4.9187,-4.9001,-4.894,-4.861,-4.8356,-4.8179,-4.8001,-4.8001,-4.8001,-4.8001,-4.8001,-4.8001,-4.8001,-4.8001,-4.8001,-4.8001,-4.8001,-4.8001,-4.8001,-4.8001,-4.8001,-4.8001,-4.8001,-4.8001,-4.7935,-4.7302,-4.6582,-4.5913,-4.4662,-4.3693,-4.2996,-4.2459,-4.2175,-4.2092,-4.2092,-4.2092,-4.2092,-4.2092,-4.2092,-4.2092,-4.2092,-4.2092,-4.9001,-4.9001,-4.9001,-4.9001,-4.9001,-4.912,-4.956,-4.9803,-5.0192,-5.1049,-5.2004,-5.2808,-5.3339,-5.4011,-5.4512,-5.4512,-5.4512,0.0,-5.4512,-5.4512,-5.4512,-5.4512,-5.4512,0.0,0.0,0.0,-5.4512,-5.4512,-5.4512,-5.4632,-5.4925,-5.5253,-5.5426,-5.5426,-5.5115,-5.496,-5.496,-5.4667,-5.4512,-5.4512,-5.4512,-5.4512,-5.4512,-5.4512,-5.4512,-5.4529,-5.4977,-5.5056,0.0,-5.5226,-5.5213,-5.4975,-5.4398,-5.4329,-5.4499,-5.3771,-5.3687,-5.3907,-5.3602,-5.3501,-5.3501,-5.3501,-5.3501,-5.3501,-5.3501,-5.2638,-5.1589,-5.1302,-5.0355,-4.9373,-4.9086,-4.8956,-4.8832,-4.8547,-4.8356,-4.8163,-4.8001,-4.8001,-4.8001,-4.8001,-4.8001,-4.8001,-4.8001,-4.8001,-4.7852,-4.7404,-4.7338,-4.7173,-4.6725,-4.7057,-4.7338,-4.7338,-4.7736,-4.7787,-4.737,-4.6722,-4.5913,-4.4812,-4.3912,-4.3076,-4.2459,-4.2242,-4.2092,-4.2092,-4.2092,-4.2092,-4.2092,-4.2092,-4.2092,-4.2092,-4.2092,-4.2092,-4.9001,-4.9001,-4.9052,-4.9272,-4.9323,-4.9526,-5.0253,-5.0503,-5.0912,-5.1787,-5.254,-5.3175,-5.3542,-5.4086,-5.4512,-5.4512,0.0,-5.4512,-5.4512,-5.4512,-5.4512,-5.4512,0.0,-5.4512,0.0,-5.4512,-5.4512,-5.4512,-5.4512,-5.4512,-5.4512,-5.4512,-5.4512,-5.4512,-5.4512,-5.4512,-5.4512,-5.4512,-5.4512,-5.4512,-5.4512,-5.4512,-5.4512,-5.4512,-5.4632,-5.4856,-5.5391,-5.5641,0.0,-5.6081,-5.5962,-5.5587,-5.4855,-5.4583,-5.4499,-5.3771,-5.3653,-5.3788,-5.3585,-5.3501,-5.3501,-5.3501,-5.3501,-5.3467,-5.323,-5.2249,-5.1166,-5.0947,-4.9982,-4.9001,-4.9001,-4.8894,-4.8769,-4.8564,-4.8356,-4.8163,-4.8001,-4.8001,-4.8001,-4.8001,-4.8001,-4.8001,-4.8001,-4.7819,-4.7504,-4.6974,-4.6709,-4.6378,-4.5864,-4.6245,-4.6513,-4.6304,-4.6765,-4.6979,-4.6828,-4.6056,-4.502,-4.3897,-4.3299,-4.2769,-4.2092,-4.2092,-4.2092,-4.2092,-4.2092,-4.2092,-4.2092,-4.2092,-4.2092,-4.2092,-4.2092,-4.199,-4.9001,-4.9001,-4.9187,-4.9898,-5.0084,-5.027,-5.1031,-5.12,-5.1485,-5.2377,-5.2759,-5.3173,-5.4021,-5.4367,-5.4512,-5.4512,-5.4512,0.0,-5.4512,-5.4512,-5.4512,0.0,0.0,-5.4512,-5.4512,-5.4512,-5.4512,-5.4512,-5.4512,0.0,-5.4512,-5.4512,-5.4512,-5.4512,-5.4512,-5.4512,-5.4512,-5.4512,-5.4512,-5.4512,-5.4512,-5.4512,-5.4512,-5.4512,-5.4908,-5.5598,-5.5615,-5.5916,0.0,-5.6286,-5.5656,-5.489,-5.4669,-5.4583,-5.4499,-5.3771,-5.3957,-5.4482,-5.3754,-5.3501,-5.3501,-5.3501,-5.3501,-5.3348,-5.2553,-5.1792,-5.1065,-5.0321,-4.956,-4.9001,-4.9001,-4.8894,-4.8769,-4.8564,-4.8356,-4.8163,-4.8001,-4.8001,-4.8001,-4.8001,-4.8001,-4.8001,-4.8001,-4.7388,-4.6908,-4.6891,-4.6278,-4.5798,-4.5798,-4.5798,-4.5546,-4.4886,-4.4837,-4.5322,-4.6405,-4.5269,-4.4236,-4.3524,-4.319,-4.2769,-4.2092,-4.2092,-4.2092,-4.2092,-4.2092,-4.2092,-4.2092,-4.2092,-4.2092,-4.2092,-4.2092,-4.1744,-4.9468,-4.9746,-4.9932,-5.0676,-5.0862,-5.1048,-5.1792,-5.1961,-5.2247,-5.3141,-5.3491,-5.3772,-5.4124,-5.4367,-5.4512,-5.4512,-5.4512,0.0,0.0,0.0,0.0,-5.4512,-5.4512,-5.4512,0.0,0.0,-5.4512,-5.4512,-5.4512,-5.4512,-5.4512,-5.4512,-5.4512,-5.4512,-5.4512,-5.4512,-5.4512,-5.4512,-5.4512,-5.4512,-5.4512,-5.4512,-5.4529,-5.5029,-5.5391,-5.5667,-5.6719,-5.6963,0.0,-5.6936,-5.6491,-5.569,-5.4924,-5.4583,-5.4499,-5.3771,-5.3653,-5.3805,-5.3585,-5.3501,-5.3501,-5.3501,-5.3129,-5.2536,-5.1792,-5.1403,-5.0947,-4.9695,-4.9187,-4.9001,-4.8894,-4.8753,-4.8547,-4.8356,-4.8179,-4.8066,-4.8001,-4.8001,-4.8001,-4.8001,-4.8001,-4.7835,-4.7338,-4.7057,-4.656,-4.5533,-4.5185,-4.4714,-4.3709,-4.4021,-4.4107,-4.3355,-4.3003,-4.3176,-4.4125,-4.3283,-4.25,-4.2106,-4.141,-4.0938,-4.0728,-4.0728,-4.0728,-4.0728,-4.0728,-4.0728,-4.0728,-4.0728,-4.0728,-4.0728,-4.0728,-4.0612,-4.8929,-4.9674,-5.0272,-5.101,-5.1195,-5.1396,-5.2152,-5.2303,-5.2454,-5.3044,-5.3634,-5.4045,-5.411,-5.4303,-5.4512,-5.4512,-5.4512,-5.4512,0.0,0.0,0.0,-5.4512,0.0,0.0,0.0,-5.4512,-5.4512,-5.4512,-5.4512,-5.4512,-5.4512,-5.4512,-5.4512,-5.4512,-5.4512,-5.4512,-5.4512,-5.4512,-5.4512,-5.4512,-5.4512,-5.4667,-5.4943,-5.5408,-5.5788,-5.6115,-5.6997,-5.7086,0.0,-5.6833,-5.644,-5.5639,-5.4907,-5.4431,-5.4126,-5.367,-5.3501,-5.3501,-5.3501,-5.3501,-5.345,-5.3145,-5.2334,-5.1386,-5.093,-5.0591,-5.0185,-4.9272,-4.9001,-4.9001,-4.8894,-4.869,-4.8483,-4.8356,-4.8179,-4.7918,-4.7653,-4.7587,-4.7504,-4.7222,-4.7173,-4.7023,-4.656,-4.6245,-4.5748,-4.4821,-4.4257,-4.3588,-4.2696,-4.2783,-4.2571,-4.1888,-4.1573,-4.1408,-4.1551,-4.1353,-4.1128,-4.0897,-4.0417,-4.0104,-4.0104,-4.0104,-4.0104,-4.0104,-4.0104,-4.0104,-4.0104,-4.0104,-4.0104,-4.0104,-4.0104,-3.9973,0.0,-4.8866,-5.0182,-5.0892,-5.1074,-5.1326,-5.2054,-5.2219,0.0,-5.2219,-5.3076,-5.3832,-5.3832,-5.4093,-5.4367,-5.4367,-5.4367,-5.4367,-5.4431,-5.4448,0.0,0.0,-5.4512,0.0,-5.4512,-5.4512,-5.4512,-5.4512,-5.4512,-5.4512,-5.4512,-5.4512,-5.4512,-5.4512,-5.4512,-5.4512,-5.4512,-5.4512,-5.4512,-5.4512,-5.4563,-5.496,-5.5615,-5.5667,-5.6098,0.0,-5.6572,0.0,0.0,-5.6013,-5.5451,-5.4788,-5.4584,-5.4093,-5.3501,-5.3501,-5.3501,-5.3501,-5.3501,-5.3467,-5.3281,-5.2418,-5.1217,-5.0084,-5.0033,-4.9543,-4.9001,-4.9001,-4.9001,-4.9001,-4.9001,-4.8736,-4.8467,-4.8416,-4.8161,-4.7719,-4.6974,-4.6825,-4.6609,-4.5914,-4.5798,-4.5765,-4.5715,-4.5135,-4.461,-4.4544,-4.3382,-4.2506,-4.2459,-4.1852,-4.1127,-4.0478,-4.0339,-3.999,-3.909,-3.966,-3.9958,-3.9973,-3.9958,-3.9958,-3.9958,-3.9958,-3.9958,-3.9958,-3.9958,-3.9958,-3.9958,-3.9958,-3.9958,-3.9958,-3.9958,-3.9654,-4.7573,0.0,-5.0107,-5.0929,-5.1108,-5.1157,0.0,-5.1369,-5.1369,-5.1369,-5.1776,-5.2191,-5.2191,-5.2474,-5.2769,-5.2769,-5.2769,-5.2924,-5.3583,-5.4158,0.0,-5.4512,-5.4512,-5.4512,-5.4512,-5.4512,-5.4512,-5.4512,-5.4512,-5.4512,-5.4512,-5.4512,-5.4512,-5.4512,-5.4512,-5.4512,-5.4512,-5.4512,-5.4512,-5.4512,-5.5081,-5.5443,-5.5632,-5.6253,-5.655,-5.6589,-5.6505,0.0,-5.5414,-5.5247,-5.4669,-5.3989,-5.3822,-5.3653,-5.3501,-5.3501,-5.3501,-5.3501,-5.3501,-5.3095,-5.2367,-5.1048,-5.0371,-4.9982,-4.9424,-4.9137,-4.9001,-4.9001,-4.9001,-4.8956,-4.8894,-4.869,-4.8349,-4.7688,-4.7364,-4.6957,-4.6212,-4.6046,-4.5997,-4.5814,-4.5798,-4.5616,-4.5052,-4.4417,-4.373,-4.3176,-4.235,-4.1591,-4.1075,-4.0737,-4.02,-3.9523,-3.9162,-3.887,-3.8664,-3.8928,-3.9015,-3.8894,-3.8728,-3.8652,-3.8652,-3.8652,-3.8652,-3.8652,-3.8652,-3.8652,-3.8652,-3.8652,-3.8652,-3.8652,-3.8652,-3.8565,-4.7989,-4.8969,-4.9965,-5.0442,-5.0554,-5.0554,-5.0554,-5.0554,-5.0554,-5.0554,-5.1112,-5.1598,-5.1598,-5.1905,-5.2191,-5.2191,-5.2191,-5.2333,0.0,0.0,-5.4028,-5.4028,-5.4303,-5.4512,0.0,-5.4512,-5.4512,-5.4512,-5.4512,-5.4512,-5.4512,-5.4512,-5.4512,-5.4512,-5.4512,-5.4512,-5.4512,-5.4512,-5.4684,-5.5029,-5.5426,-5.5805,-5.6167,-5.6598,-5.6532,-5.6105,0.0,0.0,-5.4578,-5.4346,-5.3991,-5.3601,-5.3501,-5.3501,-5.3501,-5.3501,-5.3501,-5.345,-5.3078,-5.2215,-5.115,-5.0355,-4.9864,-4.9509,-4.912,-4.9001,-4.9001,-4.9001,-4.9001,-4.9001,-4.8894,-4.8438,-4.7897,-4.7387,-4.6832,-4.6179,-4.5433,-4.5284,-4.5185,-4.487,-4.4787,-4.4549,-4.3875,-4.3421,-4.2959,-4.219,-4.1459,-4.094,-4.0547,-4.0076,-3.9666,-3.9177,-3.8885,-3.8664,-3.8516,-3.859,-3.8575,-3.8366,-3.8277,-3.8202,-3.8202,-3.8202,-3.8202,-3.8202,-3.8202,-3.8202,-3.8202,-3.8202,-3.8202,-3.8202,-3.8202,-3.8202,-4.8466,-4.9163,-4.971,-4.971,-4.971,-4.971,-4.971,-4.9804,-4.9851,-4.9741,-5.0602,-5.1359,-5.1245,-5.1614,-5.1832,-5.1832,-5.1977,0.0,-5.2065,-5.2717,-5.323,-5.323,-5.3798,0.0,-5.4141,-5.4286,-5.4303,-5.4303,-5.4448,-5.4512,-5.4512,-5.4512,-5.4563,-5.4667,-5.4684,-5.4736,-5.4856,-5.4736,-5.5046,-5.5788,-5.5788,-5.615,-5.6805,-5.6667,-5.6253,-5.5468,0.0,0.0,-5.3932,-5.3618,-5.3501,-5.3501,-5.3501,-5.3501,-5.3501,-5.3501,-5.3416,-5.3196,-5.2283,-5.115,-5.0067,-4.9965,-4.9509,-4.9001,-4.9001,-4.9001,-4.9001,-4.9001,-4.9001,-4.9001,-4.894,-4.8214,-4.7378,-4.7199,-4.6412,-4.5417,-4.4688,-4.4522,-4.4357,-4.3744,-4.3628,-4.3372,-4.271,-4.2522,-4.219,-4.1459,-4.0737,-4.0355,-4.0355,-3.9737,-3.9265,-3.9104,-3.9031,-3.8797,-3.8516,-3.8441,-3.8366,-3.8202,-3.8202,-3.8202,-3.8202,-3.8202,-3.8202,-3.8202,-3.8202,-3.8202,-3.8202,-3.8202,-3.8202,-3.8202,-3.8202,-3.8202,-4.8589,-4.8687,-4.8769,-4.8769,-4.8769,-4.8769,-4.8769,-4.9316,-4.9594,-4.8893,-4.9712,-5.0338,-4.9756,-4.9963,-5.0276,-5.0276,-5.08,-5.1252,0.0,0.0,-5.2404,-5.2404,0.0,-5.2544,-5.2544,-5.3146,-5.36,-5.36,-5.4158,-5.4512,-5.4512,-5.4512,-5.4805,-5.5426,-5.5443,-5.577,-5.6443,-5.5788,-5.5839,-5.6615,-5.6615,-5.6684,-5.6788,-5.6098,-5.5524,-5.5123,0.0,-5.4034,-5.3551,-5.3668,-5.3601,-5.3501,-5.3501,-5.3501,-5.3501,-5.3501,-5.3078,-5.2283,-5.0913,-5.0287,-4.9982,-4.9373,-4.9086,-4.9001,-4.9001,-4.9001,-4.9001,-4.9001,-4.9001,-4.894,-4.8832,-4.809,-4.7182,-4.6441,-4.5602,-4.4655,-4.3943,-4.3794,-4.3761,-4.3645,-4.3628,-4.3372,-4.271,-4.2061,-4.1459,-4.0737,-4.0005,-3.9553,-3.9553,-3.9162,-3.887,-3.887,-3.8575,-3.8277,-3.8277,-3.8277,-3.8202,-3.8202,-3.8202,-3.8202,-3.8202,-3.8202,-3.8202,-3.8202,-3.8202,-3.8202,-3.8202,-3.8202,-3.8202,-3.8202,-3.8202,-3.8202,-4.862,-4.862,-4.862,-4.862,-4.862,-4.8712,-4.9097,-4.9451,-4.9589,-4.9251,-4.9755,-5.0086,-4.94,-4.9597,-4.9916,-4.9916,0.0,-5.0448,-5.0448,-5.1086,-5.159,0.0,0.0,-5.2191,-5.2191,-5.2561,-5.2941,-5.3382,-5.3732,-5.4093,-5.4512,-5.4891,-5.527,-5.5598,-5.6029,-5.6633,-5.7391,-5.6633,-5.6443,-5.6805,-5.6805,-5.6581,-5.615,-5.5788,-5.5262,-5.459,0.0,-5.3915,-5.3601,-5.3618,-5.3551,-5.3501,-5.3501,-5.3501,-5.345,-5.301,-5.2114,-5.0997,-5.0338,-4.983,-4.9458,-4.912,-4.9001,-4.9001,-4.9001,-4.9001,-4.9001,-4.9001,-4.9001,-4.8855,-4.8326,-4.7485,-4.6564,-4.5707,-4.4776,-4.4026,-4.3694,-4.3628,-4.3492,-4.3113,-4.3035,-4.271,-4.1656,-4.1194,-4.0737,-4.0005,-3.961,-3.9424,-3.9424,-3.9104,-3.8943,-3.8782,-3.8575,-3.8277,-3.8202,-3.8202,-3.8202,-3.8202,-3.8202,-3.8202,-3.8202,-3.8202,-3.8202,-3.8202,-3.8202,-3.8202,-3.8202,-3.8202,-3.8202,-3.8202,-3.8202,-3.8202,-4.862,-4.862,-4.862,-4.862,-4.8743,-4.9004,-4.9558,-4.9805,-4.9882,-4.9712,-4.9987,-5.0019,-4.94,-4.9597,-4.9916,-4.9916,-4.9916,-4.9916,-4.9916,-5.0448,-5.0816,-5.0816,-5.1294,-5.1631,-5.1631,-5.1849,-5.2224,-5.2819,-5.3179,-5.3734,-5.448,-5.5176,-5.5788,-5.615,-5.6736,-5.7409,-5.815,-5.7426,-5.7064,-5.7047,-5.6684,-5.6202,-5.5551,-5.5378,-5.4836,-5.4093,-5.4045,-5.3849,-5.3651,-5.3551,-5.3501,-5.3501,-5.3501,-5.3382,-5.3112,-5.2131,-5.1065,-5.0067,-4.9898,-4.9475,-4.9001,-4.9001,-4.9001,-4.9001,-4.9001,-4.9001,-4.8968,-4.8798,-4.8608,-4.8349,-4.7591,-4.6569,-4.5613,-4.4898,-4.4021,-4.3432,-4.3568,-4.3492,-4.3235,-4.271,-4.2443,-4.1917,-4.0684,-4.0478,-4.0285,-3.9481,-3.9424,-3.9352,-3.9337,-3.9177,-3.8943,-3.8723,-3.8575,-3.8366,-3.8202,-3.8202,-3.8202,-3.8202,-3.8202,-3.8202,-3.8202,-3.8202,-3.8202,-3.8202,-3.8202,-3.8202,-3.8202,-3.8202,-3.8202,-3.8202,-3.8202,-3.8202,-4.862,-4.862,-4.862,-4.862,-4.9112,-4.962,-4.9682,-5.0174,-5.0436,-4.982,-4.985,-4.9885,-4.9415,-4.9597,-4.9916,-4.9916,-4.9916,-4.9916,-4.9916,0.0,-4.9995,-4.9995,-5.0058,-5.0058,-5.0058,-5.0739,-5.1177,-5.1252,-5.2611,-5.3754,-5.4432,-5.5221,-5.6271,-5.7702,-5.7788,-5.8185,-5.8926,-5.8202,-5.7823,-5.7805,-5.6374,-5.5619,-5.5372,-5.4651,-5.408,-5.3783,-5.3915,-5.3817,-5.3501,-5.3668,-5.3601,-5.3501,-5.3501,-5.3044,-5.2215,-5.0777,-5.0185,-4.9999,-4.9323,-4.9035,-4.9001,-4.9001,-4.9001,-4.9001,-4.9001,-4.9001,-4.8866,-4.8189,-4.7508,-4.6938,-4.6568,-4.537,-4.4161,-4.3862,-4.3246,-4.2834,-4.3492,-4.3096,-4.2648,-4.2585,-4.2045,-4.1327,-4.0615,-4.0478,-4.0285,-3.9481,-3.9424,-3.9337,-3.9177,-3.8943,-3.8723,-3.8516,-3.8366,-3.8202,-3.8202,-3.8202,-3.8202,-3.8202,-3.8202,-3.8202,-3.8202,-3.8202,-3.8202,-3.8202,-3.8202,-3.8202,-3.8202,-3.8202,-3.8202,-3.8202,-3.8202,-3.8202,-4.862,-4.862,-4.8727,-4.9174,-4.9805,-5.0205,-4.9789,-5.0205,-5.0497,-4.982,-4.985,-4.9869,-4.9562,0.0,-4.9757,-4.9836,-4.9916,-4.9916,-4.9916,-4.9916,-4.9916,-4.9916,-4.9916,-4.9916,-4.9916,-5.0152,-5.0762,-5.1641,-5.2244,-5.3129,-5.4295,-5.5598,-5.6576,-5.7155,-5.805,-5.8512,-5.8323,-5.7447,-5.6778,-5.6314,-5.573,-5.5132,-5.4538,-5.4182,-5.3915,-5.37,-5.3783,-5.3668,-5.3501,-5.3551,-5.3263,-5.2706,-5.2266,-5.1606,-5.0862,-5.0304,-4.9796,-4.9373,-4.9103,-4.9001,-4.9001,-4.9001,-4.9001,-4.9001,-4.9001,-4.8697,-4.8196,-4.7508,-4.635,-4.5309,-4.5058,-4.4251,-4.3267,-4.2476,-4.2446,-4.2506,-4.2317,-4.2443,-4.2317,-4.1459,-4.1075,-4.0668,-3.995,-3.9824,-3.9753,-3.9409,-3.9265,-3.9177,-3.9104,-3.8811,-3.859,-3.8516,-3.8277,-3.8202,-3.8202,-3.8202,-3.8202,-3.8202,-3.8202,-3.8202,-3.8202,-3.8202,-3.8202,-3.8202,-3.8202,-3.8202,-3.8202,-3.8202,-3.8202,-3.8202,-3.8202,-3.8202,-4.862,-4.862,-4.8789,-4.9512,0.0,-5.0513,-4.9835,-5.0205,-5.0497,-4.982,-4.9749,-4.9688,-4.9465,-4.9517,0.0,0.0,-4.9852,-4.9836,-4.9916,-4.9916,-4.9916,-4.9916,-4.9916,-4.9916,-4.9916,-5.0121,-5.0676,-5.1658,-5.2195,-5.3018,-5.424,-5.5579,-5.6511,-5.707,-5.7856,-5.8136,-5.7859,-5.6727,-5.5838,-5.5275,-5.4952,-5.4493,-5.3915,-5.3915,-5.3783,-5.3651,-5.3396,-5.3228,-5.3112,-5.2875,-5.2452,-5.1894,-5.115,-5.0541,-5.005,-4.983,-4.9424,-4.9001,-4.9001,-4.9001,-4.9001,-4.9001,-4.8849,-4.8602,-4.8382,-4.7799,-4.7038,-4.6116,-4.4945,-4.3732,-4.3234,-4.2717,-4.2145,-4.137,-4.1591,-4.1852,-4.1591,-4.1722,-4.1656,-4.0684,-4.0285,-4.0021,-3.9481,-3.9424,-3.9424,-3.9424,-3.9265,-3.9177,-3.9017,-3.8723,-3.859,-3.8441,-3.8277,-3.8202,-3.8202,-3.8202,-3.8202,-3.8202,-3.8202,-3.8202,-3.8202,-3.8202,-3.8202,-3.8202,-3.8202,-3.8202,-3.8202,-3.8202,-3.8202,-3.8202,-3.8202,-3.8202,-4.862,-4.862,-4.8789,-4.9512,-5.0205,-5.0528,-4.9851,-5.0205,-5.0497,-4.982,-4.9445,-4.921,-4.9078,-4.9306,0.0,-4.9597,-4.9597,-4.9677,-4.9852,-4.9931,-4.9916,-4.9916,-4.9931,-4.9931,-4.9931,-5.0563,-5.099,-5.099,-5.2412,-5.3485,-5.426,-5.5012,-5.6088,-5.769,-5.7103,-5.7032,-5.7672,-5.6162,-5.5191,-5.4839,-5.4057,-5.3683,-5.37,-5.37,-5.3584,-5.3433,-5.2638,-5.2283,-5.2232,-5.1505,-5.12,-5.1133,-5.0371,-5.0084,-4.9999,-4.9272,-4.9001,-4.9001,-4.9001,-4.9001,-4.9001,-4.9001,-4.8511,-4.7781,-4.7078,-4.6358,-4.552,-4.4072,-4.3233,-4.2426,-4.1315,-4.0842,-4.0622,-4.0531,-4.0478,-4.0684,-4.1327,-4.094,-4.0478,-4.0478,-3.9879,-3.9424,-3.9424,-3.9424,-3.9424,-3.9424,-3.9424,-3.9265,-3.887,-3.8782,-3.8634,-3.8277,-3.8202,-3.8202,-3.8202,-3.8202,-3.8202,-3.8202,-3.8202,-3.8202,-3.8202,-3.8202,-3.8202,-3.8202,-3.8202,-3.8202,-3.8202,-3.8202,-3.8202,-3.8202,-3.8202,-3.8202,-4.862,-4.862,-4.8897,-5.0097,-5.0543,-5.0651,0.0,-5.0559,0.0,0.0,-4.8841,-4.8883,-4.8996,-4.9078,0.0,-4.9356,-4.9356,-4.9437,-4.9437,-4.9597,-4.9677,-4.9677,-5.0117,-5.0401,-5.0401,-5.0865,-5.1476,-5.2146,-5.245,-5.3112,-5.4146,-5.4777,-5.5084,-5.5123,-5.5979,-5.6048,-5.5072,-5.4499,-5.3851,-5.3275,-5.238,-5.2213,-5.2704,-5.2704,-5.2433,-5.1877,-5.164,-5.1539,-5.1488,-5.0727,-5.0422,-5.0355,-4.961,-4.9323,-4.9306,-4.9086,-4.9001,-4.9001,-4.9001,-4.9001,-4.8855,-4.783,-4.7387,-4.6978,-4.5749,-4.4901,-4.4154,-4.3231,-4.2287,-4.1341,-4.0501,-4.0021,-3.9809,-3.9753,-4.0146,-4.0409,-4.0076,-4.027,-4.0355,-3.9824,-3.9553,-3.9424,-3.9424,-3.9424,-3.9337,-3.9192,-3.9104,-3.887,-3.8427,-3.8352,-3.8352,-3.8202,-3.8202,-3.8202,-3.8202,-3.8202,-3.8202,-3.8202,-3.8202,-3.8202,-3.8202,-3.8202,-3.8202,-3.8202,-3.8202,-3.8202,-3.8202,-3.8202,-3.8202,-3.8202,-3.8202,-3.8202,-4.8204,-4.862,-4.9297,-5.042,-5.0897,-5.1021,-5.0759,-5.0266,-4.962,0.0,-4.8918,-4.9202,-4.9233,-4.9548,0.0,-4.9952,-4.9719,-4.9614,-4.9681,-4.9528,-4.9546,-4.9812,-5.0203,-5.0579,-5.0845,-5.1418,-5.2012,-5.252,-5.2731,-5.3146,-5.3813,-5.421,-5.4055,-5.3455,-5.4382,-5.4261,-5.2934,-5.2892,-5.253,-5.2024,-5.1502,-5.1285,-5.1437,-5.1742,-5.164,-5.12,-5.0896,-5.0608,-5.0304,-4.9847,-4.9661,-4.961,-4.9171,-4.9001,-4.9001,-4.9001,-4.9001,-4.8889,-4.8382,-4.8157,-4.796,-4.6546,-4.5861,-4.5405,-4.4333,-4.3443,-4.2685,-4.2039,-4.1283,-4.0631,-4.0137,-3.9783,-3.9481,-3.9409,-3.9753,-3.995,-3.9481,-3.9753,-3.995,-3.9481,-3.9424,-3.9424,-3.9424,-3.9424,-3.9337,-3.9265,-3.8943,-3.862,-3.8002,-3.7914,-3.7839,-3.7839,-3.7839,-3.7941,-3.8188,-3.8202,-3.8202,-3.8202,-3.8202,-3.8202,-3.8202,-3.8202,-3.8202,-3.8202,-3.8202,-3.8202,-3.8202,-3.8202,-3.8202,-3.8202,-3.8202,-3.8202,-4.7681,-4.8666,-4.9851,-5.0528,-5.1159,-5.1451,-5.0836,-4.9666,-4.8712,-4.8712,0.0,-4.995,-4.9843,-5.0453,-5.094,-5.094,-5.0429,-5.0096,-5.0315,-4.9852,-4.9696,-5.032,-5.0445,-5.0726,-5.1265,-5.1997,-5.2417,-5.2504,-5.305,-5.3377,-5.3377,-5.3268,-5.2894,-5.2412,-5.2317,-5.1917,-5.1154,-5.1242,-5.118,-5.097,-5.0984,-5.0659,-5.0016,-5.0777,-5.1082,-5.098,-5.0287,-4.961,-4.9001,-4.9001,-4.9001,-4.9001,-4.9001,-4.9001,-4.9001,-4.8923,-4.8889,-4.8596,-4.7248,-4.6822,-4.6593,-4.5098,-4.4221,-4.3541,-4.2706,-4.198,-4.1276,-4.0646,-4.0401,-4.0207,-4.0081,-3.9854,-3.9625,-3.9409,-3.9424,-3.9424,-3.9424,-3.9424,-3.9424,-3.9424,-3.9424,-3.9424,-3.9424,-3.9424,-3.9424,-3.9337,-3.8972,-3.8429,-3.7652,-3.739,-3.7244,-3.7302,-3.7302,-3.7549,-3.8144,-3.8202,-3.8202,-3.8202,-3.8202,-3.8202,-3.8202,-3.8202,-3.8202,-3.8202,-3.8202,-3.8202,-3.8202,-3.8202,-3.8202,-3.8202,-3.8202,-3.8127,-4.8018,-4.8951,-4.9851,-5.0528,-5.0805,-5.0867,-5.0728,-5.0051,-4.9451,-4.9451,-4.9658,-4.9936,-5.0389,-5.0605,-5.0768,-5.0768,-5.066,-5.0552,-5.0638,-5.06,-5.0723,-5.0862,-5.1273,-5.1661,-5.18,-5.2363,-5.2676,-5.2942,-5.2889,-5.3055,-5.3377,-5.2175,-5.1196,-5.0606,-5.0152,-4.9528,-4.8615,-4.9217,-4.951,0.0,-4.9476,-4.939,-4.9255,-4.9999,-5.0016,-4.9458,-4.9306,-4.9154,-4.9001,-4.9001,-4.9001,-4.9001,-4.9001,-4.9001,-4.894,-4.837,-4.7794,-4.7231,-4.634,-4.606,-4.5722,-4.3764,-4.3427,-4.338,-4.1549,-4.0839,-4.0715,-4.0524,-4.0261,-4.0066,-4.0011,-3.9711,-3.9409,-3.9424,-3.9424,-3.9424,-3.9424,-3.9424,-3.9424,-3.9424,-3.9424,-3.9424,-3.9424,-3.9424,-3.9265,-3.8943,-3.8165,-3.7521,-3.739,-3.6852,-3.6722,-3.7244,-3.7302,-3.7549,-3.8144,-3.8202,-3.8202,-3.8202,-3.8202,-3.8202,-3.8202,-3.8202,-3.8202,-3.8202,-3.8202,-3.8202,-3.8202,-3.8202,-3.8202,-3.8202,-3.8202,-3.781,-4.7494,-4.8561,0.0,-5.0928,0.0,-5.1097,-5.0774,-5.042,-5.0174,-5.0174,-5.042,-5.0759,-5.1113,-5.1436,-5.1667,-5.1667,-5.139,-5.1174,-5.1174,-5.0984,-5.0993,-5.1302,-5.1657,-5.1997,-5.2321,-5.2587,-5.2713,-5.2893,-5.2803,-5.251,-5.211,-5.1311,-5.0067,-4.8383,-4.8404,-4.7981,-4.6771,-4.754,-4.7929,-4.798,-4.8279,-4.8656,-4.9018,-4.9407,-4.9357,-4.9001,-4.9001,-4.9001,-4.9001,-4.9001,-4.9001,-4.9001,-4.9001,-4.8579,-4.7931,-4.7564,-4.6779,-4.5717,-4.4653,-4.4299,-4.3994,-4.2264,-4.1893,-4.1948,-4.0823,-4.0524,-4.0455,-4.0401,-4.0207,-3.9996,-3.9854,-3.964,-3.9424,-3.9424,-3.9424,-3.9424,-3.9424,-3.9424,-3.9424,-3.9424,-3.9424,-3.9424,-3.9424,-3.9337,-3.9,-3.8311,-3.7784,-3.7215,-3.646,-3.6069,-3.5981,-3.633,-3.6649,-3.7085,-3.7723,-3.8028,-3.8202,-3.8202,-3.8202,-3.8202,-3.8202,-3.8202,-3.8202,-3.8202,-3.8202,-3.8202,-3.8202,-3.8202,-3.8202,-3.8188,-3.7494,-3.6959,-4.6879,-4.8301,-4.9855,-5.1287,-5.1698,0.0,-5.099,-5.0867,-5.0867,-5.0867,-5.1313,-5.1744,-5.1852,-5.2344,-5.2713,-5.2713,-5.2236,-5.1882,-5.1882,-5.1405,-5.1251,-5.1821,-5.1882,-5.2098,-5.2667,-5.2713,-5.2713,-5.2713,-5.2498,-5.1882,-5.0759,-5.0251,-4.8943,-4.6665,-4.6951,-4.6642,-4.5494,-4.6381,-4.6781,-4.6781,-4.767,-4.8489,-4.9187,-4.9069,-4.9001,-4.9001,-4.9001,-4.9001,-4.9001,-4.9001,-4.8934,-4.8815,-4.8815,-4.7939,-4.6689,-4.6689,-4.5764,-4.43,-4.3059,-4.2588,-4.2248,-4.09,-4.0593,-4.0646,-4.0524,-4.0524,-4.0455,-4.0331,-4.0137,-3.9925,-3.9768,-3.9553,-3.9424,-3.9424,-3.9424,-3.9424,-3.9424,-3.9424,-3.9424,-3.9424,-3.9424,-3.9424,-3.9337,-3.9103,-3.8618,-3.7725,-3.7375,-3.6777,-3.5572,-3.527,-3.5241,-3.5427,-3.5923,-3.6577,-3.7244,-3.7854,-3.8202,-3.8202,-3.8202,-3.8202,-3.8202,-3.8202,-3.8159,-3.8043,-3.8144,-3.8202,-3.8202,-3.8101,-3.7968,-3.7789,-3.6542,-3.5779,-4.7171,0.0,-5.035,0.0,-5.1506,-5.1682,0.0,0.0,-5.1575,0.0,-5.1636,-5.1882,-5.2467,-5.2652,-5.2713,-5.2713,-5.2637,-5.2575,-5.2575,-5.2498,-5.2483,-5.2575,-5.2575,-5.2606,-5.2698,-5.2713,-5.2713,-5.2713,-5.1621,-5.0882,-5.0713,-4.8435,-4.6973,-4.6603,-4.5604,-4.4909,-4.4723,-4.6076,-4.6729,-4.6729,-4.8135,-4.9176,-4.9915,-4.9289,-4.9001,-4.9001,-4.9001,-4.9001,-4.9001,-4.9001,-4.8629,-4.8071,-4.8071,-4.72,-4.5943,-4.5864,-4.4626,-4.2928,-4.2715,-4.2205,-4.1519,-4.0746,-4.0904,-4.1276,-4.0646,-4.0524,-4.0455,-4.0331,-4.0137,-3.9925,-3.9768,-3.9553,-3.9424,-3.9424,-3.9424,-3.9424,-3.9424,-3.9424,-3.9424,-3.9424,-3.9424,-3.9337,-3.9177,-3.85,-3.7971,-3.7652,-3.6543,-3.563,-3.5456,-3.4878,-3.4748,-3.5369,-3.5923,-3.6577,-3.7244,-3.7854,-3.8202,-3.8202,-3.8202,-3.8202,-3.8202,-3.8202,-3.7955,-3.7433,-3.7941,-3.8202,-3.8202,-3.768,-3.702,-3.6363,-3.5667,-3.4534,-4.7177,-4.849,-4.9558,0.0,-5.1053,-5.149,-5.149,-5.1886,-5.2159,-5.1775,-5.2006,-5.2359,-5.2667,-5.2713,-5.2713,-5.2713,-5.2713,-5.2713,-5.2713,-5.2713,-5.2713,-5.2713,-5.2713,-5.2713,-5.2713,-5.2713,-5.2406,-5.1636,-5.1036,-5.002,-4.8481,-4.725,-4.6419,-4.6034,-4.5449,-4.5326,-4.5711,-4.6361,-4.6682,-4.674,-4.775,-4.8307,-4.8233,-4.8311,-4.8593,-4.8984,-4.8578,-4.8392,-4.8359,-4.7936,-4.7581,-4.7293,-4.7293,-4.6168,-4.4603,-4.4603,-4.3249,-4.1492,-4.1439,-4.1236,-4.0904,-4.0593,-4.0715,-4.0904,-4.0593,-4.0524,-4.0455,-4.0207,-4.0066,-3.9925,-3.9625,-3.9481,-3.9424,-3.9424,-3.9424,-3.9424,-3.9424,-3.9424,-3.9424,-3.9424,-3.911,-3.877,-3.8498,-3.7822,-3.7134,-3.647,-3.579,-3.5227,-3.4878,-3.4588,-3.4516,-3.4806,-3.5401,-3.5894,-3.6199,-3.678,-3.7143,-3.7143,-3.7143,-3.7143,-3.7143,-3.7143,-3.7012,-3.6751,-3.7375,-3.752,-3.7143,-3.6881,-3.6359,-3.5564,-3.4488,-3.3363,-4.6808,0.0,-4.8356,-4.9132,-5.0049,-5.0924,0.0,0.0,-5.2395,0.0,-5.2181,-5.2533,-5.2608,-5.2624,-5.2713,-5.2713,-5.2713,-5.2713,-5.2713,-5.2713,-5.2713,-5.2713,-5.2713,-5.2652,-5.2467,-5.2298,-5.1775,0.0,-5.0205,-4.9081,-4.7204,-4.6788,-4.6372,-4.5865,-4.5834,-4.608,-4.6603,-4.6773,-4.6967,-4.7261,-4.7403,-4.7292,-4.6864,-4.7029,-4.7419,-4.7943,-4.773,-4.7631,-4.7581,-4.7022,-4.6684,-4.6515,-4.6321,-4.5081,-4.341,-4.341,-4.2182,-4.0524,-4.0715,-4.0646,-4.0524,-4.0524,-4.0524,-4.0524,-4.0524,-4.047,-4.0401,-4.0066,-3.9925,-3.9854,-3.9496,-3.929,-3.9155,-3.9155,-3.9035,-3.9005,-3.9349,-3.929,-3.9155,-3.9155,-3.8616,-3.8027,-3.7689,-3.7087,-3.6344,-3.5499,-3.5227,-3.4951,-3.4472,-3.4414,-3.4414,-3.4414,-3.498,-3.5427,-3.5427,-3.5938,-3.6301,-3.6301,-3.6301,-3.6301,-3.6301,-3.6301,-3.6228,-3.6069,-3.6562,-3.6649,-3.6301,-3.6156,-3.5612,-3.4622,-3.3394,-3.223,-4.5854,-4.65,0.0,-4.7208,-4.8437,-4.9875,0.0,0.0,-5.1987,-5.1956,-5.1972,-5.2078,-5.2306,-5.2503,-5.2713,-5.2713,-5.2713,-5.2713,-5.2713,-5.2713,-5.2713,-5.2713,-5.2713,-5.2467,-5.1821,-5.1174,-5.0774,0.0,-4.8881,-4.7989,-4.8481,-4.7296,-4.6573,-4.6542,-4.6542,-4.6557,-4.6603,-4.7234,-4.7898,-4.8652,-4.7387,-4.6829,-4.6815,-4.5552,-4.5,-4.5066,-4.634,-4.6853,-4.6836,-4.6802,-4.6397,-4.5696,-4.5057,-4.3875,-4.2569,-4.2569,-4.1672,-4.0578,-4.1209,-4.1024,-4.0524,-4.0524,-4.0524,-4.0524,-4.0524,-4.0401,-4.0277,-4.0066,-3.9854,-3.9696,-3.9409,-3.8931,-3.8437,-3.8437,-3.7973,-3.7853,-3.9155,-3.8901,-3.8437,-3.8437,-3.7789,-3.7218,-3.6954,-3.627,-3.5692,-3.5441,-3.4849,-3.4443,-3.4414,-3.4414,-3.4414,-3.4414,-3.498,-3.5427,-3.5427,-3.5938,-3.6301,-3.6301,-3.6301,-3.6301,-3.6301,-3.6301,-3.6025,-3.543,-3.5444,-3.5735,-3.6301,-3.5706,-3.4654,-3.3071,-3.2472,-3.1334,-4.4869,0.0,0.0,-4.5867,-4.6949,-4.8154,-4.8963,-5.0275,-5.1364,-5.1364,-5.1698,-5.1987,-5.2063,-5.2322,-5.2503,-5.2713,-5.2713,-5.2713,-5.2713,-5.2713,-5.2713,-5.2713,-5.2329,-5.1959,-5.1728,-5.1082,0.0,0.0,0.0,-4.7973,-4.7357,-4.6865,-4.6803,-4.7234,-4.7234,-4.745,-4.7881,-4.7265,-4.6885,-4.6718,-4.5366,-4.4502,-4.4157,-4.3611,-4.3384,-4.3419,-4.3826,-4.4327,-4.4801,-4.4704,-4.4278,-4.3608,-4.3362,-4.27,-4.1836,-4.1836,-4.1276,-4.0524,-4.0768,-4.0715,-4.0524,-4.0524,-4.0524,-4.0378,-3.9879,-3.9703,-3.9474,-3.8758,-3.8499,-3.8346,-3.8207,-3.7943,-3.7764,-3.7764,-3.7584,-3.7539,-3.8018,-3.7943,-3.7764,-3.764,-3.7049,-3.6482,-3.6207,-3.5541,-3.4966,-3.4762,-3.4559,-3.4414,-3.4414,-3.4414,-3.4414,-3.4414,-3.4617,-3.4762,-3.4762,-3.4965,-3.5096,-3.5096,-3.5096,-3.5096,-3.5096,-3.5096,-3.498,-3.4762,-3.4762,-3.4864,-3.5096,-3.4337,-3.3423,-3.2386,-3.1656,-3.0771,-4.3829,0.0,0.0,0.0,-4.5246,-4.616,-4.6951,0.0,-4.9501,-4.9898,-5.0242,-5.074,-5.1122,-5.1288,-5.1697,-5.2441,-5.2608,-5.2608,-5.2713,-5.2513,-5.2375,-5.2375,-5.1775,-5.1282,-5.1051,0.0,0.0,0.0,0.0,0.0,-4.7311,-4.7281,-4.7481,-4.7927,-4.7942,-4.805,-4.8266,-4.7157,-4.6142,-4.5234,-4.3895,-4.291,-4.2248,-4.2249,-4.2238,-4.2291,-4.2664,-4.3057,-4.328,-4.3211,-4.3039,-4.283,-4.2639,-4.2411,-4.2153,-4.1731,-4.1261,-4.0847,-4.0616,-4.037,-4.0185,-4.0185,-3.9979,-3.9634,-3.9137,-3.8864,-3.8622,-3.7896,-3.7639,-3.7556,-3.7404,-3.7255,-3.7045,-3.6821,-3.6761,-3.6761,-3.6761,-3.6941,-3.7037,-3.6901,-3.6245,-3.5665,-3.5395,-3.4908,-3.4563,-3.4414,-3.4414,-3.4414,-3.4414,-3.4414,-3.4414,-3.4414,-3.4414,-3.4414,-3.4414,-3.4414,-3.4414,-3.4414,-3.4414,-3.4414,-3.4414,-3.4414,-3.4414,-3.4414,-3.4113,-3.3977,-3.3977,-3.3451,-3.2648,-3.1709,-3.1119,-3.0482,0.0,0.0,0.0,0.0,0.0,0.0,-4.5007,0.0,-4.6512,-4.7507,-4.7709,-4.8097,-4.9314,-4.9509,-5.011,-5.185,-5.2139,-5.2336,-5.2547,-5.2082,-5.1667,-5.1667,-5.1082,-5.0405,0.0,0.0,0.0,0.0,-4.8004,-4.7912,-4.8573,-4.862,-4.8604,-4.8589,-4.8589,-4.8266,-4.7588,-4.688,-4.588,-4.4556,-4.3233,-4.2263,-4.1632,-4.1632,-4.1632,-4.1734,-4.3043,-4.319,-4.2506,-4.2506,-4.2943,-4.3492,-4.2849,-4.3005,-4.3441,-4.2131,-4.1601,-4.1463,-4.077,-4.0078,-3.9493,-3.9493,-3.8928,-3.8274,-3.8244,-3.7962,-3.7677,-3.7662,-3.7496,-3.7345,-3.7345,-3.6911,-3.6297,-3.5654,-3.5504,-3.5504,-3.5504,-3.6013,-3.638,-3.6164,-3.5511,-3.4883,-3.4698,-3.4549,-3.4414,-3.4414,-3.4414,-3.4414,-3.4414,-3.4414,-3.4414,-3.4414,-3.4414,-3.4414,-3.4414,-3.4414,-3.4414,-3.4414,-3.4414,-3.4414,-3.4414,-3.4414,-3.4332,-3.4332,-3.3589,-3.3143,-3.3143,-3.3143,-3.2349,-3.0895,-3.0895,-3.0482,-4.1683,0.0,0.0,0.0,0.0,0.0,0.0,0.0,0.0,-4.5955,-4.6419,-4.6828,-4.7114,-4.7195,-4.7405,-4.8101,-4.9521,-5.0692,-5.0781,-5.0701,-5.0682,-5.0682,-5.0273,0.0,0.0,0.0,0.0,0.0,-4.8435,-4.8419,-4.8604,-4.862,-4.8389,-4.7896,-4.7881,-4.7558,-4.688,-4.5711,-4.4941,-4.4556,-4.3233,-4.2509,-4.2325,-4.2325,-4.2325,-4.234,-4.2726,-4.2785,-4.2606,-4.3126,-4.3116,-4.2849,-4.2652,-4.2705,-4.2844,-4.2458,-4.1694,-4.0801,-4.0601,-3.9754,-3.8785,-3.8785,-3.8545,-3.8167,-3.7532,-3.7167,-3.6878,-3.6295,-3.6043,-3.6028,-3.6028,-3.5908,-3.5729,-3.5549,-3.5504,-3.5504,-3.5504,-3.5654,-3.5693,-3.5348,-3.5053,-3.4802,-3.4549,-3.4414,-3.4414,-3.4414,-3.4414,-3.4414,-3.4414,-3.4414,-3.4414,-3.4414,-3.4414,-3.4414,-3.4414,-3.4414,-3.4414,-3.4414,-3.4414,-3.4414,-3.4414,-3.3811,-3.352,-3.352,-3.2791,-3.2146,-3.1549,-3.1549,-3.1328,-3.0895,-3.0343,-2.9998,-4.1311,-4.1311,-4.1311,-4.1311,0.0,0.0,-4.2137,-4.2882,-4.3711,0.0,-4.4553,-4.4982,-4.538,-4.5476,-4.5462,-4.5638,-4.6775,-4.7999,-4.9209,-4.9223,-4.9322,-4.9702,-4.9295,0.0,0.0,-4.8699,-4.8453,-4.8453,-4.8537,-4.8496,-4.8204,-4.8189,-4.7881,-4.7204,-4.7188,-4.6865,-4.6188,-4.511,-4.4433,-4.4141,-4.311,-4.2602,-4.2617,-4.2879,-4.3017,-4.3017,-4.331,-4.3433,-4.3417,-4.3827,-4.3599,-4.3017,-4.3017,-4.3017,-4.294,-4.2386,-4.1478,-4.0447,-3.9878,-3.8985,-3.8092,-3.8012,-3.7698,-3.7212,-3.6671,-3.6356,-3.6084,-3.5609,-3.5504,-3.5504,-3.5504,-3.5504,-3.5504,-3.5504,-3.5504,-3.5504,-3.5504,-3.5504,-3.5359,-3.5001,-3.4935,-3.4802,-3.4481,-3.4414,-3.4414,-3.4414,-3.4414,-3.4414,-3.4414,-3.4414,-3.4414,-3.4414,-3.4414,-3.4414,-3.4414,-3.4414,-3.4414,-3.4414,-3.4414,-3.4414,-3.4414,-3.3604,-3.3213,-3.3213,-3.2146,-3.1206,-3.0406,-3.0758,-3.0758,-3.0406,-2.9998,-2.9792,-4.1311,-4.1311,-4.1311,-4.1311,-4.1311,0.0,-4.1311,-4.1311,-4.1597,0.0,-4.2598,-4.2889,-4.3843,-4.3937,-4.3937,-4.3937,-4.3937,-4.4959,-4.7673,-4.7519,-4.7525,-4.838,0.0,0.0,-4.7779,-4.8034,-4.8202,-4.8286,-4.8392,-4.8204,-4.7527,-4.7496,-4.7188,-4.6511,-4.648,-4.6157,-4.548,-4.488,-4.4279,-4.3664,-4.311,-4.2833,-4.2848,-4.3417,-4.3679,-4.371,-4.431,-4.4572,-4.4572,-4.4495,-4.4156,-4.3664,-4.3602,-4.3571,-4.3417,-4.2078,-4.1109,-4.0163,-3.8888,-3.795,-3.732,-3.7097,-3.6572,-3.591,-3.5752,-3.5604,-3.5504,-3.5504,-3.5504,-3.5504,-3.5504,-3.5504,-3.5504,-3.5504,-3.5504,-3.5504,-3.5504,-3.5504,-3.5359,-3.5001,-3.4935,-3.4802,-3.4481,-3.4414,-3.4414,-3.4414,-3.4414,-3.4414,-3.4414,-3.4414,-3.4414,-3.4414,-3.4414,-3.4332,-3.4264,-3.4346,-3.4346,-3.4196,-3.4196,-3.4264,-3.4128,-3.3367,-3.2918,-3.2918,-3.1549,-3.0482,-2.9792,-3.0482,-3.0406,-2.9792,-2.9792,-2.9792,-4.1311,-4.1311,-4.1311,-4.1311,-4.1311,0.0,-4.1311,-4.1311,-4.1311,0.0,-4.1597,-4.1683,-4.1881,-4.1881,-4.1881,-4.1881,-4.1881,-4.2609,-4.4809,-4.5189,-4.5287,-4.547,0.0,0.0,-4.6667,-4.6857,-4.7204,-4.8202,-4.7947,-4.7511,-4.6819,-4.6803,-4.648,-4.5803,-4.5788,-4.5464,-4.4787,-4.4649,-4.451,-4.4372,-4.4249,-4.4202,-4.4202,-4.4326,-4.4372,-4.4387,-4.451,-4.4572,-4.4541,-4.3987,-4.4018,-4.4326,-4.3787,-4.3571,-4.3417,-4.2078,-4.0731,-3.9412,-3.8616,-3.7449,-3.6298,-3.6234,-3.6001,-3.5752,-3.5688,-3.5604,-3.5504,-3.5504,-3.5504,-3.5504,-3.5504,-3.5504,-3.5504,-3.5504,-3.5504,-3.5504,-3.5504,-3.5359,-3.5213,-3.4935,-3.4935,-3.4802,-3.4481,-3.4414,-3.4414,-3.4414,-3.4414,-3.4414,-3.4414,-3.4414,-3.4414,-3.4414,-3.4414,-3.4113,-3.352,-3.4045,-3.3908,-3.2662,-3.3087,-3.3157,-3.2591,-3.1769,-3.1328,-3.1328,-3.0495,-2.9921,-2.9792,-2.9921,-2.9934,-2.9792,-2.9792,-2.9702,-4.1311,-4.1311,-4.1246,-4.0945,-4.0867,0.0,0.0,-4.0657,-4.054,-4.0814,-4.0657,-4.054,-4.0814,-4.0644,-4.0553,-4.0827,-4.0644,-4.0826,-4.1842,-4.2983,-4.3909,-4.4377,0.0,0.0,-4.5566,-4.5069,-4.5229,-4.6386,-4.6778,-4.6659,-4.5984,-4.6017,-4.5788,-4.511,-4.508,-4.4926,-4.4572,-4.4249,-4.4249,-4.4572,-4.4233,-4.4249,-4.4572,-4.4572,-4.4572,-4.4572,-4.4572,-4.4387,-4.4048,-4.371,-4.3571,-4.3571,-4.3217,-4.2894,-4.2432,-4.0993,-3.9719,-3.8626,-3.7536,-3.6679,-3.5973,-3.5894,-3.5752,-3.5688,-3.5589,-3.5539,-3.5504,-3.5504,-3.5504,-3.5504,-3.5504,-3.5504,-3.5504,-3.5504,-3.5504,-3.5439,-3.5359,-3.5294,-3.5148,-3.4883,-3.4817,-3.475,-3.4481,-3.4414,-3.4414,-3.4414,-3.4414,-3.4414,-3.4414,-3.4414,-3.4414,-3.4414,-3.4045,-3.3673,-3.3213,-3.3589,-3.3311,-3.2146,-3.2791,-3.2861,-3.2146,-3.1341,-3.0758,-3.0343,-2.9998,-2.9792,-2.9792,-2.9792,-2.9792,-2.9792,-2.9792,-2.9702,-4.1311,-4.1311,-4.1193,-4.071,-4.0501,-4.0409,0.0,0.0,0.0,0.0,0.0,0.0,0.0,0.0,0.0,0.0,0.0,0.0,0.0,-4.1053,0.0,-4.3308,0.0,0.0,-4.4013,-4.3336,-4.3401,-4.4507,-4.5296,-4.554,-4.5044,-4.5248,-4.5064,-4.4603,-4.4587,-4.4572,-4.4572,-4.391,-4.3848,-4.4372,-4.3833,-4.3848,-4.4387,-4.451,-4.451,-4.4387,-4.4387,-4.4002,-4.3371,-4.3248,-4.2879,-4.2329,-4.2417,-4.2078,-4.1331,-3.9703,-3.8733,-3.7994,-3.6444,-3.591,-3.5846,-3.5703,-3.5638,-3.5638,-3.5554,-3.5504,-3.5504,-3.5504,-3.5504,-3.5504,-3.5504,-3.5504,-3.5504,-3.5504,-3.5439,-3.5424,-3.5228,-3.5148,-3.5016,-3.4765,-3.4698,-3.4563,-3.4414,-3.4414,-3.4414,-3.4414,-3.4414,-3.4414,-3.4414,-3.4414,-3.4332,-3.4196,-3.3589,-3.3073,-3.2777,-3.2932,-3.2577,-3.1723,-3.2362,-3.2434,-3.1723,-3.1057,-3.0419,-2.9792,-2.9792,-2.9792,-2.9792,-2.9792,-2.9792,-2.9792,-2.9792,-2.9792,-4.1311,-4.1311,0.0,0.0,-4.0814,-4.0409,-4.0409,0.0,-3.9625,-3.969,0.0,0.0,0.0,0.0,0.0,0.0,0.0,0.0,-3.8893,-3.9472,-3.9987,-4.007,-4.01,0.0,0.0,-4.2368,-4.3401,-4.4503,-4.4184,-4.3997,-4.4124,-4.4327,-4.4435,-4.4358,-4.4511,-4.4572,-4.4572,-4.391,-4.3602,-4.3679,-4.3602,-4.3602,-4.371,-4.431,-4.4249,-4.3679,-4.3679,-4.331,-4.2679,-4.2063,-4.1699,-4.1464,-4.1638,-4.1576,-4.1112,-3.9168,-3.812,-3.7578,-3.622,-3.5653,-3.5554,-3.5504,-3.5489,-3.5504,-3.5504,-3.5504,-3.5504,-3.5504,-3.5504,-3.5504,-3.5504,-3.5504,-3.5504,-3.5504,-3.5359,-3.5213,-3.5213,-3.4964,-3.4765,-3.4698,-3.4563,-3.4414,-3.4414,-3.4414,-3.4414,-3.4414,-3.4414,-3.4414,-3.4414,-3.4414,-3.4113,-3.3437,-3.3227,-3.2635,-3.1254,-3.1769,-3.1576,-3.0152,-3.0771,-3.0833,-3.0075,-3.0011,-2.9869,-2.9792,-2.9792,-2.9792,-2.9792,-2.9792,-2.9792,-2.9792,-2.9792,-2.9689,0.0,0.0,0.0,0.0,0.0,0.0,-3.9952,0.0,-3.871,0.0,0.0,0.0,0.0,0.0,0.0,0.0,-3.8658,0.0,0.0,0.0,-3.8867,0.0,0.0,0.0,0.0,0.0,0.0,0.0,-4.2587,-4.3152,-4.3769,-4.4143,-4.4281,-4.4281,-4.4511,-4.4572,-4.4572,-4.3541,-4.3202,-4.3571,-4.3187,-4.3202,-4.3587,-4.3864,-4.3833,-4.3541,-4.3082,-4.2471,-4.1827,-4.1408,-4.0985,-4.0563,-4.0634,-4.0634,-4.035,-3.8584,-3.7842,-3.7526,-3.6054,-3.5554,-3.5504,-3.5504,-3.5504,-3.5504,-3.5504,-3.5504,-3.5504,-3.5504,-3.5504,-3.5504,-3.5504,-3.5504,-3.5439,-3.5359,-3.5294,-3.5148,-3.4964,-3.4831,-3.4698,-3.4563,-3.4481,-3.4414,-3.4414,-3.4414,-3.4414,-3.4414,-3.4414,-3.4264,-3.3742,-3.3673,-3.3381,-3.2648,-3.2132,-3.1623,-3.097,-3.1193,-3.0908,-2.9869,-3.0062,-3.0139,-2.9792,-2.9792,-2.9792,-2.9792,-2.9792,-2.9792,-2.9792,-2.9792,-2.9792,-2.9792,-2.9792,-2.9702,-4.1311,0.0,0.0,0.0,0.0,0.0,0.0,0.0,0.0,0.0,0.0,0.0,0.0,0.0,-3.7978,-3.8214,0.0,-3.7848,0.0,-3.7795,0.0,0.0,0.0,0.0,0.0,0.0,0.0,-4.0589,-4.1099,-4.1961,-4.317,-4.3551,-4.3864,-4.4205,-4.4435,-4.4572,-4.4572,-4.3448,-4.3017,-4.3294,-4.2833,-4.2756,-4.3033,-4.3217,-4.3202,-4.2913,-4.2291,-4.1622,-4.0939,-4.0796,-4.0436,-3.9925,-3.9925,-3.9854,-3.9718,-3.84,-3.779,-3.7406,-3.6229,-3.5654,-3.5504,-3.5504,-3.5504,-3.5504,-3.5504,-3.5504,-3.5504,-3.5504,-3.5504,-3.5504,-3.5504,-3.5504,-3.5439,-3.5228,-3.5148,-3.5016,-3.4765,-3.4631,-3.4563,-3.4414,-3.4414,-3.4414,-3.4414,-3.4414,-3.4414,-3.4414,-3.4196,-3.3879,-3.3297,-3.3003,-3.2648,-3.1856,-3.1267,-3.082,-3.062,-3.062,-3.0343,-2.9869,-2.9792,-2.9792,-2.9792,-2.9792,-2.9792,-2.9792,-2.9792,-2.9792,-2.9792,-2.9792,-2.9792,-2.9792,-2.9702,-2.9689,0.0,0.0,0.0,-4.1298,0.0,0.0,0.0,0.0,-3.7913,0.0,0.0,0.0,0.0,-3.7913,-3.7717,-3.7155,-3.7534,0.0,0.0,0.0,0.0,0.0,0.0,0.0,0.0,-3.8472,-3.8756,-4.0432,-3.9812,-4.0073,-4.199,-4.2222,-4.2871,-4.3972,-4.4205,-4.4435,-4.4572,-4.3879,-4.3233,-4.2633,-4.2617,-4.2279,-4.1694,-4.234,-4.2191,-4.1331,-4.1316,-4.0863,-4.0026,-4.0026,-3.9869,-3.9681,-3.9681,-3.9625,-3.9334,-3.8858,-3.8112,-3.7315,-3.6671,-3.6028,-3.5504,-3.5504,-3.5504,-3.5504,-3.5504,-3.5504,-3.5504,-3.5504,-3.5504,-3.5504,-3.5504,-3.5504,-3.5439,-3.5228,-3.5067,-3.4868,-3.4698,-3.4563,-3.4414,-3.4414,-3.4414,-3.4414,-3.4414,-3.4414,-3.4414,-3.4414,-3.3742,-3.3213,-3.3213,-3.2577,-3.1856,-3.1044,-3.0895,-3.062,-2.9856,-2.9869,-2.9869,-2.9792,-2.9792,-2.9792,-2.9792,-2.9792,-2.9792,-2.9792,-2.9792,-2.9792,-2.9792,-2.9792,-2.9792,-2.9792,-2.9509,-2.9419,0.0,0.0,-4.0808,-4.0997,0.0,0.0,0.0,0.0,0.0,0.0,0.0,0.0,0.0,-3.7505,-3.7335,-3.7142,-3.7271,-3.7335,0.0,0.0,0.0,0.0,0.0,0.0,0.0,0.0,0.0,-3.9116,-3.9169,-3.9986,-4.1908,-4.2222,-4.2725,-4.3754,-4.4143,-4.4358,-4.4435,-4.342,-4.2817,-4.2602,-4.2155,-4.1817,-4.1617,-4.1832,-4.173,-4.1255,-4.067,-4.0208,-3.9768,-3.964,-3.9553,-3.9481,-3.9481,-3.9481,-3.9334,-3.8717,-3.8042,-3.7255,-3.6207,-3.5684,-3.5504,-3.5504,-3.5504,-3.5504,-3.5504,-3.5504,-3.5504,-3.5504,-3.5504,-3.5504,-3.5504,-3.5424,-3.5228,-3.5067,-3.4883,-3.475,-3.4549,-3.4481,-3.4414,-3.4414,-3.3962,-3.3604,-3.3604,-3.3241,-3.3017,-3.352,-3.2946,-3.229,-3.1769,-3.1476,-3.0983,-3.0279,-3.0203,-3.0062,-2.9792,-2.9792,-2.9792,-2.9792,-2.9792,-2.9792,-2.9792,-2.9792,-2.9792,-2.9792,-2.9792,-2.9792,-2.9792,-2.9792,-2.9792,-2.9792,-2.9509,-2.9509,-4.0795,-4.0593,0.0,-4.0694,-3.993,0.0,-3.9091,0.0,-3.7611,0.0,0.0,0.0,0.0,0.0,-3.7108,-3.7108,-3.7108,-3.7044,0.0,-3.6327,0.0,0.0,0.0,-3.7026,0.0,-3.7037,-3.7358,-3.7565,-3.7947,-3.8746,0.0,0.0,-4.1536,-4.2533,-4.3091,-4.3411,-4.3487,-4.2796,-4.2391,-4.216,-4.1801,-4.1478,-4.1162,-4.1162,-4.1005,-4.0674,-4.0107,-3.9768,-3.9553,-3.9409,-3.9424,-3.9424,-3.9424,-3.9424,-3.9364,-3.8916,-3.8182,-3.7225,-3.5953,-3.5504,-3.5504,-3.5504,-3.5504,-3.5504,-3.5504,-3.5504,-3.5504,-3.5504,-3.5504,-3.5504,-3.5439,-3.5294,-3.5148,-3.4883,-3.475,-3.4563,-3.4113,-3.3962,-3.3894,-3.3604,-3.3157,-3.2791,-3.2791,-3.2218,-3.1928,-3.272,-3.2146,-3.1489,-3.097,-3.0683,-3.0355,-2.9856,-2.9792,-2.9792,-2.9792,-2.9792,-2.9792,-2.9792,-2.9792,-2.9792,-2.9792,-2.9792,-2.9792,-2.9792,-2.9792,-2.9792,-2.9792,-2.9792,-2.9779,-2.9689,-2.9509,-2.9431]},{"header":{"parameterUnit":"m.s-1","parameterCategory":1,"la1":30.6,"la2":29.2853,"lo1":-89.7004,"lo2":-87.6739,"dy":0.0162,"dx":0.0183,"nx":112,"ny":82,"refTime":"2023-06-22T06:00:00:Z","depth":0,"parameterNumber":3,"parameterNumberName":"V-component_of_WINDS"},"data":[0.0,0.0,0.0,0.0,0.0,0.0,0.0,0.0,0.0,0.0,0.0,0.0,0.0,0.0,0.0,0.0,0.0,0.0,0.0,0.0,0.0,0.0,0.0,0.0,0.0,0.0,0.0,0.0,0.0,0.0,0.0,0.0,0.0,0.0,0.0,0.0,0.0,0.0,0.0,0.0,0.0,0.0,0.0,0.0,0.0,0.0,0.0,0.0,0.0,0.0,0.0,0.0,0.0,0.0,0.0,0.0,0.0,0.0,0.0,0.0,0.0,0.0,0.0,0.0,0.0,0.0,0.0,0.0,0.0,0.0,0.0,0.0,0.0,0.0,0.0,0.0,0.0,0.0,0.0,0.0,0.0,0.0,0.0,0.0,0.0,0.0,0.0,0.0,0.0,0.0,-2.6986,-2.7262,-2.7262,-2.7262,-2.7262,-2.7262,-2.7262,-2.7262,0.0,0.0,0.0,0.0,0.0,0.0,0.0,0.0,0.0,0.0,0.0,0.0,0.0,0.0,0.0,0.0,0.0,0.0,0.0,0.0,0.0,0.0,0.0,0.0,0.0,0.0,0.0,0.0,0.0,0.0,0.0,0.0,0.0,0.0,0.0,0.0,0.0,0.0,0.0,0.0,0.0,0.0,0.0,0.0,0.0,0.0,0.0,0.0,0.0,0.0,0.0,0.0,0.0,0.0,0.0,0.0,0.0,0.0,0.0,0.0,0.0,0.0,0.0,0.0,0.0,0.0,0.0,0.0,0.0,0.0,0.0,0.0,0.0,0.0,0.0,0.0,0.0,0.0,0.0,0.0,0.0,0.0,0.0,0.0,0.0,0.0,0.0,0.0,0.0,0.0,0.0,0.0,0.0,0.0,0.0,0.0,0.0,0.0,0.0,0.0,0.0,0.0,0.0,0.0,-2.6986,-2.7262,-2.7262,-2.7262,-2.7262,-2.7262,-2.7262,-2.7262,0.0,0.0,0.0,0.0,0.0,0.0,0.0,0.0,0.0,0.0,0.0,0.0,0.0,0.0,0.0,0.0,0.0,0.0,0.0,0.0,0.0,0.0,0.0,0.0,0.0,0.0,0.0,0.0,0.0,0.0,0.0,0.0,0.0,0.0,0.0,0.0,0.0,0.0,0.0,0.0,0.0,0.0,0.0,0.0,0.0,0.0,0.0,0.0,0.0,0.0,0.0,0.0,0.0,0.0,0.0,0.0,0.0,0.0,0.0,0.0,0.0,0.0,0.0,0.0,0.0,0.0,0.0,0.0,0.0,0.0,0.0,0.0,0.0,0.0,0.0,0.0,0.0,0.0,0.0,0.0,0.0,0.0,0.0,0.0,0.0,0.0,0.0,0.0,0.0,0.0,0.0,0.0,0.0,0.0,0.0,0.0,0.0,0.0,0.0,0.0,0.0,0.0,0.0,-2.7167,-2.7167,-2.7262,-2.7262,-2.7262,-2.7262,-2.7262,-2.7262,-2.7262,-2.7262,0.0,0.0,0.0,0.0,0.0,0.0,0.0,0.0,0.0,0.0,0.0,0.0,0.0,0.0,0.0,0.0,0.0,0.0,0.0,0.0,0.0,0.0,0.0,0.0,0.0,0.0,0.0,0.0,0.0,0.0,0.0,0.0,0.0,0.0,0.0,0.0,0.0,0.0,0.0,0.0,0.0,0.0,0.0,0.0,0.0,0.0,0.0,0.0,0.0,0.0,0.0,0.0,0.0,0.0,0.0,0.0,0.0,0.0,0.0,0.0,0.0,0.0,0.0,0.0,0.0,0.0,0.0,0.0,0.0,0.0,0.0,0.0,0.0,0.0,0.0,0.0,0.0,0.0,0.0,0.0,0.0,0.0,0.0,0.0,0.0,0.0,0.0,0.0,0.0,0.0,0.0,0.0,0.0,0.0,0.0,0.0,0.0,0.0,0.0,0.0,0.0,0.0,-2.7262,-2.7262,-2.7262,-2.7262,-2.7262,-2.7262,-2.7262,-2.7262,-2.7262,-2.7262,0.0,0.0,0.0,0.0,0.0,0.0,0.0,0.0,0.0,0.0,0.0,0.0,0.0,0.0,0.0,0.0,0.0,0.0,0.0,0.0,0.0,0.0,0.0,0.0,0.0,0.0,0.0,0.0,0.0,0.0,0.0,0.0,0.0,0.0,0.0,0.0,0.0,0.0,0.0,0.0,0.0,0.0,0.0,0.0,0.0,0.0,0.0,0.0,0.0,0.0,0.0,0.0,0.0,0.0,0.0,0.0,0.0,0.0,0.0,0.0,0.0,0.0,0.0,0.0,0.0,0.0,0.0,0.0,0.0,0.0,0.0,0.0,0.0,0.0,0.0,0.0,0.0,0.0,0.0,0.0,0.0,0.0,0.0,0.0,0.0,0.0,0.0,0.0,0.0,0.0,0.0,0.0,0.0,0.0,0.0,0.0,0.0,0.0,0.0,0.0,0.0,0.0,-2.7262,-2.7262,-2.7262,-2.7262,-2.7262,-2.7262,-2.7262,-2.7262,-2.7262,-2.7262,0.0,0.0,0.0,0.0,0.0,0.0,0.0,0.0,0.0,0.0,0.0,0.0,0.0,0.0,0.0,0.0,0.0,0.0,0.0,0.0,0.0,0.0,0.0,0.0,0.0,0.0,0.0,0.0,0.0,0.0,0.0,0.0,0.0,0.0,0.0,0.0,0.0,0.0,0.0,0.0,0.0,0.0,0.0,0.0,0.0,0.0,0.0,0.0,0.0,0.0,0.0,0.0,0.0,0.0,0.0,0.0,0.0,0.0,0.0,0.0,0.0,0.0,0.0,0.0,0.0,0.0,0.0,0.0,0.0,0.0,0.0,0.0,0.0,0.0,0.0,0.0,0.0,0.0,0.0,0.0,0.0,0.0,0.0,0.0,0.0,0.0,0.0,0.0,0.0,0.0,0.0,0.0,0.0,0.0,0.0,0.0,0.0,0.0,0.0,0.0,0.0,0.0,-2.7262,-2.7262,-2.7262,-2.7262,-2.7262,-2.7262,-2.7262,-2.7262,-2.7262,0.0,0.0,0.0,0.0,0.0,0.0,0.0,0.0,0.0,0.0,0.0,0.0,0.0,0.0,0.0,0.0,0.0,0.0,0.0,0.0,0.0,0.0,0.0,0.0,0.0,0.0,0.0,0.0,0.0,0.0,0.0,0.0,0.0,0.0,0.0,0.0,0.0,0.0,0.0,0.0,0.0,0.0,0.0,0.0,0.0,0.0,0.0,0.0,0.0,0.0,0.0,0.0,0.0,0.0,0.0,0.0,0.0,0.0,0.0,0.0,0.0,0.0,0.0,0.0,0.0,0.0,0.0,0.0,0.0,0.0,0.0,0.0,0.0,0.0,0.0,0.0,0.0,0.0,0.0,0.0,0.0,0.0,0.0,0.0,0.0,0.0,0.0,0.0,0.0,0.0,0.0,0.0,0.0,0.0,0.0,0.0,0.0,0.0,0.0,0.0,0.0,0.0,-2.7262,-2.7262,-2.7262,-2.7262,-2.7262,-2.7262,-2.7262,-2.7262,-2.7262,-2.7262,0.0,0.0,0.0,0.0,0.0,0.0,0.0,0.0,0.0,0.0,0.0,0.0,0.0,0.0,0.0,0.0,0.0,0.0,0.0,0.0,0.0,0.0,0.0,0.0,0.0,0.0,0.0,0.0,0.0,0.0,0.0,0.0,0.0,0.0,0.0,0.0,0.0,0.0,0.0,0.0,0.0,0.0,0.0,0.0,0.0,0.0,0.0,0.0,0.0,0.0,0.0,0.0,0.0,0.0,0.0,0.0,0.0,0.0,0.0,0.0,0.0,0.0,0.0,0.0,0.0,0.0,0.0,0.0,0.0,0.0,0.0,0.0,0.0,0.0,0.0,0.0,0.0,0.0,0.0,0.0,0.0,0.0,0.0,0.0,0.0,0.0,0.0,0.0,0.0,0.0,0.0,0.0,0.0,0.0,0.0,0.0,0.0,0.0,0.0,0.0,0.0,0.0,-2.7262,-2.7262,-2.7262,-2.7262,-2.7262,-2.7262,-2.7262,-2.7262,-2.7262,0.0,0.0,0.0,0.0,0.0,0.0,0.0,0.0,0.0,0.0,0.0,0.0,0.0,0.0,0.0,0.0,0.0,0.0,0.0,0.0,0.0,0.0,0.0,0.0,0.0,0.0,0.0,0.0,0.0,0.0,0.0,0.0,0.0,0.0,0.0,0.0,0.0,0.0,0.0,0.0,0.0,0.0,0.0,0.0,0.0,0.0,0.0,0.0,0.0,0.0,0.0,0.0,0.0,0.0,0.0,0.0,0.0,0.0,0.0,0.0,0.0,0.0,0.0,0.0,0.0,0.0,0.0,0.0,0.0,0.0,0.0,0.0,0.0,0.0,0.0,0.0,0.0,0.0,0.0,0.0,0.0,0.0,0.0,0.0,0.0,0.0,0.0,0.0,0.0,0.0,0.0,0.0,0.0,0.0,0.0,0.0,0.0,0.0,0.0,0.0,0.0,0.0,0.0,-2.7262,-2.7262,-2.7262,-2.7262,-2.7262,-2.7262,-2.7262,-2.7262,-2.7262,-2.7262,0.0,0.0,0.0,0.0,0.0,0.0,0.0,0.0,0.0,0.0,0.0,0.0,0.0,0.0,0.0,0.0,0.0,0.0,0.0,0.0,0.0,0.0,0.0,0.0,0.0,0.0,0.0,0.0,0.0,0.0,0.0,0.0,0.0,0.0,0.0,0.0,0.0,0.0,0.0,0.0,0.0,0.0,0.0,0.0,0.0,0.0,0.0,0.0,0.0,0.0,0.0,0.0,0.0,0.0,0.0,0.0,0.0,0.0,0.0,0.0,0.0,0.0,0.0,0.0,0.0,0.0,0.0,0.0,0.0,0.0,0.0,0.0,0.0,0.0,0.0,0.0,0.0,0.0,0.0,0.0,0.0,0.0,0.0,0.0,0.0,0.0,0.0,0.0,0.0,0.0,0.0,0.0,0.0,0.0,0.0,0.0,0.0,0.0,0.0,0.0,0.0,0.0,-2.7282,-2.7262,-2.7262,-2.7262,-2.7262,-2.7262,-2.7262,-2.7262,-2.7262,-2.7262,0.0,0.0,0.0,0.0,0.0,0.0,0.0,0.0,0.0,0.0,0.0,0.0,0.0,0.0,0.0,0.0,0.0,0.0,0.0,0.0,0.0,0.0,0.0,0.0,0.0,0.0,0.0,0.0,0.0,0.0,0.0,0.0,0.0,0.0,0.0,0.0,0.0,0.0,0.0,0.0,0.0,0.0,0.0,0.0,0.0,0.0,0.0,0.0,0.0,0.0,0.0,0.0,0.0,0.0,0.0,0.0,0.0,0.0,0.0,0.0,0.0,0.0,0.0,0.0,0.0,0.0,0.0,0.0,0.0,0.0,0.0,0.0,0.0,0.0,0.0,0.0,0.0,0.0,0.0,0.0,0.0,0.0,0.0,0.0,0.0,0.0,0.0,0.0,0.0,0.0,0.0,0.0,0.0,0.0,0.0,0.0,0.0,0.0,0.0,0.0,0.0,0.0,-2.7376,-2.7282,-2.7272,-2.7314,-2.7282,-2.7282,-2.7324,-2.7282,-2.7262,-2.7262,0.0,0.0,0.0,0.0,0.0,0.0,0.0,0.0,0.0,0.0,0.0,0.0,0.0,0.0,0.0,0.0,0.0,0.0,0.0,0.0,0.0,0.0,0.0,0.0,0.0,0.0,0.0,0.0,0.0,0.0,0.0,0.0,0.0,0.0,0.0,0.0,0.0,0.0,0.0,0.0,0.0,0.0,0.0,0.0,0.0,0.0,0.0,0.0,0.0,0.0,0.0,0.0,0.0,0.0,0.0,0.0,0.0,0.0,0.0,0.0,-1.9904,0.0,0.0,0.0,0.0,0.0,0.0,0.0,0.0,0.0,0.0,0.0,0.0,0.0,0.0,0.0,0.0,0.0,0.0,0.0,0.0,0.0,0.0,0.0,0.0,0.0,0.0,0.0,0.0,0.0,0.0,0.0,0.0,0.0,0.0,0.0,0.0,0.0,0.0,0.0,0.0,0.0,-2.779,-2.7479,-2.7396,-2.7738,-2.7469,-2.7396,-2.7759,-2.7458,-2.7262,-2.7262,-2.7262,0.0,0.0,0.0,0.0,0.0,0.0,0.0,0.0,0.0,0.0,0.0,0.0,0.0,0.0,0.0,0.0,0.0,0.0,0.0,0.0,0.0,0.0,0.0,0.0,0.0,0.0,0.0,0.0,0.0,0.0,0.0,0.0,0.0,0.0,0.0,0.0,0.0,0.0,0.0,0.0,0.0,0.0,0.0,0.0,0.0,0.0,0.0,0.0,0.0,0.0,0.0,0.0,0.0,0.0,0.0,0.0,0.0,0.0,0.0,0.0,-2.0282,0.0,0.0,0.0,0.0,0.0,0.0,0.0,0.0,0.0,0.0,0.0,0.0,0.0,0.0,0.0,0.0,0.0,0.0,0.0,0.0,0.0,0.0,0.0,0.0,0.0,0.0,0.0,0.0,0.0,0.0,0.0,0.0,0.0,0.0,0.0,0.0,0.0,0.0,0.0,0.0,-2.7955,-2.7728,-2.7665,-2.7903,-2.7914,-2.7914,-2.7924,-2.7717,-2.7489,-2.7272,-2.7262,0.0,0.0,0.0,0.0,0.0,0.0,0.0,0.0,0.0,0.0,0.0,0.0,0.0,0.0,0.0,0.0,0.0,0.0,0.0,0.0,0.0,0.0,0.0,0.0,0.0,0.0,0.0,0.0,0.0,0.0,0.0,0.0,0.0,0.0,0.0,0.0,0.0,0.0,0.0,0.0,0.0,0.0,0.0,0.0,0.0,0.0,0.0,0.0,0.0,0.0,0.0,0.0,0.0,-2.0287,-2.0307,-2.0307,-2.0361,-2.0388,-2.0381,-2.0625,-2.067,-2.0481,-2.1561,0.0,0.0,0.0,0.0,0.0,0.0,0.0,0.0,0.0,0.0,0.0,0.0,0.0,0.0,0.0,0.0,0.0,0.0,0.0,0.0,0.0,0.0,0.0,0.0,-2.893,-2.9343,-2.9774,0.0,0.0,0.0,0.0,0.0,0.0,0.0,0.0,0.0,0.0,0.0,-2.8214,-2.809,-2.8069,-2.8152,-2.8431,-2.8493,-2.8183,-2.8017,-2.7769,-2.7396,-2.7303,-2.7262,0.0,0.0,0.0,0.0,0.0,0.0,0.0,0.0,0.0,0.0,0.0,0.0,0.0,0.0,0.0,0.0,0.0,0.0,0.0,0.0,0.0,0.0,0.0,0.0,0.0,0.0,0.0,0.0,0.0,0.0,0.0,0.0,-1.8997,-1.8997,0.0,0.0,0.0,0.0,0.0,0.0,0.0,0.0,0.0,0.0,0.0,0.0,0.0,-2.0174,-2.0174,-2.0214,-2.0234,-2.0234,-2.0494,-2.0615,-2.0628,-2.0882,-2.0995,-2.0995,-2.0989,0.0,-2.1131,-2.2461,0.0,0.0,0.0,0.0,0.0,0.0,0.0,0.0,0.0,0.0,0.0,0.0,0.0,0.0,0.0,0.0,0.0,0.0,0.0,0.0,0.0,0.0,-2.8621,-2.8727,-2.9142,-2.9554,0.0,-2.9879,-2.9994,-2.9994,-2.9994,0.0,0.0,0.0,0.0,0.0,0.0,0.0,-2.9125,-2.8773,-2.868,-2.9073,-2.8814,-2.8752,-2.9094,-2.839,-2.7903,-2.7841,-2.7469,-2.7262,-2.7262,-2.7262,0.0,0.0,0.0,0.0,0.0,0.0,0.0,0.0,0.0,0.0,0.0,0.0,0.0,0.0,0.0,0.0,0.0,0.0,0.0,0.0,0.0,0.0,0.0,0.0,0.0,0.0,0.0,0.0,0.0,-1.912,-1.8997,-1.9127,-1.8997,-1.8874,0.0,0.0,0.0,0.0,0.0,0.0,0.0,0.0,0.0,-2.0234,-2.0394,-2.0481,-2.0481,-2.0641,-2.0808,-2.0975,-2.1109,-2.1169,-2.1182,-2.147,-2.151,-2.1356,-2.1356,-2.1956,-2.2799,-2.3467,-2.4356,-2.5604,0.0,0.0,0.0,0.0,-2.8208,-2.8291,-2.8291,-2.8291,-2.8291,-2.8291,0.0,0.0,0.0,0.0,0.0,0.0,0.0,0.0,0.0,0.0,-2.8504,-2.8824,-2.9142,-2.9448,-2.9774,-2.9889,-2.9994,0.0,-2.9994,-2.9994,-2.9994,0.0,0.0,0.0,0.0,-2.9301,-2.9301,-2.9125,-2.9073,-2.929,-2.9352,-2.9363,-2.9311,-2.8928,-2.8473,-2.7955,-2.7738,-2.7521,-2.7272,-2.7262,-2.7262,0.0,0.0,0.0,0.0,0.0,0.0,0.0,0.0,0.0,0.0,0.0,0.0,0.0,0.0,0.0,0.0,0.0,0.0,0.0,0.0,0.0,0.0,0.0,0.0,0.0,0.0,0.0,0.0,-1.912,-1.8997,-1.9243,-1.9004,-1.879,0.0,0.0,0.0,0.0,0.0,0.0,-2.0334,-2.0414,-2.0454,-2.0454,-2.0668,-2.0788,-2.0788,-2.1002,-2.1223,-2.1436,-2.1436,-2.1436,-2.1443,-2.1663,-2.1643,-2.1436,-2.1436,-2.244,-2.391,-2.4409,-2.5723,-2.7759,-2.8606,-2.9068,-2.9228,-2.9254,-2.8984,-2.8603,-2.8496,-2.8447,-2.8437,-2.833,-2.8291,-2.8291,-2.8291,0.0,0.0,0.0,0.0,-2.8291,-2.8291,-2.8398,-2.8504,-2.893,-2.9132,-2.9343,-2.9774,-2.9994,-2.9994,0.0,-2.9994,-2.9994,-2.9994,0.0,0.0,0.0,0.0,-2.9477,-2.9477,-2.9477,-2.9477,-2.9477,-2.9787,-2.986,-2.9508,-2.9373,-2.9011,-2.8317,-2.8059,-2.7769,-2.7438,-2.7324,-2.7262,-2.7262,0.0,0.0,0.0,0.0,0.0,0.0,0.0,0.0,0.0,0.0,0.0,0.0,0.0,0.0,0.0,0.0,0.0,0.0,0.0,0.0,0.0,0.0,0.0,0.0,0.0,0.0,0.0,0.0,0.0,-1.8881,-1.8648,0.0,0.0,0.0,0.0,-2.0066,-2.0474,-2.0641,-2.0655,-2.0915,-2.1062,-2.1062,-2.1082,-2.1089,-2.1089,-2.1102,-2.1116,-2.1129,-2.1129,-2.1129,-2.1129,-2.1149,-2.1149,-2.1129,-2.1129,-2.2118,-2.372,-2.5261,-2.6114,-2.6849,-2.9639,-2.9745,-2.8529,-2.968,-2.9863,-2.9443,-2.9033,-2.8887,-2.8818,-2.8418,-2.8291,-2.8291,-2.8291,-2.8291,0.0,0.0,-2.8291,-2.8291,-2.8291,-2.8514,-2.8737,-2.8727,-2.9142,-2.9554,-2.9659,-2.9774,-2.9994,0.0,-2.9994,-2.9994,-2.9994,0.0,-2.9994,-2.9994,-2.9973,-2.9953,-2.9953,-2.9953,-2.9953,-2.9953,-2.9984,-2.9984,-2.9963,-2.9559,-2.929,-2.9239,-2.8411,-2.7914,-2.7893,-2.7479,-2.7262,-2.7262,-2.7262,0.0,0.0,0.0,0.0,0.0,0.0,0.0,0.0,0.0,0.0,0.0,0.0,0.0,0.0,0.0,0.0,0.0,0.0,0.0,0.0,0.0,0.0,0.0,0.0,0.0,0.0,0.0,0.0,-1.8874,-1.8809,0.0,-1.9067,-1.9361,-1.9709,-1.9866,-2.0532,-2.083,-2.0711,-2.1109,-2.1303,-2.1116,-2.1109,-2.1109,-2.1109,-2.1109,-2.1203,-2.1396,-2.1396,-2.1396,-2.1403,-2.159,-2.2073,-2.2631,-2.2631,-2.4124,-2.6462,-2.7081,-2.7469,-2.7949,-3.003,-3.0364,-2.9613,-3.0081,-2.9932,-2.9551,-2.9394,-2.9336,-2.9316,-2.916,-2.9121,-2.9062,-2.8779,-2.8701,-2.8643,-2.8369,-2.8291,-2.8291,-2.8514,-2.8631,-2.8834,-2.9142,-2.9448,-2.9669,-2.9774,-2.9889,-2.9994,-2.9994,-2.9994,-2.9994,-2.9994,-2.9994,-2.9994,-2.9994,-2.9994,-2.9994,-2.9994,-2.9994,-2.9994,-2.9994,-2.9994,-2.9994,-2.9994,-2.9849,-2.9622,-2.9321,-2.9001,-2.8545,-2.7945,-2.7769,-2.7552,-2.7272,-2.7262,-2.7904,0.0,0.0,0.0,0.0,0.0,0.0,0.0,0.0,0.0,0.0,0.0,0.0,0.0,0.0,0.0,0.0,0.0,0.0,0.0,0.0,0.0,0.0,0.0,0.0,0.0,0.0,-1.9141,-1.9141,-1.9166,-1.926,-1.9477,-1.9659,-1.9885,-2.0164,-2.0617,-2.0862,-2.0736,-2.1168,-2.1309,-2.1116,-2.1109,-2.1109,-2.1109,-2.1109,-2.1209,-2.1403,-2.1403,-2.1403,-2.141,-2.1603,-2.2337,-2.3391,-2.3391,-2.475,-2.7085,-2.7712,-2.8206,-2.8545,-3.0274,-3.0703,-3.043,-3.043,-3.0254,-3.0,-2.9834,-2.9687,-2.957,-2.957,-2.957,-2.9512,-2.9228,-2.9141,-2.9082,-2.8799,-2.8721,-2.8829,-2.9065,-2.9173,-2.9379,-2.9896,-3.012,-3.0237,-3.046,-3.046,-3.046,-3.046,-3.0212,-2.9994,-2.9994,-2.9994,-2.9994,-2.9994,-2.9994,-2.9994,-2.9994,-2.9994,-2.9994,-2.9994,-2.9994,-2.9994,-2.9994,-2.9994,-2.986,-2.9559,-2.9394,-2.8959,-2.8183,-2.8007,-2.7717,-2.7272,-2.7977,-2.8702,-2.9338,0.0,0.0,0.0,0.0,0.0,0.0,0.0,0.0,0.0,0.0,0.0,0.0,0.0,0.0,0.0,0.0,0.0,0.0,0.0,0.0,0.0,0.0,0.0,-1.9379,-1.9626,-1.9806,-1.9813,-1.9839,-2.0007,-2.0648,-2.0054,-2.0171,-2.0963,-2.0742,-2.0742,-2.1109,-2.1116,-2.1122,-2.1109,-2.1109,-2.1109,-2.1109,-2.1109,-2.1109,-2.1109,-2.1109,-2.1109,-2.1109,-2.1109,-2.1846,-2.3076,-2.3201,-2.4054,-2.5635,-2.7366,-2.8206,-2.8664,-3.0265,-3.0889,-3.0889,-3.0889,-3.0889,-3.083,-3.0371,-2.9951,-2.9609,-2.9609,-2.9609,-2.9609,-2.959,-2.959,-2.959,-2.957,-2.957,-2.9682,-2.9915,-3.0258,-3.058,-3.0891,-3.1131,-3.1381,-3.1381,-3.1381,-3.1381,-3.1381,-3.0657,-3.0036,-3.0036,-3.0036,-3.0036,-3.0015,-3.0015,0.0,-2.9994,-2.9994,-2.9994,-2.9994,-2.9994,-2.9994,-2.9994,-2.9994,-2.9994,-2.9994,-2.957,-2.9114,-2.8649,-2.8193,-2.7728,-2.7367,-2.9418,-3.0485,-3.0496,0.0,0.0,0.0,0.0,0.0,0.0,0.0,0.0,0.0,0.0,0.0,0.0,0.0,0.0,0.0,0.0,0.0,0.0,0.0,0.0,0.0,-1.9546,-1.9679,-1.9679,-1.9746,-1.9761,-1.9859,-2.0021,-2.01,-2.0303,-2.0367,-2.0524,-2.0729,-2.1054,-2.1215,-2.0742,-2.1188,-2.1329,-2.1116,-2.1109,-2.1109,-2.1109,-2.1109,-2.1109,-2.1109,-2.1109,-2.1109,-2.1109,-2.1109,-2.1846,-2.3201,-2.407,-2.5407,-2.7108,-2.8701,-2.9549,-2.9893,-3.0645,-3.0889,-3.0889,-3.0889,-3.0889,-3.0869,-3.0742,-3.0625,-3.0527,-3.0527,-3.0527,-3.0469,-3.0127,-3.0029,-2.9961,-2.9658,-2.957,-2.9682,-3.0248,-3.047,-3.058,-3.1141,-3.1371,-3.1381,-3.1381,-3.1381,-3.1381,-3.1381,-3.1174,-3.0998,-3.0998,-3.0998,-3.0884,-3.0553,-3.0501,0.0,-3.0036,-2.9994,-2.9994,-2.9994,-2.9994,-2.9994,-2.9994,-2.9994,-2.9994,-2.9994,-3.0276,-2.9982,-2.9135,-2.9069,-2.8644,-2.782,-2.9875,-3.1033,0.0,0.0,0.0,0.0,0.0,0.0,0.0,0.0,0.0,0.0,0.0,0.0,0.0,0.0,0.0,0.0,0.0,0.0,0.0,0.0,0.0,0.0,-1.9686,-1.9887,-2.0134,-2.0167,-2.0234,-2.0163,-2.0316,-2.0361,-2.0612,-2.0511,-2.0482,-2.0729,-2.1014,-2.1041,-2.0869,-2.1148,-2.1289,-2.1116,-2.1109,-2.1109,-2.1109,-2.1109,-2.1109,-2.1109,-2.1109,-2.1109,-2.1109,-2.1727,-2.2709,-2.3938,-2.5301,-2.6875,-2.8582,-2.9558,-3.0167,0.0,0.0,0.0,0.0,0.0,-3.0889,-3.0889,-3.0889,-3.0889,-3.0889,-3.0889,-3.0889,-3.084,-3.0566,-3.0488,-3.043,-3.0185,-3.0117,-3.0241,-3.0684,-3.0797,-3.1023,-3.1595,-3.1828,-3.1828,-3.194,-3.194,-3.194,-3.194,-3.194,0.0,-3.194,-3.1629,-3.1288,-3.1019,-3.0977,-3.0801,-3.0346,-3.0284,-3.0212,-3.0015,-2.9994,-2.9994,-2.9994,-2.9994,0.0,0.0,0.0,-3.0078,-2.9321,-2.9377,0.0,0.0,0.0,-3.1488,-3.1753,0.0,0.0,0.0,-3.3161,-3.2978,0.0,0.0,0.0,0.0,0.0,0.0,0.0,0.0,0.0,0.0,0.0,0.0,0.0,0.0,0.0,0.0,-1.9887,-2.0114,-2.0608,-2.0735,-2.0762,-2.0728,-2.0704,-2.0736,-2.1109,-2.0609,-2.0488,-2.1109,-2.0856,-2.0736,-2.1109,0.0,0.0,0.0,0.0,-2.1109,-2.1109,-2.1109,-2.1109,-2.1109,-2.1109,-2.1229,-2.1355,-2.2584,-2.3822,-2.5056,-2.6407,-2.7984,-2.9558,-2.9804,-3.0284,-3.0889,-3.0889,-3.0889,-3.0889,-3.0889,-3.0889,-3.0889,-3.0889,0.0,0.0,-3.0889,-3.0889,-3.0889,-3.0889,-3.0889,-3.0889,-3.0889,-3.0889,-3.1005,-3.1218,-3.1325,-3.1556,-3.2133,-3.2363,-3.2373,-3.2612,-3.2727,-3.2727,-3.2727,-3.2727,-3.2727,-3.2727,-3.2064,-3.1516,-3.1464,-3.1454,-3.1288,-3.0822,-3.0719,-3.0532,-3.0118,0.0,0.0,-2.9994,-2.9994,-2.9994,-2.9994,-3.0099,-2.9881,-2.9526,-2.9601,-2.9789,-2.988,-3.1176,-3.2086,-3.2636,-3.3449,-3.3777,-3.3713,-3.3471,-3.324,0.0,0.0,0.0,0.0,0.0,0.0,0.0,0.0,0.0,0.0,0.0,0.0,0.0,0.0,0.0,-1.9786,-2.0394,-2.0815,-2.0695,-2.1089,-2.1296,-2.1056,-2.0949,-2.0982,-2.1109,-2.0982,-2.0982,-2.1109,-2.0982,-2.0982,-2.1109,-2.1109,-2.1109,-2.1109,-2.1109,-2.1109,-2.1109,-2.1109,-2.1109,-2.1109,0.0,0.0,-2.2709,-2.2952,-2.3822,-2.5056,-2.6407,-2.7263,-2.7624,-2.9194,-3.0284,-3.0889,-3.0889,-3.0889,-3.0889,-3.0889,-3.0889,-3.0889,-3.0889,-3.0889,-3.0889,-3.0889,-3.0889,-3.0889,-3.0889,-3.0889,0.0,-3.0889,-3.0889,-3.1005,-3.1218,-3.1441,-3.1787,-3.2248,-3.2487,-3.2612,-3.2737,-3.2727,-3.2727,-3.2727,-3.2727,-3.2727,-3.2727,-3.2582,-3.2344,-3.1971,-3.1909,-3.1754,-3.1298,-3.0915,-3.0657,-3.0563,-3.0222,-2.9994,-2.9994,-2.9994,-2.9994,-2.9994,-3.0391,-3.0583,-3.0619,-3.102,-3.1136,-3.0722,-3.2554,-3.3306,-3.299,-3.4132,-3.4345,-3.3713,-3.3313,-3.3154,0.0,0.0,0.0,0.0,0.0,0.0,0.0,0.0,0.0,0.0,0.0,-2.0888,0.0,0.0,-1.9947,-2.0388,-2.0702,-2.0942,-2.1096,-2.1243,-2.1276,-2.1129,-2.0982,-2.0856,-2.1109,-2.0982,-2.0856,-2.1109,-2.1109,-2.1109,-2.1109,-2.1109,-2.1109,-2.1109,-2.1109,-2.1109,-2.1109,-2.1109,-2.1109,-2.1109,-2.172,-2.2459,-2.3201,-2.4432,-2.5415,-2.6042,-2.7383,-2.8113,-2.8352,-2.9677,-3.0401,-3.0889,-3.0889,-3.0889,-3.0889,-3.0889,-3.0889,-3.0889,-3.0889,-3.0889,-3.0889,-3.0889,-3.0889,-3.0889,-3.0889,-3.0889,-3.0889,-3.0889,-3.0889,-3.0889,-3.1112,-3.1228,-3.145,-3.1903,-3.2143,-3.2373,-3.2612,-3.2727,-3.2727,-3.2727,-3.2727,-3.2727,-3.2727,-3.2727,-3.2654,-3.2426,-3.2385,-3.2219,-3.1774,-3.1505,-3.1195,-3.0739,-3.0481,-3.0253,-3.0015,-2.9994,-2.9994,-2.9994,-3.0806,-3.0998,-3.0466,-3.1716,-3.2351,-3.2076,-3.3494,-3.4435,-3.4616,-3.4994,-3.494,-3.4584,-3.406,-3.3608,0.0,0.0,0.0,0.0,0.0,0.0,0.0,-2.2972,-2.2666,-2.1677,-2.1481,-2.1342,-2.0337,-2.0012,-2.0201,-2.0909,-2.0929,-2.0989,-2.141,-2.1309,-2.1176,-2.1116,-2.0862,-2.0862,-2.1109,-2.0862,-2.0862,-2.1109,-2.1109,-2.1109,-2.1109,-2.1109,-2.1109,-2.1109,-2.1109,-2.1109,-2.1109,-2.1355,-2.1481,-2.1475,-2.2834,-2.3566,-2.3938,-2.6034,-2.7142,-2.7504,-2.8489,-2.9213,-2.9568,-3.0147,-3.0518,-3.0889,-3.0889,-3.0889,-3.0889,-3.0889,-3.0889,-3.0889,-3.0889,-3.0889,-3.0889,-3.0889,-3.0889,-3.0889,-3.0889,-3.0889,-3.0889,-3.0889,-3.0889,-3.0869,-3.0781,-3.0878,-3.108,-3.1441,-3.165,-3.1879,-3.2354,-3.2468,-3.2489,-3.2582,-3.2602,-3.2623,-3.2716,-3.2727,-3.2727,-3.2727,-3.2727,-3.2602,-3.2219,-3.2095,-3.1754,-3.1029,-3.0791,-3.0501,-3.0036,-2.9994,-2.9994,-3.0193,-3.1116,-3.1219,-3.0297,-3.2139,-3.3188,-3.3238,-3.4174,-3.5108,-3.609,-3.5762,-3.5545,-3.5353,-3.4906,-3.4186,-2.6572,-2.612,-2.5732,-2.5538,-2.4529,-2.3926,0.0,-2.4787,-2.4067,-2.4234,-2.3642,-2.2752,-2.1642,-2.0939,-2.0608,-2.0708,-2.1136,-2.1383,-2.1189,-2.1356,-2.1403,-2.1142,-2.1109,-2.1109,-2.1109,-2.1109,-2.1109,-2.1109,-2.1109,-2.1109,-2.1109,-2.1109,-2.1109,-2.1109,-2.1109,-2.1109,-2.1109,-2.2341,-2.2827,-2.2952,-2.4193,-2.5423,-2.6529,-2.6892,-2.7633,-2.8737,-2.8984,-2.934,-2.9804,-2.9922,-3.0284,-3.0889,-3.0889,-3.0889,-3.0889,-3.0889,-3.0889,-3.0889,-3.0889,-3.0889,-3.0889,-3.0889,-3.0889,-3.0889,-3.0889,-3.0889,-3.0889,-3.0889,-3.0889,-3.0801,-3.0381,-3.074,-3.098,-3.0711,-3.1074,-3.1416,-3.1526,-3.1536,-3.165,-3.2043,-3.2116,-3.225,-3.2664,-3.2727,-3.2727,-3.2727,-3.2727,-3.2716,-3.2664,-3.2302,-3.2002,-3.1899,-3.1164,-3.0501,-3.0036,-2.9994,-3.0193,-3.0692,-3.1311,-3.1527,-3.1424,-3.2162,-3.2821,-3.3505,-3.4316,-3.5116,-3.5874,-3.6082,-3.5917,-3.5353,-3.4906,-3.4399,-2.64,-2.6014,-2.5742,-2.5742,-2.5516,-2.5386,-2.5635,-2.5674,-2.5475,-2.4594,-2.446,-2.4007,-2.212,-2.1818,-2.163,0.0,-2.1249,-2.1309,-2.1363,-2.1323,-2.1249,-2.1122,-2.1109,-2.1109,-2.1109,-2.1109,-2.1109,-2.1109,-2.1109,-2.1109,-2.1109,-2.1109,-2.1109,-2.1109,-2.1109,-2.1475,-2.2215,-2.209,-2.2709,-2.4186,-2.481,-2.5668,-2.7021,-2.7753,-2.8489,-2.8984,-2.8984,-2.9213,-2.9686,-2.9804,-3.0167,-3.0635,-3.0772,-3.0889,-3.0889,-3.0889,-3.0889,-3.0889,-3.0889,-3.0889,-3.0889,-3.0889,-3.0889,-3.0889,-3.0889,-3.0889,-3.083,-3.0566,-3.0488,-3.0391,-2.9941,-3.0171,-3.0478,-3.051,-3.0801,-3.1131,-3.1371,-3.1381,-3.1433,-3.1619,-3.165,-3.1712,-3.1909,-3.194,-3.194,-3.194,-3.2395,-3.2727,-3.2727,-3.2561,-3.224,-3.1712,-3.1071,-3.0501,-3.0036,-2.9994,-3.0099,-3.0287,-3.1105,-3.1322,-3.0703,-3.242,-3.3499,-3.3749,-3.5029,-3.6113,-3.7051,-3.7051,-3.6831,-3.6404,-3.6037,-3.547,-2.6197,-2.6005,-2.5918,-2.5918,-2.6141,-2.6381,-2.5971,-2.6267,-2.6305,-2.511,-2.5181,-2.4984,-2.3363,-2.3165,-2.3002,-2.2109,-2.1871,-2.1556,-2.1524,-2.1243,-2.1109,-2.1109,-2.1109,-2.1109,-2.1109,-2.1109,-2.1109,-2.1109,-2.1109,-2.1109,-2.1109,-2.1109,-2.1109,-2.1109,-2.1109,-2.1601,-2.2584,-2.2341,-2.3084,-2.5056,-2.579,-2.665,-2.7633,-2.8609,-2.8984,-2.8984,-2.8984,-2.9213,-2.9686,-2.9804,-3.0157,-3.0518,-3.0772,-3.0889,-3.0889,-3.0889,-3.0889,-3.0889,-3.0889,-3.0889,-3.0889,-3.0889,-3.0889,-3.0889,-3.0889,-3.0801,-3.0635,-3.0293,-3.0107,-2.9932,-2.9502,-2.9616,-2.9928,-3.0138,-3.0425,-3.0751,-3.0988,-3.0998,-3.1029,-3.1164,-3.1184,-3.1226,-3.135,-3.1381,-3.1381,-3.1381,-3.194,-3.2406,-3.252,-3.2654,-3.2426,-3.165,-3.1143,-3.0688,-3.0222,-3.0067,-3.0099,-3.0193,-3.0899,-3.1116,-3.0505,-3.2521,-3.3796,-3.4119,-3.551,-3.6709,-3.79,-3.7611,-3.74,-3.7108,-3.6815,-3.6319,-2.61,-2.6232,-2.6367,-2.6367,-2.6478,-2.6576,-2.6693,-2.6586,-2.6398,-2.649,-2.616,-2.575,-2.5642,-2.5291,-2.4556,-2.3208,-2.3084,-2.2584,-2.1242,-2.1116,-2.1109,-2.1109,-2.1109,-2.1109,0.0,-2.1109,-2.1109,-2.1109,-2.1109,-2.1109,-2.1109,-2.1109,-2.1109,-2.1109,-2.1109,-2.1109,-2.1109,-2.3698,-2.4933,-2.5056,-2.7633,-2.8865,-2.8984,-2.8984,-2.8984,-2.8984,-2.8984,-2.934,-2.9931,-2.9922,-3.0284,-3.0889,-3.0889,-3.0889,-3.0889,-3.0889,-3.0889,-3.0889,-3.0889,-3.0889,-3.0889,-3.0889,-3.0889,-3.0889,-3.0889,-3.0576,-3.0215,-3.0205,-2.9902,-2.9482,-2.9053,-2.9382,-2.9715,-2.9273,-2.9605,-3.0036,-3.0036,-3.0036,-3.017,-3.0615,-3.0708,-3.0853,-3.1298,-3.1381,-3.1381,-3.1381,-3.1402,-3.1578,-3.2002,-3.2457,-3.2551,-3.2075,-3.1619,-3.1174,-3.0708,-3.0253,-3.0193,-3.0785,-3.0795,-3.1002,-3.1527,-3.242,-3.3388,-3.4642,-3.5498,-3.6577,-3.79,-3.7611,-3.74,-3.7108,-3.6815,-3.6615,-2.6182,-2.6369,-2.6455,-2.6738,-2.7026,-2.7263,-2.7084,-2.7015,-2.7046,-2.6862,-2.6964,-2.6823,-2.5998,-2.6143,-2.5912,-2.4556,-2.4317,-2.3938,-2.2584,-2.2459,-2.209,-2.1235,-2.1109,0.0,0.0,0.0,0.0,-2.1109,-2.1109,-2.1109,-2.1109,-2.1109,-2.1481,-2.2341,-2.1601,-2.244,-2.5381,-2.4531,-2.5397,-2.8122,-2.8736,-2.8984,-2.8984,-2.8984,-2.8984,-2.8984,-2.8984,-2.9103,-2.9331,-2.9686,-3.0039,-3.0284,-3.0772,-3.0889,-3.0889,-3.0889,-3.0889,-3.0889,-3.0889,-3.0889,-3.0889,-3.0889,-3.0889,-3.0889,-3.0889,-3.0781,-3.0537,-2.9941,-2.9678,-2.9404,-2.8691,-2.8828,-2.912,-2.9066,-2.9448,-2.9774,-2.9994,-2.9994,-3.0046,-3.0191,-3.0232,-3.0284,-3.0429,-3.046,-3.0563,-3.0874,-3.1184,-3.1433,-3.1578,-3.1733,-3.1661,-3.1195,-3.1008,-3.0729,-3.0263,-3.0087,-3.0099,-3.0297,-3.0909,-3.1208,-3.1105,-3.2901,-3.4178,-3.4642,-3.5821,-3.6909,-3.79,-3.7808,-3.7505,-3.7108,-3.7201,-3.7015,-2.6309,-2.6611,-2.6914,-2.7178,-2.7568,-2.7775,-2.7545,-2.7447,-2.7323,-2.7098,-2.7419,-2.7528,-2.6708,-2.7226,-2.7263,-2.5912,-2.5668,-2.5293,-2.3938,-2.345,-2.2827,-2.1971,-2.1355,-2.1109,0.0,0.0,0.0,-2.1109,-2.1109,-2.1109,-2.1109,-2.1109,-2.172,-2.3076,-2.1956,-2.3102,-2.6943,-2.5321,-2.6194,-2.9571,-2.9314,-2.9122,-2.8984,-2.8984,-2.8984,-2.8984,-2.8984,-2.9103,-2.9213,-2.9686,-2.9922,-3.0157,-3.0645,-3.0889,-3.0889,-3.0889,-3.0889,-3.0889,-3.0889,-3.0889,-3.0889,-3.0889,-3.0889,-3.0889,-3.0889,-3.0771,-3.0488,-2.9775,-2.9453,-2.918,-2.8476,-2.8514,-2.8727,-2.9036,-2.9343,-2.9659,-2.9994,-2.9994,-2.9994,-2.9994,-2.9994,-2.9994,-2.9994,-2.9994,-3.0098,-3.0398,-3.0698,-3.0998,-3.134,-3.1381,-3.1267,-3.0967,-3.0791,-3.0563,-3.0263,-3.0287,-3.0297,-3.0297,-3.1116,-3.1618,-3.179,-3.3575,-3.4751,-3.5426,-3.6521,-3.7413,-3.79,-3.79,-3.7703,-3.7214,-3.7413,-3.7307,-2.6435,-2.7041,-2.7666,-2.7695,-2.7998,-2.8184,-2.796,-2.7638,-2.7323,-2.7098,-2.7428,-2.7765,0.0,0.0,-2.8609,-2.7263,-2.7134,-2.665,-2.5301,-2.4062,-2.3193,0.0,0.0,0.0,0.0,0.0,0.0,-2.1109,0.0,-2.1109,-2.1109,-2.1109,-2.1859,-2.3223,-2.2278,-2.3213,-2.5886,-2.6207,-2.7462,-2.9599,-2.958,-2.936,-2.8984,-2.8984,-2.8984,-2.8984,-2.8984,-2.9213,-2.944,-2.9804,-3.0039,-3.0392,-3.0762,-3.0889,-3.0889,-3.0889,-3.0889,-3.0889,-3.0889,-3.0889,-3.0889,-3.0889,-3.0889,-3.0889,-3.0889,-3.0586,-3.0137,-2.9697,-2.9277,-2.8848,-2.8408,-2.8514,-2.8727,-2.9026,-2.9343,-2.9669,-2.9889,-2.9994,-2.9994,-2.9994,-2.9994,-2.9994,-2.9994,-2.9994,-2.9994,-2.9994,-2.9994,-3.0315,-3.1195,-3.1309,-3.1309,-3.1309,-3.0915,-3.0646,-3.0646,-3.0748,-3.0785,-3.0785,-3.1311,-3.2218,-3.3499,-3.4362,-3.5343,-3.6709,-3.7505,-3.79,-3.79,-3.79,-3.7795,-3.7505,-3.7505,-3.7413,-2.7168,-2.75,-2.7744,-2.8057,-2.8213,-2.8291,-2.8184,-2.7745,-2.7431,-2.7314,-2.754,-2.7765,-2.7765,-2.8434,0.0,-2.8489,-2.8489,0.0,-2.665,-2.6156,0.0,-2.3318,-2.2834,-2.2215,-2.1235,-2.1109,0.0,0.0,-2.1109,-2.1109,-2.1109,-2.209,-2.3311,-2.4937,-2.4779,-2.6205,-2.9438,-2.9545,-2.9789,-3.0039,-2.9718,-2.936,-2.8984,-2.8984,-2.8984,-2.8984,-2.8984,-2.9103,-2.9213,-2.9695,-2.9922,-3.0049,-3.0645,-3.0889,-3.0889,-3.0889,-3.0889,-3.0889,-3.0889,-3.0889,-3.0889,-3.0889,-3.0889,-3.0889,-3.0889,-3.081,-3.0557,-2.9785,-2.9482,-2.9228,-2.8486,-2.8398,-2.8514,-2.8727,-2.9036,-2.9343,-2.9659,-2.9879,-2.9994,-2.9994,-2.9994,-2.9994,-2.9994,-2.9994,-2.9994,-2.9994,-2.9994,-3.0087,-3.0315,-3.0346,-3.0346,-3.0346,-3.0243,-3.017,-3.017,-3.0161,-3.0391,-3.0785,-3.1311,-3.2218,-3.3499,-3.4775,-3.575,-3.6709,-3.7505,-3.79,-3.79,-3.79,-3.7795,-3.7505,-3.7703,-3.7611,-2.748,-2.7803,-2.7998,-2.8232,-2.8291,-2.8291,-2.8291,-2.7862,-2.7431,-2.7431,-2.7651,-2.7765,-2.7765,-2.8434,-2.8984,0.0,0.0,0.0,-2.8002,-2.7383,-2.6399,0.0,-2.4309,-2.3698,-2.2834,-2.2834,-2.2834,0.0,-2.1727,-2.1355,-2.1971,-2.2846,-2.4375,-2.6446,-2.6246,-2.7449,-3.0125,-3.062,-3.0589,-3.0195,-2.9773,-2.936,-2.8984,-2.8984,-2.8984,-2.8984,0.0,-2.9103,-2.9213,-2.9686,-3.0039,-3.0157,-3.0655,-3.0889,-3.0889,-3.0889,-3.0889,-3.0889,-3.0889,-3.0889,-3.0889,-3.0889,-3.0889,-3.0889,-3.0889,-3.0889,-3.0703,-2.9814,-2.957,-2.9375,-2.8516,-2.8291,-2.8408,-2.8621,-2.893,-2.9237,-2.9554,-2.9774,-2.9994,-2.9994,-2.9994,-2.9994,-2.9994,-2.9994,-2.9994,-2.9994,-2.9994,-2.9994,-2.9994,-2.9994,-2.9994,-2.9994,-2.9994,-3.0099,-3.0287,-3.0599,-3.0909,-3.1494,-3.2026,-3.3035,-3.4385,-3.5174,-3.6143,-3.7214,-3.7703,-3.79,-3.79,-3.79,-3.7808,-3.7703,-3.7808,-3.7808,-2.7637,-2.8018,-2.8291,-2.8291,-2.8291,-2.8291,-2.8291,-2.7862,-2.7431,-2.7431,-2.7651,-2.7765,-2.7765,-2.8434,-2.8984,-2.8984,0.0,-2.8984,-2.8984,-2.8002,-2.7142,-2.7013,-2.5912,-2.5178,-2.5056,-2.5056,-2.5056,-2.5056,-2.3003,-2.2279,-2.3384,-2.3918,-2.5368,-2.7963,-2.7577,-2.793,-2.9457,-3.0256,-3.0516,-3.0112,-2.9745,-2.936,-2.8984,-2.8984,-2.8984,-2.8984,-2.8984,-2.9213,-2.9558,-2.9804,-3.0157,-3.0392,-3.0762,-3.0889,-3.0889,-3.0889,-3.0889,-3.0889,-3.0889,-3.0889,-3.0889,-3.0889,-3.0889,-3.0889,-3.0889,-3.0889,-3.0703,-2.9814,-2.957,-2.9375,-2.8516,-2.8291,-2.8408,-2.8621,-2.893,-2.9237,-2.9554,-2.9774,-2.9994,-2.9994,-2.9994,-2.9994,-2.9994,-2.9994,-2.9994,-2.9994,-2.9994,-2.9994,-2.9994,-2.9994,-2.9994,-2.9994,-2.9994,-3.0193,-3.0692,-3.1208,-3.1721,-3.2207,-3.2946,-3.404,-3.5571,-3.5667,-3.6439,-3.79,-3.79,-3.79,-3.79,-3.79,-3.79,-3.79,-3.79,-3.79,-2.8066,-2.8232,-2.8291,-2.8291,-2.8291,-2.8291,-2.8291,-2.7862,-2.7431,-2.7431,-2.7651,-2.7765,-2.7765,-2.8434,-2.8984,-2.8984,-2.8984,-2.8984,-2.8984,-2.8856,-2.8241,0.0,-2.6771,-2.6277,-2.5056,-2.5056,0.0,0.0,-2.4953,-2.4984,-2.5235,-2.6289,-2.7976,-3.0166,-3.0194,-3.0166,-3.0502,-3.0372,-3.0094,-2.9681,-2.9608,-2.936,-2.8984,-2.8984,-2.8984,-2.8984,-2.8984,0.0,-2.9558,-2.9804,-3.0157,-3.0392,-3.0762,-3.0889,-3.0889,-3.0889,-3.0889,-3.0889,-3.0889,-3.0889,-3.0889,-3.0889,-3.0889,-3.0889,-3.0889,-3.0889,-3.0703,-2.9814,-2.957,-2.9375,-2.8516,-2.8291,-2.8408,-2.8621,-2.893,-2.9237,-2.9554,-2.9774,-2.9994,-2.9994,-2.9994,-2.9994,-2.9994,-2.9994,-2.9994,-2.9994,-2.9994,-2.9994,-2.9994,-2.9994,-2.9994,-2.9994,-2.9994,-2.9994,-3.0088,-3.0599,-3.1208,-3.1721,-3.2912,-3.4201,-3.5571,-3.6143,-3.6922,-3.79,-3.79,-3.79,-3.79,-3.79,-3.79,-3.79,-3.79,-3.79,-2.8174,-2.8291,-2.8291,-2.8291,-2.8291,-2.8291,-2.8291,-2.7862,-2.7431,-2.7431,-2.7651,-2.7765,-2.7765,-2.8434,-2.8984,-2.8984,-2.8984,-2.8984,-2.8984,-2.8984,-2.8737,-2.8122,-2.8002,-2.7753,-2.7142,-2.7134,-2.7134,-2.7134,-2.7306,-2.7165,-2.6421,-2.7835,-2.9214,-3.0461,-3.0488,-3.0488,-3.0488,-3.0075,-2.9773,-2.9571,-2.936,-2.9168,-2.8984,-2.8984,-2.8984,-2.8984,-2.8984,-2.9222,-2.9686,-2.9804,-3.0167,-3.0645,-3.0889,-3.0889,-3.0889,-3.0889,-3.0889,-3.0889,-3.0889,-3.0889,-3.0889,-3.0889,-3.0889,-3.0889,-3.0889,-3.0723,-3.0391,-2.9756,-2.9404,-2.9092,-2.8457,-2.8291,-2.8291,-2.8514,-2.8824,-2.9237,-2.9669,-2.9889,-2.9994,-2.9994,-2.9994,-2.9994,-2.9994,-2.9994,-2.9994,-2.9994,-2.9994,-2.9994,-2.9994,-2.9994,-2.9994,-2.9994,-2.9994,-3.0193,-3.0817,-3.1105,-3.171,-3.3001,-3.3697,-3.4678,-3.6143,-3.6521,-3.7108,-3.79,-3.79,-3.79,-3.79,-3.79,-3.79,-3.79,-3.79,-3.79,-2.8203,-2.8291,-2.8291,-2.8291,-2.8291,-2.8291,-2.8291,-2.7862,-2.7558,-2.7545,-2.7707,-2.7906,-2.7884,-2.8498,-2.8984,-2.8984,-2.8984,-2.8984,-2.8984,-2.8984,-2.8984,-2.8984,-2.8984,0.0,-2.8984,-2.8984,0.0,-2.8984,-2.8984,-2.8535,-2.7626,-2.8985,-2.9855,-3.0195,-3.0112,-3.0066,-3.0066,-2.9654,-2.9443,-2.9443,-2.9131,-2.8984,-2.8984,-2.8984,-2.8984,-2.8984,-2.8984,-2.934,-2.9922,-2.9922,-3.0284,-3.0889,-3.0889,-3.0947,-3.1016,-3.0928,-3.0947,-3.1016,-3.0918,-3.0889,-3.0889,-3.0889,-3.0889,-3.0889,-3.0889,-3.0566,-3.0107,-2.9687,-2.9258,-2.8818,-2.8398,-2.8291,-2.8291,-2.8398,-2.8814,-2.9343,-2.9889,-2.9994,-2.9994,-2.9994,-2.9994,-2.9994,-2.9994,-2.9994,-2.9994,-2.9994,-2.9994,-2.9994,-2.9994,-2.9994,-2.9994,-2.9994,-2.9994,-3.0297,-3.1219,-3.1424,-3.2308,-3.3993,-3.4385,-3.5259,-3.6615,-3.6909,-3.7214,-3.79,-3.79,-3.79,-3.79,-3.79,-3.79,-3.79,-3.79,-3.79,-2.8281,-2.8291,-2.8291,-2.8291,-2.8291,-2.8291,-2.8291,-2.8077,-2.7851,-2.7905,-2.8015,-2.8227,-2.8269,-2.8691,-2.8984,-2.8984,-2.8984,-2.8984,-2.8984,-2.8984,-2.8984,-2.8984,0.0,0.0,-2.8984,-2.8984,-2.8984,-2.8984,-2.8984,-2.914,-2.9368,-2.991,-3.0158,-3.0204,-2.9828,-2.9626,-2.9626,-2.9232,-2.9039,-2.9039,-2.9003,-2.8984,-2.8984,-2.8984,-2.8984,-2.8984,-2.8984,-2.934,0.0,-2.9922,-3.0284,-3.0889,-3.0889,-3.1123,-3.1416,-3.1035,-3.1133,-3.1406,-3.1025,-3.0889,-3.0889,-3.0889,-3.0889,-3.0889,-3.0889,-3.0566,-3.0107,-2.9687,-2.9258,-2.8818,-2.8398,-2.8291,-2.8398,-2.892,-2.9343,-2.9669,-2.9994,-2.9994,-2.9994,-2.9994,-2.9994,-2.9994,-2.9994,-2.9994,-2.9994,-2.9994,-2.9994,-2.9994,-2.9994,-2.9994,-2.9994,-2.9994,-2.9994,-2.9994,-3.0099,-3.1013,-3.2015,-3.2901,-3.4581,-3.5858,-3.6722,-3.74,-3.7808,-3.79,-3.79,-3.79,-3.79,-3.79,-3.79,-3.79,-3.79,-3.79,-2.8291,-2.8291,-2.8291,-2.8291,-2.8291,-2.8359,-2.8613,-2.8465,-2.8253,-2.8442,-2.853,-2.8524,-2.8361,-2.8718,-2.8984,-2.8984,-2.8984,0.0,-2.8984,-2.8984,-2.8984,-2.8984,-2.8984,0.0,0.0,0.0,-2.8984,-2.8984,-2.8984,-2.9048,-2.9204,-2.9379,-2.947,-2.947,-2.9305,-2.9223,-2.9223,-2.9067,-2.8984,-2.8984,-2.8984,-2.8984,-2.8984,-2.8984,-2.8984,-2.8993,-2.9232,-2.9582,0.0,-3.0455,-3.092,-3.1262,-3.1249,-3.1367,-3.1465,-3.1045,-3.0996,-3.1123,-3.0947,-3.0889,-3.0889,-3.0889,-3.0889,-3.0889,-3.0889,-3.0391,-2.9785,-2.9619,-2.9072,-2.8506,-2.834,-2.8408,-2.8621,-2.9026,-2.9343,-2.9659,-2.9994,-2.9994,-2.9994,-2.9994,-2.9994,-2.9994,-2.9994,-2.9994,-2.9901,-2.9622,-2.958,-2.9477,-2.9197,-2.9404,-2.958,-2.958,-2.9829,-3.0297,-3.0909,-3.1812,-3.2901,-3.4385,-3.5559,-3.6628,-3.74,-3.7703,-3.79,-3.79,-3.79,-3.79,-3.79,-3.79,-3.79,-3.79,-3.79,-3.79,-2.8291,-2.8291,-2.832,-2.8447,-2.8476,-2.8594,-2.9014,-2.9011,-2.8805,-2.9002,-2.8974,-2.8872,-2.8769,-2.891,-2.8984,-2.8984,0.0,-2.8984,-2.8984,-2.8984,-2.8984,-2.8984,0.0,-2.8984,0.0,-2.8984,-2.8984,-2.8984,-2.8984,-2.8984,-2.8984,-2.8984,-2.8984,-2.8984,-2.8984,-2.8984,-2.8984,-2.8984,-2.8984,-2.8984,-2.8984,-2.8984,-2.8984,-2.8984,-2.9048,-2.9168,-2.9452,-2.9897,0.0,-3.0926,-3.134,-3.145,-3.1511,-3.1514,-3.1465,-3.1045,-3.0976,-3.1055,-3.0937,-3.0889,-3.0889,-3.0889,-3.0889,-3.0869,-3.0732,-3.0166,-2.9541,-2.9414,-2.8857,-2.8291,-2.8291,-2.8514,-2.8727,-2.9036,-2.9343,-2.9659,-2.9994,-2.9994,-2.9994,-2.9994,-2.9994,-2.9994,-2.9994,-2.988,-2.9684,-2.9352,-2.9187,-2.898,-2.8659,-2.8897,-2.9206,-2.9499,-2.9793,-3.0508,-3.1586,-3.27,-3.408,-3.5547,-3.6332,-3.7015,-3.79,-3.79,-3.79,-3.79,-3.79,-3.79,-3.79,-3.79,-3.79,-3.79,-3.79,-3.7808,-2.8291,-2.8291,-2.8398,-2.8809,-2.8916,-2.9023,-2.9463,-2.956,-2.9575,-2.9785,-2.9546,-2.9323,-2.9484,-2.9213,-2.8984,-2.8984,-2.8984,0.0,-2.8984,-2.8984,-2.8984,0.0,0.0,-2.8984,-2.8984,-2.8984,-2.8984,-2.8984,-2.8984,0.0,-2.8984,-2.8984,-2.8984,-2.8984,-2.8984,-2.8984,-2.8984,-2.8984,-2.8984,-2.8984,-2.8984,-2.8984,-2.8984,-2.8984,-2.9195,-2.9562,-2.9571,-3.0045,0.0,-3.1039,-3.1169,-3.1055,-3.1404,-3.1514,-3.1465,-3.1045,-3.1152,-3.1455,-3.1035,-3.0889,-3.0889,-3.0889,-3.0889,-3.0801,-3.0342,-2.9902,-2.9482,-2.9053,-2.8613,-2.8291,-2.8291,-2.8514,-2.8727,-2.9036,-2.9343,-2.9659,-2.9994,-2.9994,-2.9994,-2.9994,-2.9994,-2.9994,-2.9994,-2.9611,-2.9311,-2.9301,-2.8918,-2.8618,-2.8618,-2.8618,-2.9016,-2.9992,-3.0101,-3.057,-3.1893,-3.365,-3.5029,-3.5879,-3.6402,-3.7015,-3.79,-3.79,-3.79,-3.79,-3.79,-3.79,-3.79,-3.79,-3.79,-3.79,-3.79,-3.7586,-2.8849,-2.8721,-2.8828,-2.9258,-2.9365,-2.9473,-2.9902,-3.0,-3.0013,-3.0219,-2.9957,-2.9653,-2.954,-2.9213,-2.8984,-2.8984,-2.8984,0.0,0.0,0.0,0.0,-2.8984,-2.8984,-2.8984,0.0,0.0,-2.8984,-2.8984,-2.8984,-2.8984,-2.8984,-2.8984,-2.8984,-2.8984,-2.8984,-2.8984,-2.8984,-2.8984,-2.8984,-2.8984,-2.8984,-2.8984,-2.8993,-2.9259,-2.9452,-2.9599,-3.0158,-3.0447,0.0,-3.1236,-3.1475,-3.1188,-3.1391,-3.1514,-3.1465,-3.1045,-3.0976,-3.1064,-3.0937,-3.0889,-3.0889,-3.0889,-3.0674,-3.0332,-2.9902,-2.9678,-2.9414,-2.8691,-2.8398,-2.8291,-2.8514,-2.8717,-2.9026,-2.9343,-2.9669,-2.9889,-2.9994,-2.9994,-2.9994,-2.9994,-2.9994,-2.9891,-2.958,-2.9404,-2.9094,-2.8452,-2.8235,-2.8213,-2.8657,-2.8999,-2.9471,-3.0499,-3.1821,-3.2536,-3.2206,-3.3362,-3.4416,-3.5019,-3.5839,-3.6378,-3.6671,-3.6671,-3.6671,-3.6671,-3.6671,-3.6671,-3.6671,-3.6671,-3.6671,-3.6671,-3.6671,-3.6567,-3.0426,-2.9995,-2.9909,-3.0348,-3.0458,-3.0578,-3.1027,-3.1117,-3.1207,-3.1245,-3.0499,-2.9804,-2.9686,-2.9331,-2.8984,-2.8984,-2.8984,-2.8984,0.0,0.0,0.0,-2.8984,0.0,0.0,0.0,-2.8984,-2.8984,-2.8984,-2.8984,-2.8984,-2.8984,-2.8984,-2.8984,-2.8984,-2.8984,-2.8984,-2.8984,-2.8984,-2.8984,-2.8984,-2.8984,-2.9067,-2.9214,-2.9461,-2.9663,-2.9837,-3.0466,-3.0673,0.0,-3.1341,-3.1446,-3.1159,-3.1382,-3.1426,-3.125,-3.0986,-3.0889,-3.0889,-3.0889,-3.0889,-3.0859,-3.0684,-3.0215,-2.9668,-2.9404,-2.9209,-2.8975,-2.8447,-2.8291,-2.8291,-2.8514,-2.8824,-2.9132,-2.9343,-2.9669,-2.9942,-2.9777,-2.9735,-2.9684,-2.9508,-2.9477,-2.9384,-2.9094,-2.8897,-2.8587,-2.8007,-2.8059,-2.8306,-2.8664,-2.9267,-3.0086,-3.0996,-3.2189,-3.2937,-3.2756,-3.3937,-3.4817,-3.5239,-3.5758,-3.6109,-3.6109,-3.6109,-3.6109,-3.6109,-3.6109,-3.6109,-3.6109,-3.6109,-3.6109,-3.6109,-3.6109,-3.5992,0.0,-3.219,-3.1662,-3.2111,-3.2225,-3.2228,-3.2685,-3.2789,0.0,-3.2789,-3.1421,-3.0147,-3.0147,-2.9677,-2.9213,-2.9213,-2.9213,-2.9213,-2.9094,-2.9103,0.0,0.0,-2.8984,0.0,-2.8984,-2.8984,-2.8984,-2.8984,-2.8984,-2.8984,-2.8984,-2.8984,-2.8984,-2.8984,-2.8984,-2.8984,-2.8984,-2.8984,-2.8984,-2.8984,-2.9012,-2.9223,-2.9571,-2.9599,-2.9828,0.0,-3.0556,0.0,0.0,-3.1369,-3.1373,-3.0998,-3.1356,-3.123,-3.0889,-3.0889,-3.0889,-3.0889,-3.0889,-3.0869,-3.0762,-3.0264,-2.957,-2.8916,-2.8887,-2.8603,-2.8291,-2.8291,-2.8291,-2.8291,-2.8291,-2.8708,-2.9122,-2.9092,-2.9513,-2.9818,-2.9352,-2.9259,-2.9125,-2.869,-2.8618,-2.8597,-2.8566,-2.8204,-2.8011,-2.797,-2.8443,-2.8806,-2.891,-2.9715,-3.0711,-3.1625,-3.1801,-3.2239,-3.3386,-3.4934,-3.5979,-3.5992,-3.5979,-3.5979,-3.5979,-3.5979,-3.5979,-3.5979,-3.5979,-3.5979,-3.5979,-3.5979,-3.5979,-3.5979,-3.5979,-3.5704,-3.6176,0.0,-3.3323,-3.3709,-3.3828,-3.386,0.0,-3.4,-3.4,-3.4,-3.3304,-3.2613,-3.2613,-3.2156,-3.1707,-3.1707,-3.1707,-3.1486,-3.047,-2.9558,0.0,-2.8984,-2.8984,-2.8984,-2.8984,-2.8984,-2.8984,-2.8984,-2.8984,-2.8984,-2.8984,-2.8984,-2.8984,-2.8984,-2.8984,-2.8984,-2.8984,-2.8984,-2.8984,-2.8984,-2.9287,-2.9479,-2.958,-2.991,-3.0226,-3.0566,-3.068,0.0,-3.0558,-3.094,-3.093,-3.0546,-3.0918,-3.0976,-3.0889,-3.0889,-3.0889,-3.0889,-3.0889,-3.0654,-3.0234,-2.9473,-2.9082,-2.8857,-2.8535,-2.8369,-2.8291,-2.8291,-2.8291,-2.8408,-2.8514,-2.8824,-2.9051,-2.8938,-2.9167,-2.9342,-2.8876,-2.8773,-2.8742,-2.8628,-2.8618,-2.8504,-2.8152,-2.857,-2.8944,-2.8578,-2.9242,-3.0079,-3.0812,-3.1258,-3.1977,-3.2871,-3.33,-3.3641,-3.3907,-3.4139,-3.4366,-3.4562,-3.4718,-3.4803,-3.4803,-3.4803,-3.4803,-3.4803,-3.4803,-3.4803,-3.4803,-3.4803,-3.4803,-3.4803,-3.4803,-3.4724,-3.7493,-3.6235,-3.4986,-3.5156,-3.5234,-3.5234,-3.5234,-3.5234,-3.5234,-3.5234,-3.4314,-3.3508,-3.3508,-3.3067,-3.2613,-3.2613,-3.2613,-3.2385,0.0,0.0,-2.9795,-2.9795,-2.9331,-2.8984,0.0,-2.8984,-2.8984,-2.8984,-2.8984,-2.8984,-2.8984,-2.8984,-2.8984,-2.8984,-2.8984,-2.8984,-2.8984,-2.8984,-2.9076,-2.9259,-2.947,-2.9672,-2.9865,-3.0094,-3.0217,-3.0146,0.0,0.0,-3.0253,-3.0748,-3.0858,-3.0635,-3.0889,-3.0889,-3.0889,-3.0889,-3.0889,-3.0859,-3.0644,-3.0146,-2.9531,-2.9072,-2.8789,-2.8584,-2.8359,-2.8291,-2.8291,-2.8291,-2.8291,-2.8291,-2.8514,-2.8675,-2.878,-2.8755,-2.884,-2.8856,-2.839,-2.8297,-2.8235,-2.8038,-2.7986,-2.8108,-2.8221,-2.8739,-2.9113,-2.9405,-3.026,-3.0991,-3.1536,-3.2164,-3.2698,-3.3313,-3.3654,-3.3907,-3.4076,-3.3992,-3.3979,-3.4243,-3.4314,-3.4397,-3.4397,-3.4397,-3.4397,-3.4397,-3.4397,-3.4397,-3.4397,-3.4397,-3.4397,-3.4397,-3.4397,-3.4397,-3.7866,-3.7215,-3.6449,-3.6449,-3.6449,-3.6449,-3.6449,-3.6518,-3.6553,-3.6472,-3.5268,-3.4155,-3.408,-3.3519,-3.318,-3.318,-3.2954,0.0,-3.2851,-3.1832,-3.1043,-3.1043,-3.0128,0.0,-2.9549,-2.9322,-2.9331,-2.9331,-2.9103,-2.8984,-2.8984,-2.8984,-2.9012,-2.9067,-2.9076,-2.9104,-2.9168,-2.9104,-2.9269,-2.9663,-2.9663,-2.9855,-3.0204,-3.013,-2.991,-2.9804,0.0,0.0,-3.0049,-3.0645,-3.0889,-3.0889,-3.0889,-3.0889,-3.0889,-3.0889,-3.084,-3.0713,-3.0185,-2.9531,-2.8906,-2.8848,-2.8584,-2.8291,-2.8291,-2.8291,-2.8291,-2.8291,-2.8291,-2.8291,-2.8398,-2.84,-2.8468,-2.85,-2.8441,-2.838,-2.7924,-2.7821,-2.7717,-2.7334,-2.7262,-2.7631,-2.8538,-2.8817,-2.9268,-3.026,-3.1258,-3.1813,-3.1813,-3.2612,-3.324,-3.3398,-3.3484,-3.3725,-3.4076,-3.416,-3.4243,-3.4397,-3.4397,-3.4397,-3.4397,-3.4397,-3.4397,-3.4397,-3.4397,-3.4397,-3.4397,-3.4397,-3.4397,-3.4397,-3.4397,-3.4397,-3.7962,-3.7868,-3.7761,-3.7761,-3.7761,-3.7761,-3.7761,-3.8013,-3.8227,-3.7857,-3.7461,-3.7078,-3.665,-3.6134,-3.5697,-3.5697,-3.4914,-3.4246,0.0,0.0,-3.227,-3.227,0.0,-3.2041,-3.2041,-3.1149,-3.048,-3.048,-2.9558,-2.8984,-2.8984,-2.8984,-2.914,-2.947,-2.9479,-2.9654,-3.0011,-2.9663,-2.969,-3.0103,-3.0103,-3.014,-3.0195,-2.9828,-2.999,-3.0398,0.0,-3.0106,-3.0762,-3.0518,-3.0635,-3.0889,-3.0889,-3.0889,-3.0889,-3.0889,-3.0644,-3.0185,-2.9394,-2.9033,-2.8857,-2.8506,-2.834,-2.8291,-2.8291,-2.8291,-2.8291,-2.8291,-2.8291,-2.8398,-2.8621,-2.861,-2.849,-2.832,-2.8082,-2.7903,-2.7458,-2.7365,-2.7345,-2.7272,-2.7262,-2.7631,-2.8538,-2.9452,-3.026,-3.1258,-3.2251,-3.2896,-3.2896,-3.33,-3.3641,-3.3641,-3.3979,-3.4314,-3.4314,-3.4314,-3.4397,-3.4397,-3.4397,-3.4397,-3.4397,-3.4397,-3.4397,-3.4397,-3.4397,-3.4397,-3.4397,-3.4397,-3.4397,-3.4397,-3.4397,-3.4397,-3.7986,-3.7986,-3.7986,-3.7986,-3.7986,-3.8058,-3.8359,-3.8635,-3.8743,-3.8479,-3.8178,-3.7743,-3.7225,-3.67,-3.6266,-3.6266,0.0,-3.5488,-3.5488,-3.4458,-3.3663,0.0,0.0,-3.2613,-3.2613,-3.2052,-3.1496,-3.082,-3.0246,-2.9677,-2.8984,-2.9186,-2.9388,-2.9562,-2.9791,-3.0112,-3.0516,-3.0112,-3.0011,-3.0204,-3.0204,-3.0085,-2.9855,-2.9663,-2.9693,-2.9949,0.0,-3.0039,-3.0635,-3.0645,-3.0762,-3.0889,-3.0889,-3.0889,-3.0859,-3.0605,-3.0088,-2.9443,-2.9062,-2.8769,-2.8555,-2.8359,-2.8291,-2.8291,-2.8291,-2.8291,-2.8291,-2.8291,-2.8291,-2.8349,-2.8325,-2.8251,-2.8117,-2.7872,-2.7708,-2.751,-2.7303,-2.7262,-2.7441,-2.7998,-2.8081,-2.8538,-2.9988,-3.0621,-3.1258,-3.2251,-3.2797,-3.3081,-3.3081,-3.3398,-3.3556,-3.3713,-3.3979,-3.4314,-3.4397,-3.4397,-3.4397,-3.4397,-3.4397,-3.4397,-3.4397,-3.4397,-3.4397,-3.4397,-3.4397,-3.4397,-3.4397,-3.4397,-3.4397,-3.4397,-3.4397,-3.4397,-3.7986,-3.7986,-3.7986,-3.7986,-3.8082,-3.8286,-3.8719,-3.8912,-3.8972,-3.8839,-3.8357,-3.7864,-3.7225,-3.67,-3.6266,-3.6266,-3.6266,-3.6266,-3.6266,-3.5488,-3.4925,-3.4925,-3.4112,-3.3529,-3.3529,-3.3191,-3.2633,-3.1737,-3.1169,-3.0401,-2.958,-2.9647,-2.9663,-2.9855,-3.0167,-3.0525,-3.0919,-3.0534,-3.0341,-3.0332,-3.014,-2.9883,-2.9692,-2.96,-2.9619,-2.9677,-2.9804,-3.0157,-3.0509,-3.0762,-3.0889,-3.0889,-3.0889,-3.082,-3.0664,-3.0098,-2.9482,-2.8906,-2.8809,-2.8564,-2.8291,-2.8291,-2.8291,-2.8291,-2.8291,-2.8291,-2.8271,-2.8174,-2.8347,-2.848,-2.8455,-2.8259,-2.7952,-2.7919,-2.7775,-2.7536,-2.7357,-2.7441,-2.7809,-2.8538,-2.8899,-2.9624,-3.1359,-3.1625,-3.1901,-3.2982,-3.3081,-3.3167,-3.3154,-3.3313,-3.3556,-3.381,-3.3979,-3.4243,-3.4397,-3.4397,-3.4397,-3.4397,-3.4397,-3.4397,-3.4397,-3.4397,-3.4397,-3.4397,-3.4397,-3.4397,-3.4397,-3.4397,-3.4397,-3.4397,-3.4397,-3.4397,-3.7986,-3.7986,-3.7986,-3.7986,-3.8371,-3.8767,-3.8815,-3.92,-3.9405,-3.8924,-3.8598,-3.8105,-3.7237,-3.67,-3.6266,-3.6266,-3.6266,-3.6266,-3.6266,0.0,-3.6157,-3.6157,-3.6036,-3.6036,-3.6036,-3.5035,-3.4357,-3.4246,-3.2082,-3.0879,-3.1268,-3.0139,-2.992,-3.0681,-3.0726,-3.0937,-3.1332,-3.0947,-3.0745,-3.0736,-2.9975,-2.9729,-3.0065,-2.9673,-2.9823,-3.0274,-3.0039,-3.0294,-3.0889,-3.0518,-3.0635,-3.0889,-3.0889,-3.0625,-3.0146,-2.9316,-2.8975,-2.8867,-2.8476,-2.831,-2.8291,-2.8291,-2.8291,-2.8291,-2.8291,-2.8291,-2.8213,-2.7822,-2.8405,-2.9188,-2.9667,-2.9183,-2.8679,-2.9169,-2.8896,-2.8351,-2.7441,-2.7987,-2.8631,-2.8724,-2.9441,-3.0441,-3.1448,-3.1625,-3.1901,-3.2982,-3.3081,-3.3154,-3.3313,-3.3556,-3.381,-3.4076,-3.4243,-3.4397,-3.4397,-3.4397,-3.4397,-3.4397,-3.4397,-3.4397,-3.4397,-3.4397,-3.4397,-3.4397,-3.4397,-3.4397,-3.4397,-3.4397,-3.4397,-3.4397,-3.4397,-3.4397,-3.7986,-3.7986,-3.807,-3.8419,-3.8912,-3.9224,-3.89,-3.9224,-3.9453,-3.8924,-3.8598,-3.8093,-3.701,0.0,-3.6483,-3.6375,-3.6266,-3.6266,-3.6266,-3.6266,-3.6266,-3.6266,-3.6266,-3.6266,-3.6266,-3.5938,-3.5379,-3.4997,-3.409,-3.336,-3.3109,-3.21,-3.1684,-3.2008,-3.1518,-3.1112,-3.1011,-3.0867,-3.0668,-3.0417,-3.0102,-2.9934,-2.9921,-2.9879,-3.0039,-3.0382,-3.0274,-3.0518,-3.0889,-3.0762,-3.0597,-3.043,-3.0176,-2.9795,-2.9365,-2.9043,-2.875,-2.8506,-2.835,-2.8291,-2.8291,-2.8291,-2.8291,-2.8291,-2.8291,-2.8115,-2.7966,-2.8405,-2.8543,-2.8588,-2.8982,-2.9289,-2.9598,-2.9881,-2.9309,-2.8806,-2.9084,-2.8899,-2.9084,-3.026,-3.0812,-3.1347,-3.2351,-3.2537,-3.2624,-3.3068,-3.324,-3.3313,-3.3398,-3.3738,-3.3992,-3.4076,-3.4314,-3.4397,-3.4397,-3.4397,-3.4397,-3.4397,-3.4397,-3.4397,-3.4397,-3.4397,-3.4397,-3.4397,-3.4397,-3.4397,-3.4397,-3.4397,-3.4397,-3.4397,-3.4397,-3.4397,-3.7986,-3.7986,-3.8118,-3.8683,0.0,-3.9465,-3.8936,-3.9224,-3.9453,-3.8924,-3.8346,-3.7783,-3.7106,-3.6808,0.0,0.0,-3.6386,-3.6375,-3.6266,-3.6266,-3.6266,-3.6266,-3.6266,-3.6266,-3.6266,-3.6415,-3.6314,-3.5836,-3.5538,-3.5259,-3.4889,-3.3892,-3.3287,-3.2949,-3.2235,-3.1565,-3.0926,-3.064,-3.0475,-3.0325,-3.0304,-3.0206,-3.0039,-3.0039,-3.0274,-3.0509,-3.0364,-3.0422,-3.0664,-3.0527,-3.0283,-2.9961,-2.9531,-2.918,-2.8896,-2.8769,-2.8535,-2.8291,-2.8291,-2.8291,-2.8291,-2.8291,-2.8203,-2.8202,-2.8499,-2.8296,-2.8124,-2.8956,-2.9049,-2.9083,-2.9299,-2.9911,-3.048,-3.0612,-3.0079,-2.9715,-3.0079,-2.9897,-2.9988,-3.1359,-3.1901,-3.2264,-3.2982,-3.3081,-3.3081,-3.3081,-3.324,-3.3313,-3.3471,-3.381,-3.3992,-3.416,-3.4314,-3.4397,-3.4397,-3.4397,-3.4397,-3.4397,-3.4397,-3.4397,-3.4397,-3.4397,-3.4397,-3.4397,-3.4397,-3.4397,-3.4397,-3.4397,-3.4397,-3.4397,-3.4397,-3.4397,-3.7986,-3.7986,-3.8118,-3.8683,-3.9224,-3.9477,-3.8948,-3.9224,-3.9453,-3.8924,-3.794,-3.7251,-3.7489,-3.7155,0.0,-3.67,-3.67,-3.6592,-3.6386,-3.6277,-3.6266,-3.6266,-3.6277,-3.6277,-3.6277,-3.6736,-3.7046,-3.7046,-3.6359,-3.6246,-3.6599,-3.5385,-3.4371,-3.3475,-3.2969,-3.2267,-3.1313,-3.0493,-3.0436,-3.1026,-3.0584,-3.0372,-3.0382,-3.0382,-3.0626,-3.085,-3.0391,-3.0185,-3.0156,-2.9736,-2.956,-2.9521,-2.9082,-2.8916,-2.8867,-2.8447,-2.8291,-2.8291,-2.8291,-2.8291,-2.8291,-2.8291,-2.8008,-2.7865,-2.885,-2.8827,-2.8582,-2.9171,-2.9992,-3.0824,-3.0851,-3.1057,-3.1311,-3.1524,-3.1625,-3.1359,-3.0441,-3.0991,-3.1625,-3.1625,-3.2438,-3.3081,-3.3081,-3.3081,-3.3081,-3.3081,-3.3081,-3.324,-3.3641,-3.3713,-3.3882,-3.4314,-3.4397,-3.4397,-3.4397,-3.4397,-3.4397,-3.4397,-3.4397,-3.4397,-3.4397,-3.4397,-3.4397,-3.4397,-3.4397,-3.4397,-3.4397,-3.4397,-3.4397,-3.4397,-3.4397,-3.4397,-3.7986,-3.7986,-3.8202,-3.914,-3.9489,-3.9573,0.0,-3.9501,0.0,0.0,-3.7987,-3.7679,-3.7596,-3.7489,0.0,-3.7024,-3.7024,-3.6916,-3.6916,-3.67,-3.6592,-3.6592,-3.6916,-3.7125,-3.7125,-3.781,-3.8265,-3.841,-3.8458,-3.8412,-3.8444,-3.7471,-3.6632,-3.5969,-3.4136,-3.2686,-3.1956,-3.0834,-3.0313,-3.0142,-2.9938,-2.9994,-3.0276,-3.0276,-3.012,-2.9951,-2.9814,-2.9756,-2.9726,-2.9287,-2.9111,-2.9072,-2.8643,-2.8476,-2.8467,-2.834,-2.8291,-2.8291,-2.8291,-2.8291,-2.8349,-2.8739,-2.8755,-2.8788,-2.9568,-2.9439,-2.9225,-3.013,-3.0583,-3.1011,-3.1785,-3.2264,-3.2525,-3.2624,-3.2077,-3.1713,-3.2164,-3.1889,-3.1813,-3.2537,-3.2896,-3.3081,-3.3081,-3.3081,-3.3154,-3.3326,-3.3398,-3.3641,-3.4147,-3.423,-3.423,-3.4397,-3.4397,-3.4397,-3.4397,-3.4397,-3.4397,-3.4397,-3.4397,-3.4397,-3.4397,-3.4397,-3.4397,-3.4397,-3.4397,-3.4397,-3.4397,-3.4397,-3.4397,-3.4397,-3.4397,-3.4397,-3.7661,-3.7986,-3.8515,-3.9393,-3.9765,-3.9862,-3.9657,-3.9272,-3.8767,0.0,-3.8047,-3.8096,-3.812,-3.8191,0.0,-3.7984,-3.7807,-3.7557,-3.7437,-3.7153,-3.6998,-3.7197,-3.7489,-3.7769,-3.7968,-3.8571,-3.9016,-3.9218,-3.9555,-3.9686,-3.9638,-3.9026,-3.8202,-3.6911,-3.4812,-3.3089,-3.1963,-3.0537,-2.9872,-2.9734,-2.9585,-2.9609,-2.9697,-2.9873,-2.9814,-2.956,-2.9385,-2.9219,-2.9043,-2.8779,-2.8672,-2.8643,-2.8389,-2.8291,-2.8291,-2.8291,-2.8291,-2.8368,-2.8499,-2.865,-2.8675,-2.9226,-2.9358,-2.9345,-3.0044,-2.9997,-2.9889,-3.0824,-3.125,-3.146,-3.2213,-3.2649,-3.2982,-3.3068,-3.2624,-3.2351,-3.2982,-3.2624,-3.2351,-3.2982,-3.3081,-3.3081,-3.3081,-3.3081,-3.3154,-3.324,-3.3556,-3.372,-3.3918,-3.3988,-3.4071,-3.4071,-3.4071,-3.4162,-3.4384,-3.4397,-3.4397,-3.4397,-3.4397,-3.4397,-3.4397,-3.4397,-3.4397,-3.4397,-3.4397,-3.4397,-3.4397,-3.4397,-3.4397,-3.4397,-3.4397,-3.4397,-3.7252,-3.8022,-3.8948,-3.9477,-3.997,-4.0198,-3.9717,-3.8803,-3.8058,-3.8058,0.0,-3.8501,-3.8767,-3.9065,-3.9264,-3.9264,-3.8871,-3.844,-3.8088,-3.7566,-3.7449,-3.7919,-3.8013,-3.8225,-3.8807,-3.9361,-3.9679,-3.9565,-3.9976,-4.0223,-4.0223,-4.014,-3.914,-3.687,-3.5288,-3.3554,-3.1655,-3.0033,-2.94,-2.9725,-2.9584,-2.9248,-2.8877,-2.9316,-2.9492,-2.9434,-2.9033,-2.8643,-2.8291,-2.8291,-2.8291,-2.8291,-2.8291,-2.8291,-2.8291,-2.8388,-2.8368,-2.8483,-2.9096,-2.9116,-2.9114,-2.985,-2.9687,-2.9507,-3.0603,-3.064,-3.0543,-3.1472,-3.1849,-3.2125,-3.2313,-3.2562,-3.281,-3.3068,-3.3081,-3.3081,-3.3081,-3.3081,-3.3081,-3.3081,-3.3081,-3.3081,-3.3081,-3.3081,-3.3081,-3.3154,-3.3433,-3.3553,-3.3312,-3.3372,-3.3535,-3.3587,-3.3587,-3.3809,-3.4345,-3.4397,-3.4397,-3.4397,-3.4397,-3.4397,-3.4397,-3.4397,-3.4397,-3.4397,-3.4397,-3.4397,-3.4397,-3.4397,-3.4397,-3.4397,-3.4397,-3.4481,-3.8024,-3.8417,-3.8948,-3.9477,-3.9693,-3.9741,-3.9633,-3.9104,-3.8635,-3.8635,-3.8623,-3.8839,-3.9369,-3.9537,-3.9486,-3.9486,-3.9402,-3.9319,-3.9208,-3.9002,-3.8745,-3.8852,-3.9343,-3.9641,-3.9748,-4.0361,-4.0786,-4.0441,-4.0767,-4.0711,-4.0223,-3.9675,-3.893,-3.7961,-3.5938,-3.4519,-3.3883,-3.1506,-3.034,0.0,-2.9144,-2.8516,-2.8437,-2.8867,-2.8877,-2.8555,-2.8467,-2.8379,-2.8291,-2.8291,-2.8291,-2.8291,-2.8291,-2.8291,-2.8398,-2.9207,-2.9288,-2.9085,-3.0093,-2.9627,-2.8848,-3.0219,-2.9986,-2.9536,-3.1026,-3.1478,-3.1383,-3.1661,-3.2025,-3.23,-3.24,-3.2736,-3.3068,-3.3081,-3.3081,-3.3081,-3.3081,-3.3081,-3.3081,-3.3081,-3.3081,-3.3081,-3.3081,-3.3081,-3.324,-3.3556,-3.3617,-3.3636,-3.3519,-3.3182,-3.3064,-3.3535,-3.3587,-3.3809,-3.4345,-3.4397,-3.4397,-3.4397,-3.4397,-3.4397,-3.4397,-3.4397,-3.4397,-3.4397,-3.4397,-3.4397,-3.4397,-3.4397,-3.4397,-3.4397,-3.4397,-3.4799,-3.8118,-3.8627,0.0,-3.9789,0.0,-3.9922,-3.9669,-3.9393,-3.92,-3.92,-3.9393,-3.9657,-3.9934,-4.0186,-4.0367,-4.0367,-4.015,-3.9982,-3.9982,-3.9654,-3.9483,-3.9722,-3.9997,-4.026,-4.0511,-4.0901,-4.1184,-4.0954,-4.1069,-4.0841,-3.9986,-3.9551,-3.8766,-3.7462,-3.5817,-3.4541,-3.3981,-3.2066,-3.1125,-3.101,-2.9731,-2.8804,-2.8301,-2.8525,-2.8496,-2.8291,-2.8291,-2.8291,-2.8291,-2.8291,-2.8291,-2.8291,-2.8291,-2.8473,-2.88,-2.929,-2.9515,-2.9689,-3.0546,-3.0303,-2.9814,-3.0848,-3.0858,-3.0617,-3.1466,-3.1661,-3.1749,-3.1849,-3.2125,-3.2388,-3.2562,-3.2822,-3.3081,-3.3081,-3.3081,-3.3081,-3.3081,-3.3081,-3.3081,-3.3081,-3.3081,-3.3081,-3.3081,-3.3154,-3.331,-3.345,-3.3429,-3.3216,-3.2829,-3.2476,-3.2398,-3.2712,-3.2999,-3.3391,-3.3966,-3.4241,-3.4397,-3.4397,-3.4397,-3.4397,-3.4397,-3.4397,-3.4397,-3.4397,-3.4397,-3.4397,-3.4397,-3.4397,-3.4397,-3.4384,-3.4508,-3.4768,-3.8132,-3.8766,-3.9479,-4.025,-4.0391,0.0,-3.9838,-3.9741,-3.9741,-3.9741,-4.009,-4.0427,-4.0511,-4.0896,-4.1184,-4.1184,-4.0812,-4.0535,-4.0535,-4.0162,-4.0042,-4.0487,-4.0535,-4.0703,-4.1148,-4.1184,-4.1184,-4.1184,-4.1016,-4.0535,-3.9657,-3.926,-3.8238,-3.6459,-3.538,-3.4356,-3.3511,-3.2476,-3.2002,-3.2002,-3.0662,-2.9424,-2.8398,-2.833,-2.8291,-2.8291,-2.8291,-2.8291,-2.8291,-2.8291,-2.8252,-2.8184,-2.8184,-2.8521,-2.9033,-2.9033,-2.9437,-3.0163,-3.0714,-3.08,-3.0836,-3.1526,-3.1572,-3.1472,-3.1661,-3.1661,-3.1749,-3.1937,-3.2213,-3.2475,-3.2636,-3.2896,-3.3081,-3.3081,-3.3081,-3.3081,-3.3081,-3.3081,-3.3081,-3.3081,-3.3081,-3.3081,-3.3154,-3.325,-3.3275,-3.323,-3.3066,-3.2681,-3.1889,-3.1757,-3.1731,-3.1759,-3.2346,-3.2934,-3.3535,-3.4084,-3.4397,-3.4397,-3.4397,-3.4397,-3.4397,-3.4397,-3.4358,-3.4254,-3.4345,-3.4397,-3.4397,-3.4306,-3.4337,-3.4476,-3.4526,-3.4702,-3.8885,0.0,-4.005,0.0,-4.0604,-4.0379,0.0,0.0,-4.0294,0.0,-4.0343,-4.0535,-4.0992,-4.1136,-4.1184,-4.1184,-4.1124,-4.1076,-4.1076,-4.1016,-4.1004,-4.1076,-4.1076,-4.11,-4.1172,-4.1184,-4.1184,-4.1184,-4.0331,-3.9753,-3.9621,-3.7841,-3.6699,-3.6411,-3.531,-3.4772,-3.4628,-3.3939,-3.364,-3.364,-3.1559,-2.9987,-2.8818,-2.8457,-2.8291,-2.8291,-2.8291,-2.8291,-2.8291,-2.8291,-2.8076,-2.7754,-2.7754,-2.8081,-2.8569,-2.8659,-2.9537,-3.0762,-3.0892,-3.0663,-3.0443,-3.1407,-3.1104,-3.0543,-3.1472,-3.1661,-3.1749,-3.1937,-3.2213,-3.2475,-3.2636,-3.2896,-3.3081,-3.3081,-3.3081,-3.3081,-3.3081,-3.3081,-3.3081,-3.3081,-3.3081,-3.3154,-3.3313,-3.3173,-3.3008,-3.3165,-3.2473,-3.1941,-3.1785,-3.1405,-3.1287,-3.1707,-3.2346,-3.2934,-3.3535,-3.4084,-3.4397,-3.4397,-3.4397,-3.4397,-3.4397,-3.4397,-3.4175,-3.3705,-3.4162,-3.4397,-3.4397,-3.3927,-3.4071,-3.4658,-3.4143,-3.4685,-3.9063,-3.9618,-4.0131,0.0,-4.0609,-4.0592,-4.0592,-4.072,-4.0751,-4.0451,-4.0631,-4.0908,-4.1148,-4.1184,-4.1184,-4.1184,-4.1184,-4.1184,-4.1184,-4.1184,-4.1184,-4.1184,-4.1184,-4.1184,-4.1184,-4.1184,-4.0944,-4.0343,-3.9874,-3.908,-3.7878,-3.6916,-3.6266,-3.5966,-3.5509,-3.5412,-3.5713,-3.5414,-3.4859,-3.3958,-3.328,-3.1973,-3.0433,-2.9605,-2.891,-2.8281,-2.8047,-2.7939,-2.792,-2.7676,-2.7471,-2.7305,-2.7305,-2.8016,-2.8966,-2.8966,-3.0003,-3.1266,-3.1368,-3.1215,-3.1104,-3.1572,-3.1383,-3.1104,-3.1572,-3.1661,-3.1749,-3.2125,-3.23,-3.2475,-3.281,-3.2982,-3.3081,-3.3081,-3.3081,-3.3081,-3.3081,-3.3081,-3.3081,-3.3081,-3.2817,-3.2676,-3.3026,-3.2733,-3.2423,-3.2408,-3.2085,-3.1718,-3.1405,-3.1143,-3.1078,-3.1339,-3.1875,-3.2319,-3.2594,-3.3117,-3.3443,-3.3443,-3.3443,-3.3443,-3.3443,-3.3443,-3.3326,-3.3091,-3.3652,-3.3783,-3.3443,-3.3208,-3.3463,-3.4194,-3.4039,-3.4548,-3.9625,0.0,-4.0576,-4.0682,-4.1074,-4.1238,0.0,0.0,-4.1305,0.0,-4.1136,-4.1414,-4.1287,-4.1299,-4.1184,-4.1184,-4.1184,-4.1184,-4.1184,-4.1184,-4.1184,-4.1184,-4.1184,-4.1136,-4.0992,-4.086,-4.0451,0.0,-3.9224,-3.8346,-3.6879,-3.6555,-3.623,-3.5833,-3.5809,-3.6002,-3.6411,-3.6543,-3.5876,-3.4337,-3.444,-3.3422,-3.1462,-3.0395,-2.9487,-2.8665,-2.7835,-2.75,-2.7471,-2.7148,-2.6953,-2.6855,-2.7149,-2.8033,-2.9143,-2.9143,-3.0227,-3.1661,-3.1383,-3.1472,-3.1661,-3.1661,-3.1661,-3.1661,-3.1661,-3.1761,-3.1849,-3.23,-3.2475,-3.2562,-3.2995,-3.2968,-3.2855,-3.2855,-3.2754,-3.2729,-3.3018,-3.2968,-3.2855,-3.2855,-3.2403,-3.2193,-3.2618,-3.2239,-3.1873,-3.1824,-3.1718,-3.147,-3.1039,-3.0986,-3.0986,-3.0986,-3.1496,-3.1759,-3.1759,-3.2359,-3.2685,-3.2685,-3.2685,-3.2685,-3.2685,-3.2685,-3.262,-3.2476,-3.2921,-3.2999,-3.2685,-3.2555,-3.2919,-3.3875,-3.3834,-3.4412,-4.1106,-4.1321,0.0,-4.1583,-4.2106,-4.241,0.0,0.0,-4.2098,-4.2073,-4.2086,-4.1984,-4.1606,-4.139,-4.1184,-4.1184,-4.1184,-4.1184,-4.1184,-4.1184,-4.1184,-4.1184,-4.1184,-4.0992,-4.0487,-3.9982,-3.9669,0.0,-3.819,-3.7493,-3.7878,-3.6952,-3.6386,-3.6362,-3.6362,-3.6374,-3.6411,-3.6904,-3.6588,-3.5347,-3.4429,-3.3096,-3.1429,-3.0437,-2.9926,-2.9828,-2.7844,-2.7051,-2.7041,-2.7021,-2.6787,-2.6516,-2.7476,-2.8221,-2.8713,-2.8713,-3.0,-3.156,-3.0633,-3.0913,-3.1661,-3.1661,-3.1661,-3.1661,-3.1661,-3.1849,-3.2038,-3.23,-3.2562,-3.2723,-3.3068,-3.2667,-3.2252,-3.2252,-3.1863,-3.1763,-3.2855,-3.2641,-3.2252,-3.2252,-3.1991,-3.1787,-3.2124,-3.1808,-3.1578,-3.1772,-3.1378,-3.1013,-3.0986,-3.0986,-3.0986,-3.0986,-3.1496,-3.1759,-3.1759,-3.2359,-3.2685,-3.2685,-3.2685,-3.2685,-3.2685,-3.2685,-3.2437,-3.1901,-3.1914,-3.2176,-3.2685,-3.215,-3.26,-3.4096,-3.348,-3.4045,-4.2208,0.0,0.0,-4.2771,-4.2459,-4.2044,-4.2004,-4.1813,-4.1594,-4.1594,-4.1864,-4.2098,-4.1972,-4.1618,-4.139,-4.1184,-4.1184,-4.1184,-4.1184,-4.1184,-4.1184,-4.1184,-4.0884,-4.0595,-4.0415,-3.991,0.0,0.0,0.0,-3.7481,-3.7,-3.6615,-3.6567,-3.6904,-3.6904,-3.7072,-3.7409,-3.6928,-3.6302,-3.5525,-3.4497,-3.3535,-3.2526,-3.1251,-3.0661,-3.0544,-2.887,-2.824,-2.8404,-2.7529,-2.74,-2.7915,-2.8295,-2.8937,-2.9704,-2.9704,-3.0543,-3.1661,-3.1282,-3.1383,-3.1661,-3.1661,-3.1661,-3.1689,-3.1438,-3.144,-3.154,-3.1526,-3.1596,-3.1751,-3.1918,-3.1838,-3.1687,-3.1687,-3.1537,-3.1499,-3.1901,-3.1838,-3.1687,-3.1864,-3.1504,-3.1296,-3.1613,-3.1306,-3.1072,-3.13,-3.1117,-3.0986,-3.0986,-3.0986,-3.0986,-3.0986,-3.1169,-3.13,-3.13,-3.1483,-3.1601,-3.1601,-3.1601,-3.1601,-3.1601,-3.1601,-3.1496,-3.13,-3.13,-3.1392,-3.1601,-3.188,-3.2559,-3.3536,-3.3799,-3.4476,-4.3259,0.0,0.0,0.0,-4.3314,-4.2857,-4.2834,0.0,-4.2277,-4.1869,-4.2158,-4.22,-4.1768,-4.1533,-4.1306,-4.1341,-4.1287,-4.1287,-4.1184,-4.1028,-4.092,-4.092,-4.0451,-4.0066,-3.9886,0.0,0.0,0.0,0.0,0.0,-3.6964,-3.694,-3.7096,-3.7445,-3.7457,-3.7541,-3.7709,-3.6843,-3.605,-3.534,-3.4294,-3.3525,-3.3008,-3.1981,-3.1541,-3.1437,-3.0292,-2.9454,-2.9056,-2.8062,-2.8218,-2.9025,-2.9305,-2.9973,-3.0767,-3.088,-3.1376,-3.1913,-3.1733,-3.1541,-3.1396,-3.1396,-3.1375,-3.1245,-3.0992,-3.1052,-3.1136,-3.11,-3.1165,-3.1235,-3.1386,-3.126,-3.1085,-3.0896,-3.0846,-3.0846,-3.0846,-3.0997,-3.1216,-3.1377,-3.1093,-3.0867,-3.1177,-3.102,-3.0849,-3.0986,-3.0986,-3.0986,-3.0986,-3.0986,-3.0986,-3.0986,-3.0986,-3.0986,-3.0986,-3.0986,-3.0986,-3.0986,-3.0986,-3.0986,-3.0986,-3.0986,-3.0986,-3.0986,-3.1259,-3.1408,-3.1408,-3.1882,-3.2648,-3.3561,-3.4109,-3.4758,0.0,0.0,0.0,0.0,0.0,0.0,-4.3843,0.0,-4.4138,-4.3152,-4.2958,-4.2553,-4.1197,-4.0993,-4.1124,-4.1614,-4.1659,-4.1444,-4.1239,-4.0691,-4.0367,-4.0367,-3.991,-3.9381,0.0,0.0,0.0,0.0,-3.7505,-3.7433,-3.795,-3.7986,-3.7974,-3.7962,-3.7962,-3.7709,-3.718,-3.6627,-3.5845,-3.4811,-3.3777,-3.302,-3.2527,-3.2527,-3.2527,-3.246,-3.1996,-3.0665,-2.8806,-2.8806,-2.9102,-2.9752,-3.0705,-3.1389,-3.1852,-3.2328,-3.2503,-3.2394,-3.1853,-3.1312,-3.0855,-3.0855,-3.0689,-3.0445,-3.042,-3.0741,-3.1058,-3.1046,-3.1185,-3.1336,-3.1336,-3.0972,-3.0457,-2.9917,-2.9792,-2.9792,-2.9792,-3.0218,-3.0662,-3.0887,-3.0598,-3.0457,-3.0698,-3.0836,-3.0986,-3.0986,-3.0986,-3.0986,-3.0986,-3.0986,-3.0986,-3.0986,-3.0986,-3.0986,-3.0986,-3.0986,-3.0986,-3.0986,-3.0986,-3.0986,-3.0986,-3.0986,-3.1048,-3.1048,-3.1736,-3.2146,-3.2146,-3.2146,-3.2918,-3.4312,-3.4312,-3.4758,-4.5489,0.0,0.0,0.0,0.0,0.0,0.0,0.0,0.0,-4.3419,-4.3667,-4.3859,-4.3552,-4.3436,-4.3438,-4.331,-4.1922,-4.0685,-4.0574,-4.033,-4.0134,-4.0134,-3.9454,0.0,0.0,0.0,0.0,0.0,-3.7841,-3.7829,-3.7974,-3.7986,-3.7805,-3.7421,-3.7409,-3.7156,-3.6627,-3.5713,-3.5112,-3.4811,-3.3777,-3.3212,-3.3068,-3.3068,-3.3068,-3.308,-3.2933,-3.2534,-3.1961,-3.1189,-3.1469,-3.2289,-3.258,-3.2768,-3.2875,-3.3023,-3.2575,-3.1877,-3.1721,-3.106,-3.0302,-3.0302,-3.0386,-3.036,-3.0122,-3.0232,-3.04,-3.0186,-3.0244,-3.0231,-3.0231,-3.0131,-2.998,-2.9829,-2.9792,-2.9792,-2.9792,-2.9917,-3.0083,-3.0458,-3.0471,-3.052,-3.0836,-3.0986,-3.0986,-3.0986,-3.0986,-3.0986,-3.0986,-3.0986,-3.0986,-3.0986,-3.0986,-3.0986,-3.0986,-3.0986,-3.0986,-3.0986,-3.0986,-3.0986,-3.0986,-3.1529,-3.1809,-3.1809,-3.2506,-3.3143,-3.3685,-3.3685,-3.3891,-3.4312,-3.4905,-3.5279,-4.588,-4.588,-4.588,-4.588,0.0,0.0,-4.4989,-4.4795,-4.4481,0.0,-4.4166,-4.4204,-4.3823,-4.3724,-4.371,-4.3498,-4.2302,-4.1358,-4.1109,-4.0757,-4.0298,-3.989,-3.9211,0.0,0.0,-3.8391,-3.8198,-3.8198,-3.8092,-3.789,-3.7661,-3.7649,-3.7409,-3.6879,-3.6867,-3.6615,-3.6086,-3.5244,-3.4715,-3.4487,-3.3681,-3.3284,-3.3296,-3.3501,-3.3609,-3.3609,-3.3837,-3.3933,-3.3921,-3.3327,-3.3304,-3.3609,-3.3609,-3.3609,-3.3549,-3.3116,-3.2406,-3.1601,-3.1156,-3.0458,-2.9761,-2.9832,-2.9852,-2.9866,-2.9696,-2.9836,-3.0011,-2.988,-2.9792,-2.9792,-2.9792,-2.9792,-2.9792,-2.9792,-2.9792,-2.9792,-2.9792,-2.9792,-2.9934,-3.0292,-3.0368,-3.052,-3.0911,-3.0986,-3.0986,-3.0986,-3.0986,-3.0986,-3.0986,-3.0986,-3.0986,-3.0986,-3.0986,-3.0986,-3.0986,-3.0986,-3.0986,-3.0986,-3.0986,-3.0986,-3.0986,-3.175,-3.2074,-3.2074,-3.3143,-3.4056,-3.4824,-3.4461,-3.4461,-3.4824,-3.5279,-3.5504,-4.588,-4.588,-4.588,-4.588,-4.588,0.0,-4.588,-4.588,-4.5595,0.0,-4.4499,-4.4219,-4.3273,-4.3177,-4.3177,-4.3177,-4.3177,-4.2851,-4.2177,-4.1673,-4.095,-4.0059,0.0,0.0,-3.9037,-3.8724,-3.8514,-3.8409,-3.8149,-3.7661,-3.7132,-3.7108,-3.6867,-3.6338,-3.6314,-3.6062,-3.5533,-3.5064,-3.4595,-3.4114,-3.3681,-3.3464,-3.3477,-3.3921,-3.4126,-3.415,-3.4619,-3.4823,-3.4823,-3.4763,-3.4499,-3.4114,-3.4066,-3.4042,-3.3921,-3.2875,-3.2118,-3.152,-3.0519,-2.9784,-2.9289,-2.9509,-2.9352,-2.9209,-2.9341,-2.9611,-2.9792,-2.9792,-2.9792,-2.9792,-2.9792,-2.9792,-2.9792,-2.9792,-2.9792,-2.9792,-2.9792,-2.9792,-2.9934,-3.0292,-3.0368,-3.052,-3.0911,-3.0986,-3.0986,-3.0986,-3.0986,-3.0986,-3.0986,-3.0986,-3.0986,-3.0986,-3.0986,-3.1048,-3.1123,-3.1061,-3.1061,-3.1198,-3.1198,-3.1123,-3.1272,-3.1942,-3.2349,-3.2349,-3.3685,-3.4758,-3.5504,-3.4758,-3.4824,-3.5504,-3.5504,-3.5504,-4.588,-4.588,-4.588,-4.588,-4.588,0.0,-4.588,-4.588,-4.588,0.0,-4.5595,-4.5489,-4.5307,-4.5307,-4.5307,-4.5307,-4.5307,-4.4705,-4.2895,-4.2324,-4.2047,-4.1849,0.0,0.0,-4.0211,-4.002,-3.9609,-3.8514,-3.7799,-3.712,-3.6579,-3.6567,-3.6314,-3.5785,-3.5773,-3.5521,-3.4992,-3.4883,-3.4775,-3.4667,-3.4571,-3.4535,-3.4535,-3.4631,-3.4667,-3.4679,-3.4775,-3.4823,-3.4799,-3.4366,-3.439,-3.4631,-3.421,-3.4042,-3.3921,-3.2875,-3.1966,-3.121,-3.0579,-2.9788,-2.9132,-2.9211,-2.9283,-2.9341,-2.9419,-2.9611,-2.9792,-2.9792,-2.9792,-2.9792,-2.9792,-2.9792,-2.9792,-2.9792,-2.9792,-2.9792,-2.9792,-2.9934,-3.0075,-3.0368,-3.0368,-3.052,-3.0911,-3.0986,-3.0986,-3.0986,-3.0986,-3.0986,-3.0986,-3.0986,-3.0986,-3.0986,-3.0986,-3.1259,-3.1809,-3.1334,-3.1482,-3.2662,-3.2232,-3.216,-3.2733,-3.3478,-3.3891,-3.3891,-3.4773,-3.5344,-3.5504,-3.5344,-3.5359,-3.5504,-3.5504,-3.5554,-4.588,-4.588,-4.5808,-4.5474,-4.5387,0.0,0.0,-4.5155,-4.5024,-4.5329,-4.5155,-4.5024,-4.5329,-4.514,-4.5039,-4.5343,-4.514,-4.4553,-4.3519,-4.336,-4.315,-4.2668,0.0,0.0,-4.0491,-4.0402,-3.984,-3.8579,-3.7543,-3.6783,-3.6251,-3.6114,-3.5773,-3.5244,-3.522,-3.51,-3.4823,-3.4571,-3.4571,-3.4823,-3.4559,-3.4571,-3.4823,-3.4823,-3.4823,-3.4823,-3.4823,-3.4679,-3.4414,-3.415,-3.4042,-3.4042,-3.3765,-3.3513,-3.3152,-3.2171,-3.1452,-3.0724,-2.9992,-2.9438,-2.9131,-2.9197,-2.9341,-2.9419,-2.9599,-2.9689,-2.9792,-2.9792,-2.9792,-2.9792,-2.9792,-2.9792,-2.9792,-2.9792,-2.9792,-2.9869,-2.9934,-3.0011,-3.0152,-3.0457,-3.0533,-3.0609,-3.0911,-3.0986,-3.0986,-3.0986,-3.0986,-3.0986,-3.0986,-3.0986,-3.0986,-3.0986,-3.1334,-3.1676,-3.2074,-3.1736,-3.2028,-3.3143,-3.2506,-3.2434,-3.3143,-3.3905,-3.4461,-3.4905,-3.5279,-3.5504,-3.5504,-3.5504,-3.5504,-3.5504,-3.5504,-3.5554,-4.588,-4.588,-4.575,-4.5213,-4.498,-4.4879,0.0,0.0,0.0,0.0,0.0,0.0,0.0,0.0,0.0,0.0,0.0,0.0,0.0,-4.4024,0.0,-4.3119,0.0,0.0,-4.0864,-4.0588,-3.977,-3.835,-3.7506,-3.6713,-3.599,-3.567,-3.5367,-3.4847,-3.4835,-3.4823,-3.4823,-3.4306,-3.4258,-3.4667,-3.4246,-3.4258,-3.4679,-3.4775,-3.4775,-3.4679,-3.4679,-3.4378,-3.3885,-3.3789,-3.3501,-3.322,-3.314,-3.2875,-3.2436,-3.144,-3.081,-3.0358,-2.9512,-2.9209,-2.9287,-2.9431,-2.9509,-2.9509,-2.9702,-2.9792,-2.9792,-2.9792,-2.9792,-2.9792,-2.9792,-2.9792,-2.9792,-2.9792,-2.9869,-2.9856,-3.0088,-3.0152,-3.0305,-3.0622,-3.0698,-3.0849,-3.0986,-3.0986,-3.0986,-3.0986,-3.0986,-3.0986,-3.0986,-3.0986,-3.1048,-3.1198,-3.1736,-3.2218,-3.2492,-3.2362,-3.272,-3.3575,-3.2932,-3.2861,-3.3575,-3.4192,-3.4839,-3.5504,-3.5504,-3.5504,-3.5504,-3.5504,-3.5504,-3.5504,-3.5504,-3.5504,-4.588,-4.588,0.0,0.0,-4.5329,-4.4879,-4.4879,0.0,-4.4008,-4.4081,0.0,0.0,0.0,0.0,0.0,0.0,0.0,0.0,-4.3195,-4.3646,-4.4023,-4.3921,-4.3761,0.0,0.0,-4.1094,-3.9423,-3.7177,-3.7404,-3.7081,-3.5731,-3.5417,-3.5187,-3.5126,-3.4932,-3.4823,-3.4823,-3.4306,-3.4066,-3.4126,-3.4066,-3.4066,-3.415,-3.4619,-3.4571,-3.4126,-3.4126,-3.3837,-3.3344,-3.2863,-3.2726,-3.2835,-3.2678,-3.2629,-3.2556,-3.1016,-3.0731,-3.084,-2.9725,-2.9521,-2.9702,-2.9792,-2.9779,-2.9792,-2.9792,-2.9792,-2.9792,-2.9792,-2.9792,-2.9792,-2.9792,-2.9792,-2.9792,-2.9792,-2.9934,-3.0075,-3.0075,-3.0394,-3.0622,-3.0698,-3.0849,-3.0986,-3.0986,-3.0986,-3.0986,-3.0986,-3.0986,-3.0986,-3.0986,-3.0986,-3.1259,-3.1869,-3.2087,-3.2635,-3.3959,-3.3478,-3.3713,-3.5148,-3.4476,-3.4394,-3.5213,-3.5294,-3.5439,-3.5504,-3.5504,-3.5504,-3.5504,-3.5504,-3.5504,-3.5504,-3.5504,-3.5539,0.0,0.0,0.0,0.0,0.0,0.0,-4.4371,0.0,-4.2992,0.0,0.0,0.0,0.0,0.0,0.0,0.0,-4.2934,0.0,0.0,0.0,-4.3166,0.0,0.0,0.0,0.0,0.0,0.0,0.0,-3.7844,-3.7019,-3.592,-3.5428,-3.5223,-3.5223,-3.4932,-3.4823,-3.4823,-3.4018,-3.3753,-3.4042,-3.3741,-3.3753,-3.4054,-3.427,-3.4246,-3.4018,-3.3811,-3.3482,-3.2974,-3.2937,-3.2747,-3.2555,-3.2467,-3.2467,-3.2384,-3.1245,-3.0918,-3.0934,-2.9986,-2.9702,-2.9792,-2.9792,-2.9792,-2.9792,-2.9792,-2.9792,-2.9792,-2.9792,-2.9792,-2.9792,-2.9792,-2.9792,-2.9869,-2.9934,-3.0011,-3.0152,-3.0394,-3.0546,-3.0698,-3.0849,-3.0911,-3.0986,-3.0986,-3.0986,-3.0986,-3.0986,-3.0986,-3.1123,-3.1603,-3.1676,-3.1955,-3.2648,-3.3129,-3.3616,-3.4245,-3.4041,-3.4327,-3.5439,-3.5198,-3.5133,-3.5504,-3.5504,-3.5504,-3.5504,-3.5504,-3.5504,-3.5504,-3.5504,-3.5504,-3.5504,-3.5504,-3.5554,-4.588,0.0,0.0,0.0,0.0,0.0,0.0,0.0,0.0,0.0,0.0,0.0,0.0,0.0,-4.2179,-4.244,0.0,-4.2034,0.0,-4.1976,0.0,0.0,0.0,0.0,0.0,0.0,0.0,-3.9197,-3.8662,-3.7782,-3.6546,-3.6061,-3.5679,-3.532,-3.503,-3.4823,-3.4823,-3.3945,-3.3609,-3.3825,-3.3464,-3.3404,-3.3621,-3.3765,-3.3753,-3.3678,-3.3489,-3.3107,-3.2711,-3.2889,-3.2744,-3.2475,-3.2475,-3.2562,-3.2451,-3.1655,-3.129,-3.111,-3.0265,-2.9917,-2.9792,-2.9792,-2.9792,-2.9792,-2.9792,-2.9792,-2.9792,-2.9792,-2.9792,-2.9792,-2.9792,-2.9792,-2.9869,-3.0088,-3.0152,-3.0305,-3.0622,-3.0773,-3.0849,-3.0986,-3.0986,-3.0986,-3.0986,-3.0986,-3.0986,-3.0986,-3.1198,-3.1455,-3.2015,-3.229,-3.2648,-3.3422,-3.3973,-3.438,-3.461,-3.461,-3.4905,-3.5439,-3.5504,-3.5504,-3.5504,-3.5504,-3.5504,-3.5504,-3.5504,-3.5504,-3.5504,-3.5504,-3.5504,-3.5504,-3.5554,-3.5539,0.0,0.0,0.0,-4.5866,0.0,0.0,0.0,0.0,-4.2107,0.0,0.0,0.0,0.0,-4.2107,-4.1889,-4.1265,-4.1686,0.0,0.0,0.0,0.0,0.0,0.0,0.0,0.0,-4.1437,-4.1198,-3.9387,-3.9986,-3.9724,-3.7808,-3.752,-3.6777,-3.5608,-3.532,-3.503,-3.4823,-3.4282,-3.3777,-3.3308,-3.3296,-3.3032,-3.2575,-3.308,-3.3112,-3.2876,-3.2864,-3.265,-3.2412,-3.2412,-3.2574,-3.2711,-3.2711,-3.281,-3.3006,-3.2174,-3.1697,-3.1311,-3.0771,-3.0231,-2.9792,-2.9792,-2.9792,-2.9792,-2.9792,-2.9792,-2.9792,-2.9792,-2.9792,-2.9792,-2.9792,-2.9792,-2.9869,-3.0088,-3.0216,-3.0444,-3.0698,-3.0849,-3.0986,-3.0986,-3.0986,-3.0986,-3.0986,-3.0986,-3.0986,-3.0986,-3.1603,-3.2074,-3.2074,-3.272,-3.3422,-3.4177,-3.4312,-3.461,-3.5424,-3.5439,-3.5439,-3.5504,-3.5504,-3.5504,-3.5504,-3.5504,-3.5504,-3.5504,-3.5504,-3.5504,-3.5504,-3.5504,-3.5504,-3.5504,-3.5638,-3.5688,0.0,0.0,-4.6328,-4.6135,0.0,0.0,0.0,0.0,0.0,0.0,0.0,0.0,0.0,-4.2392,-4.2386,-4.2166,-4.2312,-4.2386,0.0,0.0,0.0,0.0,0.0,0.0,0.0,0.0,0.0,-3.9631,-4.0208,-3.9812,-3.79,-3.752,-3.6977,-3.5908,-3.5428,-3.5126,-3.503,-3.4076,-3.3452,-3.3284,-3.2935,-3.2671,-3.2515,-3.2683,-3.275,-3.2816,-3.2641,-3.256,-3.2636,-3.2822,-3.2896,-3.2982,-3.2982,-3.2982,-3.3006,-3.2344,-3.178,-3.126,-3.0382,-2.9942,-2.9792,-2.9792,-2.9792,-2.9792,-2.9792,-2.9792,-2.9792,-2.9792,-2.9792,-2.9792,-2.9792,-2.9856,-3.0088,-3.0216,-3.0457,-3.0609,-3.0836,-3.0911,-3.0986,-3.0986,-3.1394,-3.175,-3.175,-3.2101,-3.2304,-3.1809,-3.2376,-3.3003,-3.3478,-3.3754,-3.4259,-3.4986,-3.5052,-3.5198,-3.5504,-3.5504,-3.5504,-3.5504,-3.5504,-3.5504,-3.5504,-3.5504,-3.5504,-3.5504,-3.5504,-3.5504,-3.5504,-3.5504,-3.5504,-3.5504,-3.5638,-3.5638,-4.6314,-4.6491,0.0,-4.6403,-4.5332,0.0,-4.4379,0.0,-4.2325,0.0,0.0,0.0,0.0,0.0,-4.2688,-4.2688,-4.2688,-4.2614,0.0,-4.1789,0.0,0.0,0.0,-4.1302,0.0,-4.1134,-4.0949,-3.9932,-4.0163,-3.9774,0.0,0.0,-3.691,-3.5848,-3.5207,-3.4841,-3.4747,-3.389,-3.3268,-3.3088,-3.2659,-3.2406,-3.2304,-3.2304,-3.2471,-3.2791,-3.2623,-3.2636,-3.2896,-3.3068,-3.3081,-3.3081,-3.3081,-3.3081,-3.3031,-3.2654,-3.2039,-3.1235,-3.0168,-2.9792,-2.9792,-2.9792,-2.9792,-2.9792,-2.9792,-2.9792,-2.9792,-2.9792,-2.9792,-2.9792,-2.9869,-3.0011,-3.0152,-3.0457,-3.0609,-3.0849,-3.1259,-3.1394,-3.1468,-3.175,-3.216,-3.2506,-3.2506,-3.3073,-3.3353,-3.2577,-3.3143,-3.3768,-3.4245,-3.4528,-3.492,-3.5424,-3.5504,-3.5504,-3.5504,-3.5504,-3.5504,-3.5504,-3.5504,-3.5504,-3.5504,-3.5504,-3.5504,-3.5504,-3.5504,-3.5504,-3.5504,-3.5504,-3.5489,-3.5539,-3.5638,-3.5703]}]]